[[{"header":{"parameterUnit":"m.s-1","parameterCategory":1,"la1":30.6,"la2":28.766,"lo1":-90.7593,"lo2":-88.6598,"dy":0.0162,"dx":0.0183,"nx":116,"ny":114,"refTime":"2024-03-25T12:00:00:Z","depth":0,"parameterNumber":2,"parameterNumberName":"U-component_of_WINDS"},"data":[0.0,0.0,0.0,0.0,0.0,0.0,0.0,0.0,0.0,0.0,0.0,0.0,0.0,0.0,0.0,0.0,0.0,0.0,0.0,0.0,0.0,0.0,0.0,0.0,0.0,0.0,0.0,0.0,0.0,0.0,0.0,0.0,0.0,0.0,0.0,0.0,0.0,0.0,0.0,0.0,0.0,0.0,0.0,0.0,0.0,0.0,0.0,0.0,0.0,0.0,0.0,0.0,0.0,0.0,0.0,0.0,0.0,0.0,0.0,0.0,0.0,0.0,0.0,0.0,0.0,0.0,0.0,0.0,0.0,0.0,0.0,0.0,0.0,0.0,0.0,0.0,0.0,0.0,0.0,0.0,0.0,0.0,0.0,0.0,0.0,0.0,0.0,0.0,0.0,0.0,0.0,0.0,0.0,0.0,0.0,0.0,0.0,0.0,0.0,0.0,0.0,0.0,0.0,0.0,0.0,0.0,0.0,0.0,0.0,0.0,0.0,0.0,0.0,0.0,0.0,0.0,0.0,0.0,0.0,0.0,0.0,0.0,0.0,0.0,0.0,0.0,0.0,0.0,0.0,0.0,0.0,0.0,0.0,0.0,0.0,0.0,0.0,0.0,0.0,0.0,0.0,0.0,0.0,0.0,0.0,0.0,0.0,0.0,0.0,0.0,0.0,0.0,0.0,0.0,0.0,0.0,0.0,0.0,0.0,0.0,0.0,0.0,0.0,0.0,0.0,0.0,0.0,0.0,0.0,0.0,0.0,0.0,0.0,0.0,0.0,0.0,0.0,0.0,0.0,0.0,0.0,0.0,0.0,0.0,0.0,0.0,0.0,0.0,0.0,0.0,0.0,0.0,0.0,0.0,0.0,0.0,0.0,0.0,0.0,0.0,0.0,0.0,0.0,0.0,0.0,0.0,0.0,0.0,0.0,0.0,0.0,0.0,0.0,0.0,0.0,0.0,0.0,0.0,0.0,0.0,0.0,0.0,0.0,0.0,0.0,0.0,0.0,0.0,0.0,0.0,0.0,0.0,0.0,0.0,0.0,0.0,0.0,0.0,0.0,0.0,0.0,0.0,0.0,0.0,0.0,0.0,0.0,0.0,0.0,0.0,0.0,0.0,0.0,0.0,0.0,0.0,0.0,0.0,0.0,0.0,0.0,0.0,0.0,0.0,0.0,0.0,0.0,0.0,0.0,0.0,0.0,0.0,0.0,0.0,0.0,0.0,0.0,0.0,0.0,0.0,0.0,0.0,0.0,0.0,0.0,0.0,0.0,0.0,0.0,0.0,0.0,0.0,0.0,0.0,0.0,0.0,0.0,0.0,0.0,0.0,0.0,0.0,0.0,0.0,0.0,0.0,0.0,0.0,0.0,0.0,0.0,0.0,0.0,0.0,0.0,0.0,0.0,0.0,0.0,0.0,0.0,0.0,0.0,0.0,0.0,0.0,0.0,0.0,0.0,0.0,0.0,0.0,0.0,0.0,0.0,0.0,0.0,0.0,0.0,0.0,0.0,0.0,0.0,0.0,0.0,0.0,0.0,0.0,0.0,0.0,0.0,0.0,0.0,0.0,0.0,0.0,0.0,0.0,0.0,0.0,0.0,0.0,0.0,0.0,0.0,0.0,0.0,0.0,0.0,0.0,0.0,0.0,0.0,0.0,0.0,0.0,0.0,0.0,0.0,0.0,0.0,0.0,0.0,0.0,0.0,0.0,0.0,0.0,0.0,0.0,0.0,0.0,0.0,0.0,0.0,0.0,0.0,0.0,0.0,0.0,0.0,0.0,0.0,0.0,0.0,0.0,0.0,0.0,0.0,0.0,0.0,0.0,0.0,0.0,0.0,0.0,0.0,0.0,0.0,0.0,0.0,0.0,0.0,0.0,0.0,0.0,0.0,0.0,0.0,0.0,0.0,0.0,0.0,0.0,0.0,0.0,0.0,0.0,0.0,0.0,0.0,0.0,0.0,0.0,0.0,0.0,0.0,0.0,0.0,0.0,0.0,0.0,0.0,0.0,0.0,0.0,0.0,0.0,0.0,0.0,0.0,0.0,0.0,0.0,0.0,0.0,0.0,0.0,0.0,0.0,0.0,0.0,0.0,0.0,0.0,0.0,0.0,0.0,0.0,0.0,0.0,0.0,0.0,0.0,0.0,0.0,0.0,0.0,0.0,0.0,0.0,0.0,0.0,0.0,0.0,0.0,0.0,0.0,0.0,0.0,0.0,0.0,0.0,0.0,0.0,0.0,0.0,0.0,0.0,0.0,0.0,0.0,0.0,0.0,0.0,0.0,0.0,0.0,0.0,0.0,0.0,0.0,0.0,0.0,0.0,0.0,0.0,0.0,0.0,0.0,0.0,0.0,0.0,0.0,0.0,0.0,0.0,0.0,0.0,0.0,0.0,0.0,0.0,0.0,0.0,0.0,0.0,0.0,0.0,0.0,0.0,0.0,0.0,0.0,0.0,0.0,0.0,0.0,0.0,0.0,0.0,0.0,0.0,0.0,0.0,0.0,0.0,0.0,0.0,0.0,0.0,0.0,0.0,0.0,0.0,0.0,0.0,0.0,0.0,0.0,0.0,0.0,0.0,0.0,0.0,0.0,0.0,0.0,0.0,0.0,0.0,0.0,0.0,0.0,0.0,0.0,0.0,0.0,0.0,0.0,0.0,0.0,0.0,0.0,0.0,0.0,0.0,0.0,0.0,0.0,0.0,0.0,0.0,0.0,0.0,0.0,0.0,0.0,0.0,0.0,0.0,0.0,0.0,0.0,0.0,0.0,0.0,0.0,0.0,0.0,0.0,0.0,0.0,0.0,0.0,0.0,0.0,0.0,0.0,0.0,0.0,0.0,0.0,0.0,0.0,0.0,0.0,0.0,0.0,0.0,0.0,0.0,0.0,0.0,0.0,0.0,0.0,0.0,0.0,0.0,0.0,0.0,0.0,0.0,0.0,0.0,0.0,0.0,0.0,0.0,0.0,0.0,0.0,0.0,0.0,0.0,0.0,0.0,0.0,0.0,0.0,0.0,0.0,0.0,0.0,0.0,0.0,0.0,0.0,0.0,0.0,0.0,0.0,0.0,0.0,0.0,0.0,0.0,0.0,0.0,0.0,0.0,0.0,0.0,0.0,0.0,0.0,0.0,0.0,0.0,0.0,0.0,0.0,0.0,0.0,0.0,0.0,0.0,0.0,0.0,0.0,0.0,0.0,0.0,0.0,0.0,0.0,0.0,0.0,0.0,0.0,0.0,0.0,0.0,0.0,0.0,0.0,0.0,0.0,0.0,0.0,0.0,0.0,0.0,0.0,0.0,0.0,0.0,0.0,0.0,0.0,0.0,0.0,0.0,0.0,0.0,0.0,0.0,0.0,0.0,0.0,0.0,0.0,0.0,0.0,0.0,0.0,0.0,0.0,0.0,0.0,0.0,0.0,0.0,0.0,0.0,0.0,0.0,0.0,0.0,0.0,0.0,0.0,0.0,0.0,0.0,0.0,0.0,0.0,0.0,0.0,0.0,0.0,0.0,0.0,0.0,0.0,0.0,0.0,0.0,0.0,0.0,0.0,0.0,0.0,0.0,0.0,0.0,0.0,0.0,0.0,0.0,0.0,0.0,0.0,0.0,0.0,0.0,0.0,0.0,0.0,0.0,0.0,0.0,0.0,0.0,0.0,0.0,0.0,0.0,0.0,0.0,0.0,0.0,0.0,0.0,0.0,0.0,0.0,0.0,0.0,0.0,0.0,0.0,0.0,0.0,0.0,0.0,0.0,0.0,0.0,0.0,0.0,0.0,0.0,0.0,0.0,0.0,0.0,0.0,0.0,0.0,0.0,0.0,0.0,0.0,0.0,0.0,0.0,0.0,0.0,0.0,0.0,0.0,0.0,0.0,0.0,0.0,0.0,0.0,0.0,0.0,0.0,0.0,0.0,0.0,0.0,0.0,0.0,0.0,0.0,0.0,0.0,0.0,0.0,0.0,0.0,0.0,0.0,0.0,0.0,0.0,0.0,0.0,0.0,0.0,0.0,0.0,0.0,0.0,0.0,0.0,0.0,0.0,0.0,0.0,0.0,0.0,0.0,0.0,0.0,0.0,0.0,0.0,0.0,0.0,0.0,0.0,0.0,0.0,0.0,0.0,0.0,0.0,0.0,0.0,0.0,0.0,0.0,0.0,0.0,0.0,0.0,0.0,0.0,0.0,0.0,0.0,0.0,0.0,0.0,0.0,0.0,0.0,0.0,0.0,0.0,0.0,0.0,0.0,0.0,0.0,0.0,0.0,0.0,0.0,0.0,0.0,0.0,0.0,0.0,0.0,0.0,0.0,0.0,0.0,0.0,0.0,0.0,0.0,0.0,0.0,0.0,0.0,0.0,0.0,0.0,0.0,0.0,0.0,0.0,0.0,0.0,0.0,0.0,0.0,0.0,0.0,0.0,0.0,0.0,0.0,0.0,0.0,0.0,0.0,0.0,0.0,0.0,0.0,0.0,0.0,0.0,0.0,0.0,0.0,0.0,0.0,0.0,0.0,0.0,0.0,0.0,0.0,0.0,0.0,0.0,0.0,0.0,0.0,0.0,0.0,0.0,0.0,0.0,0.0,0.0,0.0,0.0,0.0,0.0,0.0,0.0,0.0,0.0,0.0,0.0,0.0,0.0,0.0,0.0,0.0,0.0,0.0,0.0,0.0,0.0,0.0,0.0,0.0,0.0,0.0,0.0,0.0,0.0,0.0,0.0,0.0,0.0,0.0,0.0,0.0,0.0,0.0,0.0,0.0,0.0,0.0,0.0,0.0,0.0,0.0,0.0,0.0,0.0,0.0,0.0,0.0,0.0,0.0,0.0,0.0,0.0,0.0,0.0,0.0,0.0,0.0,0.0,0.0,0.0,0.0,0.0,0.0,0.0,0.0,0.0,0.0,0.0,0.0,0.0,0.0,0.0,0.0,0.0,0.0,0.0,0.0,0.0,0.0,0.0,0.0,0.0,0.0,0.0,0.0,0.0,0.0,0.0,0.0,0.0,0.0,0.0,0.0,0.0,0.0,0.0,0.0,0.0,0.0,0.0,0.0,0.0,0.0,0.0,0.0,0.0,0.0,0.0,0.0,0.0,0.0,0.0,0.0,0.0,0.0,0.0,0.0,0.0,0.0,0.0,0.0,0.0,0.0,0.0,0.0,0.0,0.0,0.0,0.0,0.0,0.0,0.0,0.0,0.0,0.0,0.0,0.0,0.0,0.0,0.0,0.0,0.0,0.0,0.0,0.0,0.0,0.0,0.0,0.0,0.0,0.0,0.0,0.0,0.0,0.0,0.0,0.0,0.0,0.0,0.0,0.0,0.0,0.0,0.0,0.0,0.0,0.0,0.0,0.0,0.0,0.0,0.0,0.0,0.0,0.0,0.0,0.0,0.0,0.0,0.0,0.0,0.0,0.0,0.0,0.0,0.0,0.0,0.0,0.0,0.0,0.0,0.0,0.0,0.0,0.0,0.0,0.0,0.0,0.0,0.0,0.0,0.0,0.0,0.0,0.0,0.0,0.0,0.0,0.0,0.0,0.0,0.0,0.0,0.0,0.0,0.0,0.0,0.0,0.0,0.0,0.0,0.0,0.0,0.0,0.0,0.0,0.0,0.0,0.0,0.0,0.0,0.0,0.0,0.0,0.0,0.0,0.0,0.0,0.0,0.0,0.0,0.0,0.0,0.0,0.0,0.0,0.0,0.0,0.0,0.0,0.0,0.0,0.0,0.0,0.0,0.0,0.0,0.0,0.0,0.0,0.0,0.0,0.0,0.0,0.0,0.0,0.0,0.0,0.0,0.0,0.0,0.0,0.0,0.0,0.0,0.0,0.0,0.0,0.0,0.0,0.0,0.0,0.0,0.0,0.0,0.0,0.0,0.0,0.0,0.0,0.0,0.0,0.0,0.0,0.0,0.0,0.0,0.0,0.0,0.0,0.0,0.0,0.0,0.0,0.0,0.0,0.0,0.0,0.0,0.0,0.0,0.0,0.0,0.0,0.0,0.0,0.0,0.0,0.0,0.0,0.0,0.0,0.0,0.0,0.0,0.0,0.0,0.0,0.0,0.0,0.0,0.0,0.0,0.0,0.0,0.0,0.0,0.0,0.0,-7.6381,-7.6733,0.0,0.0,0.0,0.0,0.0,0.0,0.0,0.0,0.0,0.0,0.0,0.0,0.0,0.0,0.0,0.0,0.0,0.0,0.0,0.0,0.0,0.0,0.0,0.0,0.0,0.0,-9.0608,-9.0608,-9.0608,-9.0608,0.0,0.0,0.0,0.0,0.0,0.0,-9.0144,-8.9425,-8.951,-8.8161,-8.5571,-8.8035,-9.0488,-9.2643,0.0,0.0,0.0,0.0,0.0,0.0,0.0,0.0,0.0,0.0,0.0,0.0,0.0,0.0,0.0,0.0,0.0,0.0,0.0,0.0,0.0,0.0,0.0,0.0,0.0,0.0,0.0,0.0,0.0,0.0,0.0,0.0,0.0,0.0,0.0,0.0,0.0,0.0,0.0,0.0,0.0,0.0,0.0,0.0,0.0,0.0,0.0,0.0,0.0,0.0,0.0,0.0,0.0,0.0,0.0,0.0,0.0,0.0,0.0,0.0,0.0,0.0,0.0,0.0,0.0,0.0,0.0,0.0,0.0,0.0,-7.6984,-7.6582,0.0,0.0,0.0,0.0,0.0,0.0,0.0,0.0,0.0,0.0,0.0,0.0,0.0,0.0,0.0,0.0,0.0,0.0,0.0,0.0,0.0,0.0,0.0,-9.0608,-9.0608,-9.0608,-9.0608,-9.0608,-9.0608,-9.0608,-9.0608,-9.0608,-9.0608,-9.0608,-9.0608,-9.0608,-8.9403,-8.6889,-8.5449,-8.3975,-8.2614,-8.3234,-8.587,-9.0113,-9.1935,0.0,0.0,0.0,0.0,0.0,0.0,0.0,0.0,0.0,0.0,0.0,0.0,0.0,0.0,0.0,0.0,0.0,0.0,0.0,0.0,0.0,0.0,0.0,0.0,0.0,0.0,0.0,0.0,0.0,0.0,0.0,0.0,0.0,0.0,0.0,0.0,0.0,0.0,0.0,0.0,0.0,0.0,0.0,0.0,0.0,0.0,0.0,0.0,0.0,0.0,0.0,0.0,0.0,0.0,0.0,0.0,0.0,0.0,0.0,0.0,0.0,0.0,0.0,-7.7637,-7.839,-7.9394,-7.8792,-7.8842,-7.9294,-7.728,-7.5883,-7.5037,-7.5529,0.0,0.0,0.0,0.0,0.0,0.0,0.0,0.0,0.0,0.0,0.0,0.0,0.0,0.0,0.0,0.0,0.0,0.0,0.0,-8.989,-9.0549,-9.0608,-9.0608,-9.0608,-9.0608,-9.0608,-9.0608,-9.0608,-9.0608,-9.0608,-9.0608,-9.0608,-9.0608,-9.0608,-8.9166,-8.6341,-8.1161,-7.9723,-8.1826,-8.0367,-8.115,-8.383,-8.7832,-9.0048,-9.0908,0.0,0.0,0.0,0.0,0.0,0.0,0.0,0.0,0.0,0.0,0.0,0.0,0.0,0.0,0.0,0.0,0.0,0.0,0.0,0.0,0.0,0.0,0.0,0.0,0.0,0.0,0.0,0.0,0.0,0.0,0.0,0.0,0.0,0.0,0.0,0.0,0.0,0.0,0.0,0.0,0.0,-7.4528,-7.4602,0.0,0.0,0.0,0.0,0.0,0.0,0.0,0.0,0.0,0.0,0.0,0.0,0.0,-7.6883,-7.7285,-7.7385,-7.7737,-7.8289,-7.839,-7.8741,-7.9394,-7.8792,-7.8842,-7.9241,-7.5758,0.0,-7.4231,-7.1742,0.0,0.0,0.0,0.0,0.0,0.0,0.0,0.0,0.0,0.0,0.0,0.0,0.0,0.0,0.0,0.0,0.0,0.0,0.0,0.0,0.0,-9.0309,-9.007,-9.007,-8.9412,-8.9292,-9.001,-8.9771,-8.989,-9.0608,-9.0608,-9.0608,-9.0608,-8.8339,-8.4641,-7.9297,-7.6282,-7.5103,-7.5694,-7.5891,-7.7252,-7.9595,-8.1773,-8.5442,-8.9782,-9.0347,0.0,0.0,0.0,0.0,0.0,0.0,0.0,0.0,0.0,0.0,0.0,0.0,0.0,0.0,0.0,0.0,0.0,0.0,0.0,0.0,0.0,0.0,0.0,0.0,0.0,0.0,0.0,0.0,0.0,0.0,0.0,0.0,0.0,0.0,0.0,0.0,0.0,0.0,0.0,-7.565,-7.5176,-7.5728,-7.5728,-7.5829,0.0,0.0,0.0,0.0,0.0,0.0,0.0,0.0,0.0,-7.6532,-7.7034,-7.7285,-7.7235,-7.7536,-7.7988,-7.854,-7.854,-7.8842,-7.9394,-7.9143,-7.9495,-8.0089,-7.4926,-7.283,-7.2956,-7.061,-6.9527,-6.9412,0.0,0.0,0.0,0.0,-6.6063,-6.4464,0.0,0.0,0.0,0.0,0.0,0.0,0.0,0.0,0.0,0.0,0.0,0.0,-9.0608,-8.989,-8.9531,-8.989,-8.8873,-8.8693,-8.983,-8.9292,-8.9471,-9.0608,-9.0608,-9.0608,-9.0608,-8.6364,-8.1181,-7.4975,-7.3522,-7.2269,-7.1108,-7.2514,-7.4208,-7.6073,-7.7139,-8.0973,-8.6994,-8.808,-8.9003,-8.9739,0.0,0.0,0.0,0.0,0.0,0.0,0.0,0.0,0.0,0.0,0.0,0.0,0.0,0.0,0.0,0.0,0.0,0.0,0.0,0.0,0.0,0.0,0.0,0.0,0.0,0.0,0.0,0.0,0.0,0.0,0.0,0.0,0.0,0.0,0.0,0.0,0.0,-7.5778,-7.618,-7.6984,-7.6733,-7.6733,0.0,0.0,0.0,0.0,0.0,0.0,-7.7034,-7.7385,-7.7536,-7.7536,-7.8189,-7.8289,-7.7737,-7.8289,-7.8691,-7.8942,-7.9093,-7.9394,-7.9796,-7.9645,-8.0198,-8.0885,-7.5321,-7.3128,-7.3037,-6.9383,-6.7643,-6.7209,-6.7016,-6.5594,-6.3368,-6.3562,-6.2118,-6.0195,0.0,0.0,0.0,0.0,0.0,0.0,0.0,0.0,0.0,0.0,0.0,-8.9232,-9.0489,-8.9471,-8.9232,-9.0489,-8.995,-8.983,-9.0549,-8.995,-8.989,-9.0608,-9.0608,-9.0608,-9.0608,-8.5871,-8.16,-7.7667,-7.4908,-7.2771,-7.1108,-7.1711,-7.2357,-7.3049,-7.5224,-7.8085,-8.1371,-8.422,-8.5098,-8.492,-8.8291,0.0,0.0,0.0,0.0,0.0,0.0,0.0,0.0,0.0,0.0,0.0,0.0,0.0,0.0,0.0,0.0,0.0,0.0,0.0,0.0,0.0,0.0,0.0,0.0,0.0,0.0,0.0,0.0,0.0,0.0,0.0,0.0,0.0,0.0,0.0,0.0,0.0,0.0,-7.7486,-7.7637,0.0,0.0,0.0,0.0,-7.6883,-7.7285,-7.7586,-7.7637,-7.8691,-7.9243,-7.9243,-8.0298,-8.0599,-8.0047,-8.0599,-8.0599,-8.0147,-8.065,-8.0901,-8.0951,-8.0398,-8.075,-8.1492,-7.7847,-7.6258,-7.5665,-6.6493,-6.2499,-6.1988,-6.1161,-6.1007,-6.1167,-6.0344,-5.9957,-5.9765,0.0,0.0,0.0,0.0,0.0,0.0,0.0,0.0,-8.8693,-8.8693,-8.9052,-8.9651,-9.0549,-8.9471,-8.9052,-8.995,-8.8634,-8.8035,-8.8693,-8.8514,-8.8693,-8.9352,-9.019,-8.8836,-8.4924,-8.2164,-7.8845,-7.4938,-7.3282,-7.2158,-7.149,-7.0638,-7.0606,-7.1251,-7.1978,-7.3146,-7.4807,-7.9586,-8.288,-8.4956,-8.5829,-8.7582,0.0,0.0,0.0,0.0,0.0,0.0,0.0,0.0,0.0,0.0,0.0,0.0,0.0,0.0,0.0,0.0,0.0,0.0,0.0,0.0,0.0,0.0,0.0,0.0,0.0,0.0,0.0,0.0,0.0,0.0,0.0,0.0,0.0,0.0,0.0,0.0,0.0,-7.9595,-7.9846,0.0,-8.0549,-7.9495,-7.8992,-7.9495,-7.9093,-7.9093,-7.9796,-8.0248,-8.0599,-8.0951,-8.1353,-8.1604,-8.1805,-8.1302,-8.0951,-8.075,-8.0198,-7.9997,-7.9947,-7.9796,-8.0097,-8.054,-7.7328,-7.6082,-7.5993,-7.0399,-6.6478,-6.3883,-6.1311,-6.0195,-5.9883,-5.9805,-5.9453,-5.8984,0.0,0.0,0.0,0.0,0.0,0.0,0.0,-8.7796,-8.8514,-8.8095,-8.8574,-8.9232,-8.989,-8.8993,-8.8693,-8.9591,-8.8274,-8.7616,-8.8334,-8.8155,-8.8454,-8.9292,-8.9531,-8.709,-8.18,-8.0941,-7.8508,-7.4372,-7.3923,-7.2922,-7.1452,-7.0452,-6.9866,-6.9702,-6.9702,-7.0003,-7.0739,-7.4859,-7.8513,-8.1712,-8.2228,-8.4547,-8.7593,0.0,0.0,0.0,0.0,0.0,0.0,0.0,0.0,0.0,0.0,0.0,0.0,0.0,0.0,0.0,0.0,0.0,0.0,0.0,0.0,0.0,0.0,0.0,0.0,0.0,0.0,0.0,0.0,0.0,0.0,0.0,0.0,0.0,0.0,-7.8088,-7.9444,-8.1805,-8.2106,-8.2357,-8.2909,-8.1604,-8.0901,-8.1252,-8.08,-8.0901,-8.1805,-8.1855,-8.2005,-8.2357,-8.2357,-8.2307,-8.2106,-8.1553,-8.1001,-8.0449,-7.9947,-7.9595,-7.9394,-7.9394,-7.9695,-8.0093,-7.8102,-7.7397,-7.7473,-7.4074,-7.1041,-6.791,-6.368,-6.15,-6.0676,-5.9868,-5.9219,-5.8789,0.0,0.0,0.0,0.0,0.0,0.0,-8.6718,-8.7856,-8.8215,-8.6898,-8.7317,-8.7975,-8.8634,-8.8095,-8.8274,-8.9531,-8.9052,-8.8933,-8.9591,-8.9052,-8.9232,-9.0489,-8.8634,-8.5701,-8.1871,-8.235,-8.0593,-7.655,-7.7184,-7.5291,-7.1158,-7.1074,-7.0162,-6.8636,-6.8636,-6.8899,-6.9451,-6.9953,-7.1859,-7.465,-7.7693,-8.0673,-8.343,0.0,0.0,0.0,0.0,0.0,0.0,0.0,0.0,0.0,0.0,0.0,0.0,0.0,0.0,0.0,0.0,0.0,0.0,0.0,0.0,0.0,0.0,0.0,0.0,0.0,0.0,0.0,0.0,0.0,0.0,0.0,0.0,0.0,-7.849,-7.9545,-8.1302,-8.3964,-8.4416,-8.4215,-8.3663,-8.3612,-8.316,-8.2005,-8.2457,-8.301,-8.3512,-8.3562,-8.3512,-8.3512,-8.3462,-8.2708,-8.1051,-8.1503,-8.0951,-7.9394,-7.9947,-7.9896,-7.9344,-7.9394,-7.9695,-8.0198,-8.0198,-8.0198,-7.9939,-7.7048,-7.5203,-7.357,-6.7431,-6.4696,-6.3727,-6.0636,-5.9403,-5.9291,0.0,0.0,0.0,0.0,0.0,0.0,-8.7437,-8.8574,-8.8933,-8.7616,-8.8035,-8.8514,-8.8693,-8.8514,-8.8753,-8.9591,-8.9052,-8.8574,-8.8274,-8.8514,-8.8634,-8.8514,-8.5222,-8.2888,-8.1811,-8.0075,-7.8827,-7.8197,-7.6363,-7.5078,-7.4316,-7.2816,-7.1199,-6.9657,-6.9657,-6.9162,-6.8246,-6.8396,-6.9194,-7.0605,-7.472,-7.7989,-8.0418,0.0,0.0,0.0,0.0,0.0,0.0,0.0,0.0,0.0,0.0,0.0,0.0,0.0,0.0,0.0,0.0,0.0,0.0,0.0,0.0,0.0,0.0,0.0,0.0,0.0,0.0,0.0,0.0,0.0,0.0,0.0,-7.7938,-7.849,-7.9093,-8.1152,-8.301,-8.4165,-8.5722,-8.6475,-8.5922,-8.5872,-8.5571,-8.4918,-8.5019,-8.4968,-8.4717,-8.4717,-8.4315,-8.3512,-8.311,-8.2457,-8.1604,-8.0951,-8.0248,-7.9394,-7.9545,-7.9294,-7.8792,-7.9193,-7.9495,-7.9595,-7.9595,-7.9595,-7.9595,-7.8714,-7.7758,-7.6104,-7.0518,-6.78,-6.6945,-6.6104,-6.4331,-6.1899,0.0,0.0,0.0,0.0,0.0,0.0,-8.7676,-8.8813,-8.8813,-8.6359,-8.7616,-8.8274,-8.7137,-8.7796,-8.8454,-8.8813,-8.8753,-8.8514,-8.8155,-8.8215,-8.7377,-8.5342,-8.2769,-8.0973,-8.0135,-7.834,-7.7562,-7.7981,-7.665,-7.5756,-7.515,-7.4237,-7.2802,-7.1094,-7.1094,-7.007,-6.8459,-6.863,-6.8569,-6.8574,-7.2696,-7.5496,-7.7259,-7.8237,-7.9509,-8.1116,-8.3323,-8.502,-8.6513,-8.8406,0.0,0.0,0.0,0.0,0.0,0.0,0.0,0.0,0.0,0.0,0.0,0.0,0.0,0.0,0.0,0.0,0.0,0.0,0.0,0.0,0.0,0.0,0.0,0.0,-7.9645,-8.0951,-8.2005,-8.3512,-8.4918,-8.5922,-8.758,-8.8283,-8.7178,-8.7128,-8.6826,-8.6073,-8.6023,-8.5822,-8.5521,-8.5209,-8.4818,-8.4215,-8.3412,-8.2759,-8.2156,-8.1102,-8.0298,-7.9746,-7.9495,-7.9193,-7.8892,-7.9243,-7.9394,-7.9394,-7.9394,-7.9243,-7.9043,-7.9043,-7.839,-7.6982,0.0,0.0,0.0,0.0,-6.6078,-6.3167,0.0,0.0,0.0,0.0,0.0,0.0,-8.7915,-8.8993,-8.8394,-8.4564,-8.6778,-8.7676,-8.5103,-8.6479,-8.7616,-8.7616,-8.8215,-8.8574,-8.8574,-8.7676,-8.5581,-8.205,-8.1033,-7.9716,-7.7861,-7.7083,-7.6784,-7.6844,-7.7442,-7.6822,-7.5063,-7.5641,-7.4811,-7.2794,-7.2794,-7.1683,-6.9712,-7.016,-6.9619,-6.8809,-7.1825,-7.3626,-7.465,-7.5552,-7.7884,-8.0797,-8.217,-8.4232,-8.6341,-8.7149,0.0,0.0,0.0,0.0,0.0,0.0,0.0,0.0,0.0,0.0,0.0,0.0,0.0,0.0,0.0,0.0,0.0,0.0,0.0,0.0,0.0,0.0,0.0,0.0,-8.1955,-8.4265,-8.6123,-8.6374,-8.6927,-8.8484,-8.9538,-8.9438,-8.7881,-8.763,-8.7178,-8.6073,-8.6023,-8.6023,-8.6023,-8.5521,0.0,0.0,0.0,-8.3311,-8.2658,-8.1604,-8.075,-8.0097,-7.9645,-7.9344,-7.9294,-7.9344,-7.9394,-7.9394,-7.9394,-7.9093,-7.8641,-7.854,-7.7888,-7.6683,-7.4594,-7.3186,-7.1917,-6.9086,-6.6456,-6.425,0.0,0.0,0.0,0.0,0.0,0.0,-8.9292,-8.995,-8.9412,-8.6479,-8.7616,-8.7856,-8.5761,-8.6299,-8.6898,-8.6898,-8.7496,-8.7915,-8.7915,-8.5282,-8.3367,-8.2589,-8.0375,-7.8759,-7.7801,-7.6664,-7.6305,-7.6844,-7.6963,-7.705,-7.7229,-7.7823,-7.7033,-7.4964,-7.4964,-7.381,-7.1843,-7.2007,-7.2422,-7.313,-7.4334,-7.4446,-7.4297,-7.7009,-7.8926,-8.0395,-8.2937,-8.4848,-8.6598,-8.9057,-9.055,-9.1386,-9.1267,-9.0968,0.0,0.0,0.0,0.0,0.0,0.0,0.0,0.0,0.0,0.0,0.0,0.0,0.0,0.0,0.0,0.0,0.0,0.0,0.0,-8.2206,-8.3512,-8.5219,-8.8232,-8.8634,-8.8935,-8.9689,-8.994,-8.9639,-8.8383,-8.7881,-8.7178,-8.6073,-8.6023,-8.6023,-8.6023,-8.5922,-8.5621,-8.5169,-8.4466,-8.3663,-8.2658,-8.1604,-8.0549,-7.9545,-7.9444,0.0,-7.8691,-7.9193,-7.9394,-7.9394,-7.9394,-7.9344,-7.9193,-7.8691,-7.7888,-7.6833,-7.5983,-7.5485,-7.4887,-7.2019,-7.064,-6.9502,0.0,0.0,0.0,0.0,0.0,0.0,-8.9591,-9.019,-8.9711,-8.7018,-8.8155,-8.8394,-8.6419,-8.7077,-8.7676,-8.7676,-8.7676,-8.7437,-8.6718,-8.4504,-8.2649,-8.1332,-7.9656,-7.846,-7.7801,-7.6544,-7.6066,-7.6365,-7.6664,-7.7023,-7.7322,-7.834,-7.8252,-7.7181,-7.7181,-7.6005,-7.4042,-7.4042,-7.4148,-7.4438,-7.5844,-7.6916,-7.77,-7.8917,-7.9747,-8.0585,-8.2668,-8.4618,-8.6513,-8.8236,-8.963,-9.0668,-9.0668,-9.0429,-9.013,0.0,0.0,0.0,0.0,0.0,0.0,0.0,0.0,0.0,0.0,0.0,0.0,0.0,0.0,-7.7637,-7.8741,0.0,-8.1654,-8.3562,-8.5069,-8.6776,-8.8935,-8.9538,-8.9789,-9.009,-9.009,-8.9689,-8.8534,-8.7931,-8.7379,-8.6826,-8.6525,-8.6425,-8.6425,-8.6425,-8.6174,-8.5571,-8.5069,-8.4466,-8.3914,-8.2257,-8.1152,-8.0599,-7.9796,-7.9243,-7.8942,-7.9243,-7.9394,-7.9394,-7.9394,-7.9093,-7.849,-7.7637,-7.6984,-7.6431,-7.618,-7.603,-7.5931,-7.4438,-7.3082,-7.1406,0.0,0.0,0.0,0.0,0.0,0.0,0.0,-9.0309,-8.9771,-8.7377,-8.8574,-8.8933,-8.7077,-8.7856,-8.8574,-8.8693,-8.7616,-8.6659,-8.594,-8.4325,-8.2409,-8.0315,-7.9417,-7.8699,-7.8041,-7.6724,-7.6066,-7.6066,-7.6844,-7.7203,-7.7263,-7.8579,-7.9178,-7.9178,-7.9058,-7.8124,-7.6637,-7.6521,-7.6166,-7.5971,-7.799,-8.0199,-8.2164,-8.1746,-8.1911,-8.2387,-8.3511,-8.5132,-8.694,-8.7493,-8.8569,-8.9711,-8.983,-8.9771,-8.9711,-8.995,-9.0608,0.0,0.0,0.0,0.0,0.0,0.0,0.0,0.0,-7.6381,-7.6833,-7.7938,-7.8641,-7.9394,-8.0599,-8.2407,-8.3914,-8.4818,-8.6425,-8.8032,-8.9136,-8.9588,-8.9839,-8.994,-9.004,-8.9689,-8.8735,-8.8132,-8.768,-8.763,-8.7077,-8.6776,-8.6776,-8.6676,-8.6425,-8.6023,-8.5571,-8.5219,-8.5119,-8.316,-8.2005,-8.1805,-8.0248,-7.9495,-7.9394,-7.9394,-7.9394,-7.9394,-7.9294,-7.8641,-7.7637,-7.6632,-7.613,-7.603,-7.603,-7.603,-7.603,-7.603,-7.4688,-7.2575,0.0,0.0,0.0,0.0,0.0,0.0,0.0,0.0,-9.013,-8.8634,-8.9172,-8.9112,-8.7736,-8.7736,-8.8035,-8.8634,-8.594,-8.4863,-8.6479,-8.3726,-8.1871,-8.1572,-8.0375,-7.9357,-7.8699,-7.7382,-7.6724,-7.6724,-7.7981,-7.8579,-7.8579,-7.9956,-8.0554,-8.0554,-7.9956,-7.9869,-8.0199,-7.9529,-7.9991,-8.109,-8.2431,-8.3955,-8.5367,-8.7112,-8.7721,-8.784,-8.8611,-8.9014,-8.9381,-8.9954,-9.0024,-8.9771,-9.0369,-9.013,-8.989,-9.1087,-9.0668,-8.9656,-8.8248,-8.328,-7.7981,-7.5655,-7.5069,-7.5364,0.0,-7.7536,-7.854,-7.9695,-8.0348,-8.1252,-8.2809,-8.3713,-8.4918,-8.6927,-8.7429,-8.8032,-8.9136,-8.8935,-8.8835,-8.9287,-8.9789,-8.989,-8.9287,-8.8684,-8.8132,-8.763,-8.7077,-8.6776,-8.6776,-8.6324,-8.6073,-8.6023,-8.5922,-8.5671,-8.5169,-8.3914,-8.2809,-8.1805,-8.065,-7.9846,-7.9394,-7.9394,-7.9394,-7.9344,-7.8842,-7.8289,-7.7637,-7.7034,-7.6482,-7.603,-7.603,-7.603,-7.603,-7.603,-7.5931,-7.5186,0.0,0.0,0.0,0.0,0.0,0.0,0.0,0.0,-9.0429,-8.989,-9.007,-9.001,-8.9471,-8.9412,-8.9531,-8.9771,-8.7137,-8.6428,-8.8745,-8.4774,-8.2889,-8.3947,-8.1697,-8.0075,-7.9417,-7.81,-7.7562,-7.7981,-7.8519,-7.9178,-7.9956,-8.0913,-8.1392,-8.1332,-8.1093,-8.0913,-8.0794,-8.0913,-8.1691,-8.3008,-8.3906,-8.5342,-8.6958,-8.7796,-8.8095,-8.8274,-8.9711,-9.0249,0.0,-9.013,-9.013,-9.019,-9.013,-9.0429,-9.0908,-9.1446,-9.1746,-9.0951,-8.6246,-8.0728,-7.6024,-7.4662,-7.5075,-7.618,-7.7536,-7.8691,-7.9896,-8.1353,-8.2357,-8.3361,-8.4717,-8.5922,-8.7027,-8.7931,-8.8383,-8.8785,-8.9187,-8.8785,-8.8433,-8.8283,-8.8534,-8.8835,-8.9287,-8.8785,-8.8484,-8.8584,-8.778,-8.7278,-8.7278,-8.6776,-8.6324,-8.6023,-8.6023,-8.5922,-8.5671,-8.4567,-8.3562,-8.2759,-8.1353,-8.0398,-7.9846,-7.9545,-7.9193,-7.8842,-7.7938,-7.7436,-7.7185,-7.6632,-7.6281,-7.603,-7.603,-7.603,-7.603,-7.603,-7.603,-7.5931,0.0,0.0,0.0,0.0,0.0,0.0,0.0,0.0,0.0,0.0,-9.0939,-9.0608,-9.0608,-9.0608,-9.0608,-9.0608,-8.8574,-8.7953,-8.9559,-8.6367,-8.4947,-8.6101,-8.4075,-8.2364,-8.1432,-8.0101,-7.9453,-7.9597,-7.9776,-8.0494,-8.1631,-8.229,-8.2589,-8.2589,-8.2409,-8.217,-8.1931,-8.217,-8.3068,-8.4325,-8.4983,-8.624,-8.7676,-8.7496,-8.7796,-8.8454,-8.989,-9.013,-8.983,-8.989,-9.013,-9.0309,-9.001,-9.0728,-9.1686,-9.1865,-9.2099,-9.0925,-8.4691,-7.9549,-7.5696,-7.4566,-7.5477,-7.7084,-7.8641,-7.9997,-8.1353,-8.301,-8.4115,-8.5069,-8.6023,-8.7329,-8.8283,-8.8433,-8.8785,-8.9036,-8.9036,-8.8534,-8.7931,-8.7278,-8.7178,-8.7479,-8.8283,-8.8433,-8.8534,-8.8785,-8.8032,-8.7529,-8.7379,-8.6877,-8.6425,-8.6023,-8.6023,-8.6023,-8.6023,-8.5069,-8.4165,-8.3462,-8.2156,-8.1051,-8.0198,-7.9495,-7.8942,-7.844,-7.7335,-7.6883,-7.6833,-7.6281,-7.603,-7.603,-7.603,-7.603,-7.603,-7.603,-7.603,-7.603,0.0,0.0,0.0,0.0,0.0,0.0,0.0,0.0,0.0,0.0,0.0,-9.0608,-9.0608,-9.0608,-9.0608,-9.0608,-8.9412,-8.8334,-8.7816,-8.8181,-8.8063,-8.759,-8.793,-8.7244,-8.5419,-8.4046,-8.2816,-8.1691,-8.235,-8.3008,-8.3666,-8.4325,-8.4624,-8.4624,-8.3965,-8.4025,-8.4564,-8.3906,-8.4444,-8.5701,-8.6359,-8.7077,-8.7616,-8.6958,-8.7915,-8.9591,-8.9651,-8.8873,-8.8095,-8.995,-9.019,-8.983,-9.0429,-9.1087,-9.1746,-9.2404,-9.0923,-8.8291,-8.4364,-8.0604,-7.7619,-7.6364,-7.603,-7.6783,-7.9545,-8.1403,-8.306,-8.4717,-8.5571,-8.6123,-8.6676,-8.7278,-8.778,-8.8383,-8.8484,-8.8484,-8.8484,-8.8032,-8.7228,-8.6174,-8.6073,-8.6073,-8.6073,-8.7529,-8.8232,-8.768,-8.763,-8.7379,-8.6826,-8.6324,-8.6023,-8.6023,-8.6023,-8.6023,-8.6023,-8.542,-8.4567,-8.3462,-8.2909,-8.1754,-8.0198,-7.9043,-7.854,-7.844,-7.7335,-7.6883,-7.6833,-7.6281,-7.603,-7.603,-7.603,-7.603,-7.603,-7.603,-7.603,-7.5979,0.0,0.0,0.0,0.0,0.0,0.0,0.0,0.0,0.0,0.0,0.0,0.0,0.0,0.0,0.0,0.0,-8.9471,-8.9259,-9.0812,-8.8191,-8.7265,-8.8744,-8.6558,-8.4973,-8.4365,-8.3516,-8.3024,-8.3068,-8.3307,-8.3965,-8.5043,-8.5282,-8.5581,-8.6,-8.5342,-8.5402,-8.6,-8.5342,-8.606,-8.7676,-8.7437,-8.8274,-8.9531,-8.8454,-8.8454,-8.9052,0.0,-8.9412,-8.9052,-8.9292,-8.9471,-8.9711,-8.995,-9.0728,-9.1865,-9.2943,-9.1276,-8.8615,-8.6899,-8.4175,-8.1643,-8.162,-8.2925,-8.4646,-8.6751,-8.8631,-9.0031,-9.0945,-9.0894,-9.0735,-9.0949,-8.9876,-8.9195,-8.9764,-8.9131,-8.8484,-8.8484,-8.8283,-8.7379,-8.5169,-8.5571,-8.5571,-8.4416,-8.5872,-8.7027,-8.758,-8.7278,-8.6977,-8.6776,-8.6274,-8.6023,-8.6023,-8.6023,-8.6023,-8.6023,-8.5822,-8.5169,-8.4014,-8.2357,-8.1102,-8.0147,-7.8641,-7.7988,-7.7938,-7.6833,-7.6331,-7.6331,-7.613,-7.603,-7.603,-7.603,-7.603,-7.603,-7.603,-7.5829,-7.5477,0.0,0.0,0.0,0.0,0.0,0.0,0.0,0.0,0.0,0.0,0.0,0.0,0.0,0.0,0.0,0.0,0.0,-8.9982,-9.1406,-8.9347,-8.8745,-9.0168,-8.8905,-8.7507,-8.6199,-8.6829,-8.6533,-8.5162,-8.5393,-8.5695,-8.606,-8.5581,-8.5581,-8.594,-8.5521,-8.5701,-8.6299,-8.5641,-8.7018,-8.9591,-8.8274,-8.9052,-9.0788,-8.8753,-8.8095,0.0,-8.8274,-8.8693,-8.9352,-8.9352,-8.9651,-9.001,-9.001,-9.0908,-9.2165,-9.3002,-9.1795,-8.9964,-8.8479,-8.681,-8.5522,-8.5759,-8.7347,-8.919,-9.1017,-9.2411,-9.3462,-9.3526,-9.288,-9.2329,-9.1843,-8.9866,-8.8459,-8.9038,-8.8055,-8.7479,-8.8032,-8.7981,-8.7178,-8.542,-8.532,-8.4968,-8.3914,-8.4567,-8.5671,-8.6927,-8.6877,-8.6676,-8.6525,-8.6174,-8.6023,-8.6023,-8.6023,-8.6023,-8.6023,-8.6023,-8.542,-8.4315,-8.2257,-8.0901,-8.0147,-7.849,-7.7586,-7.7335,-7.6431,-7.603,-7.603,-7.603,-7.603,-7.603,-7.603,-7.603,-7.603,-7.603,-7.5728,-7.5226,0.0,0.0,0.0,0.0,0.0,0.0,0.0,0.0,0.0,0.0,0.0,0.0,0.0,0.0,0.0,0.0,0.0,0.0,-8.9771,-9.1388,-9.2119,-9.1439,-9.4311,-9.4277,-9.0629,-9.3637,-9.2936,-8.8056,-8.8698,-8.8391,-8.7114,-8.5774,-8.5156,-8.5078,-8.5078,-8.536,-8.5881,-8.5222,-8.7496,-9.1327,-8.8753,-8.9232,-9.1147,-8.8035,-8.7257,-8.7616,-8.6419,-8.7197,-8.8993,-9.019,-9.0608,-9.0608,-9.0608,-9.1506,-9.2583,-9.2583,-9.2643,-9.2039,-8.9119,-8.8853,-8.9241,-8.8736,-8.941,-9.0855,-9.2579,-9.3312,-9.3489,-9.2723,-9.1958,-9.1028,-8.9671,-8.7327,-8.5824,-8.625,-8.5698,-8.5722,-8.7429,-8.7178,-8.6877,-8.6776,-8.542,-8.4416,-8.4366,-8.3864,-8.4265,-8.5922,-8.6425,-8.6525,-8.6023,-8.6023,-8.6023,-8.6023,-8.6023,-8.6023,-8.6023,-8.5922,-8.542,-8.4315,-8.2608,-8.1252,-8.0198,-7.849,-7.7436,-7.6883,-7.6331,-7.603,-7.603,-7.603,-7.603,-7.603,-7.603,-7.603,-7.603,-7.603,-7.5678,-7.5126,0.0,0.0,0.0,0.0,0.0,0.0,0.0,0.0,0.0,0.0,0.0,0.0,0.0,0.0,0.0,0.0,0.0,0.0,-9.0429,-9.0382,-9.0345,-9.0164,-9.1823,-9.2294,-9.1374,-9.3577,-9.4154,-9.2878,-9.3014,-9.2887,-9.2563,-9.2248,-9.1494,-9.0528,-9.0036,-8.9669,-8.9292,-8.8155,-8.8634,-9.007,-8.8873,-8.8813,-8.9412,-8.9052,-8.8993,-8.9172,-8.9352,-8.9711,-9.013,-8.995,-9.0249,-9.0549,-9.007,-9.0788,-9.1985,-9.2464,-9.2943,-9.3336,-9.2971,-9.3391,-9.4014,-9.4336,-9.5775,-9.7152,-9.7621,-9.8209,-9.8385,-9.7176,-9.565,-9.3698,-9.094,-8.8576,-8.6871,-8.6504,-8.6056,-8.6374,-8.8032,-8.8484,-8.8182,-8.6927,-8.6425,-8.5822,-8.4968,-8.4818,-8.5069,-8.5922,-8.5722,-8.5671,-8.5973,-8.6023,-8.6023,-8.6023,-8.6023,-8.6023,-8.6023,-8.5169,-8.4567,-8.4315,-8.2206,-8.1102,-8.075,-7.8641,-7.7637,-7.7436,-7.6482,-7.603,-7.603,-7.603,-7.603,-7.603,-7.603,-7.603,-7.603,-7.5578,-7.5126,-7.4573,0.0,0.0,0.0,0.0,0.0,0.0,0.0,0.0,0.0,0.0,0.0,0.0,0.0,0.0,0.0,0.0,0.0,0.0,0.0,-9.0309,-9.007,-9.007,-9.2428,-9.3409,-9.2552,-9.6141,-9.6977,-9.4605,-9.5411,-9.5089,-9.3732,-9.3722,-9.2887,-9.1312,-9.094,-9.0278,-8.9292,-8.8274,-8.9052,0.0,0.0,-8.9172,-8.995,-8.9771,-8.9292,-8.8933,-8.989,-9.019,-9.013,-8.9771,-8.9711,-8.989,-9.0728,-9.1686,-9.2643,-9.3601,-9.4379,-9.4977,-9.5396,-9.6174,-9.7072,-9.803,-9.9107,-9.9885,-9.9586,-9.9586,-9.9107,-9.7192,-9.5695,-9.4032,-9.1659,-8.9348,-8.7933,-8.8332,-8.8485,-8.8865,-8.9775,-9.0691,-9.0493,-8.8562,-8.778,-8.7178,-8.6324,-8.5973,-8.6023,-8.6324,-8.5822,-8.5671,-8.5973,-8.6023,-8.6023,-8.6023,-8.6023,-8.6023,-8.6023,-8.5119,-8.4567,-8.4315,-8.2307,-8.1102,-8.0599,-7.8842,-7.7787,-7.7285,-7.6682,-7.6281,-7.603,-7.603,-7.603,-7.603,-7.603,-7.603,-7.5979,-7.5427,-7.4875,-7.4322,0.0,0.0,0.0,0.0,0.0,0.0,0.0,0.0,0.0,0.0,0.0,0.0,0.0,0.0,0.0,0.0,0.0,0.0,0.0,0.0,-9.0608,-9.0608,-9.4214,-9.5375,-9.3669,-9.9146,-9.9823,-9.5243,-9.7254,-9.6674,-9.3901,-9.3897,-9.2709,-9.0583,-9.0583,-8.9729,-8.8035,-8.7437,-8.9112,-9.2045,-8.983,-8.989,-9.1147,0.0,-8.9052,-8.8155,-8.9352,-8.9711,-8.9531,-8.9651,-8.9412,-8.9471,-9.1865,-9.3182,-9.4139,-9.5456,-9.6294,-9.6833,-9.6952,-9.785,-9.9047,-10.0184,-10.0423,-10.0184,-9.9406,-9.8688,-9.7431,-9.4858,-9.378,-9.2857,-9.1265,-8.9348,-8.8411,-8.975,-9.052,-9.1107,-9.1408,-9.2444,-9.2434,-9.0441,-8.9237,-8.8383,-8.778,-8.7178,-8.6877,-8.6776,-8.6374,-8.6073,-8.6023,-8.6023,-8.6023,-8.6023,-8.6023,-8.6023,-8.6023,-8.542,-8.4868,-8.4315,-8.2608,-8.1302,-8.0298,-7.9093,-7.7988,-7.7084,-7.6933,-7.6632,-7.618,-7.608,-7.603,-7.603,-7.603,-7.603,-7.5979,-7.5377,-7.4824,-7.4322,0.0,0.0,0.0,0.0,0.0,0.0,0.0,0.0,0.0,0.0,-9.6274,-9.4676,0.0,0.0,0.0,0.0,0.0,0.0,0.0,0.0,0.0,-9.0608,-9.2863,-9.3981,-9.3591,-9.7807,-9.9559,-9.8645,-10.0719,-10.1314,-10.0853,-10.0783,-9.8837,-9.5425,-9.5425,-9.3436,-9.013,-9.001,-9.001,-9.019,-9.0249,-8.983,-8.9292,-9.013,0.0,0.0,-9.019,-8.9771,-8.8933,-8.9471,-9.0309,-9.1267,-9.2284,-9.384,-9.5516,-9.6773,-9.767,-9.8329,-9.8867,-9.9526,-10.0184,-10.0423,-10.0064,-9.9346,-9.8149,-9.6952,-9.5516,-9.3361,-9.2404,-9.1096,-8.8275,-8.7871,-8.7385,-8.6017,-8.6635,-8.7827,-8.9476,-8.9894,-9.022,-9.0643,-8.9789,-8.8935,-8.8383,-8.778,-8.7278,-8.6776,-8.6676,-8.6425,-8.6023,-8.6023,-8.6023,-8.6023,-8.6023,-8.6023,-8.6023,-8.542,-8.4868,-8.4315,-8.2608,-8.1503,-8.085,-7.9243,-7.844,-7.8189,-7.7285,-7.6833,-7.6682,-7.623,-7.603,-7.603,-7.603,-7.603,-7.5929,-7.4925,-7.4523,-7.4222,0.0,0.0,0.0,0.0,0.0,0.0,0.0,-10.2502,-10.1452,-9.8514,-9.7229,-9.5072,-9.1022,-9.0608,0.0,0.0,0.0,0.0,0.0,0.0,0.0,-9.0608,-9.2544,-9.3591,-9.3591,-9.7519,-9.9138,-9.847,0.0,-10.112,-10.152,-10.112,-9.9355,-9.657,-9.6186,-9.3994,-9.0608,-9.0249,-9.013,-9.019,-9.0489,-9.007,-8.9292,-9.0249,0.0,0.0,-9.0549,-9.001,-8.9292,-8.995,-9.0848,-9.1865,-9.3242,-9.4558,-9.6055,-9.8389,-9.9286,-9.9705,-10.0364,-10.1022,-10.1501,-10.1501,-10.0483,-9.9047,-9.7371,-9.5755,-9.396,-9.1985,-9.1327,-9.0634,-8.9124,-8.934,-8.9672,-8.9404,-8.9347,-9.0257,-9.292,-9.2872,-9.2403,-9.2279,-9.1999,-9.1016,-8.8649,-8.8232,-8.768,-8.6877,-8.8132,-8.8761,-8.8142,-8.9503,-8.9611,-8.8142,-8.8142,-8.7425,-8.6023,-8.542,-8.4868,-8.4315,-8.3894,-8.35,-8.2933,-8.1592,-8.0819,-8.0358,-7.824,-7.7134,-7.6833,-7.6281,-7.603,-7.603,-7.603,-7.603,-7.5929,-7.4824,-7.4423,-7.4222,0.0,0.0,0.0,0.0,0.0,0.0,0.0,-10.2502,-10.1783,-9.97,-9.7807,-9.5161,-9.1375,-9.0797,-9.0608,0.0,0.0,0.0,0.0,0.0,0.0,0.0,0.0,0.0,-9.2943,0.0,0.0,-9.7264,-9.8354,0.0,0.0,0.0,0.0,0.0,-9.6067,-9.4175,-9.1208,-9.0317,-9.019,0.0,0.0,-9.0309,-8.995,0.0,0.0,0.0,0.0,-9.019,-8.9771,-9.0429,-9.0968,-9.1746,-9.378,-9.5037,-9.6354,-9.9226,-10.0304,-10.0663,-10.1501,-10.2159,-10.2698,-10.2698,-10.1082,-9.8987,-9.7012,-9.4917,-9.2823,-9.1027,-9.0608,-9.0608,-9.0608,-9.1087,-9.1697,-9.2615,-9.2067,-9.2643,-9.5696,-9.5063,-9.4259,-9.4311,-9.3778,-9.2486,-9.0485,-8.9601,-8.8803,-8.7787,-9.0128,-9.1377,-9.1057,-9.3052,-9.3156,-9.1004,-9.1004,-8.9666,-8.6924,-8.6356,-8.5798,-8.5088,-8.5733,-8.5866,-8.5623,-8.4709,-8.3615,-8.2345,-7.9695,-7.7938,-7.6984,-7.6331,-7.603,-7.603,-7.603,-7.603,-7.5929,-7.4824,-7.4423,-7.4222,0.0,0.0,0.0,0.0,0.0,0.0,0.0,-10.2502,-10.1783,-9.97,-9.7807,-9.5498,-9.2723,-9.1335,-9.0608,0.0,0.0,0.0,0.0,0.0,0.0,0.0,0.0,0.0,0.0,0.0,0.0,-9.6698,-9.6855,0.0,0.0,0.0,0.0,0.0,0.0,-9.5312,-9.3198,-9.1312,0.0,0.0,0.0,0.0,0.0,0.0,0.0,0.0,0.0,-9.019,-8.9771,-9.0429,-9.0668,-9.1087,-9.3062,-9.4977,-9.6773,-9.8269,-9.9526,-10.0782,-10.2099,-10.2877,-10.3296,-10.3296,-10.1381,-9.8987,-9.7012,-9.4558,-9.2284,-9.0908,-9.0608,-9.0608,-9.0608,-9.0668,-9.0511,-8.9925,-8.9791,-9.0591,-9.2944,-9.1527,-9.1964,-9.6703,-9.2789,-9.1505,-9.5728,-9.3299,-9.1242,-9.0559,-9.2649,-9.3832,-9.3777,-9.4086,-9.4086,-9.3777,-9.3777,-9.2426,-8.9774,-8.9614,-8.9036,-8.7933,-8.7459,-8.7682,-8.8387,-8.7823,-8.5964,-8.3076,-8.172,-7.983,-7.7536,-7.6482,-7.603,-7.603,-7.603,-7.603,-7.5929,-7.4824,-7.4423,-7.4171,0.0,0.0,0.0,0.0,0.0,0.0,-10.2434,-10.2096,-10.1703,-10.1452,-9.9563,-9.7462,-9.5221,-9.3095,-9.1354,0.0,0.0,0.0,0.0,0.0,0.0,0.0,0.0,0.0,0.0,0.0,-9.3981,-9.4767,-9.4767,0.0,0.0,0.0,0.0,0.0,0.0,-9.3297,-9.1719,-9.0519,0.0,0.0,0.0,0.0,0.0,0.0,0.0,0.0,0.0,0.0,-9.0309,-9.0549,-9.0369,-9.0249,-9.1446,-9.2344,-9.3661,-9.6952,-9.8568,-9.9705,-10.1381,-10.2638,-10.3535,-10.3895,-10.1441,-9.8628,-9.7431,-9.4499,-9.1746,-9.0848,-9.0608,-9.0608,-9.0608,-9.0608,-9.0514,-9.0211,-8.8625,-8.8907,-9.2792,-9.137,-9.1581,-9.6221,-9.5217,-9.4458,-9.5686,-9.4576,-9.4194,-9.5248,-9.6189,-9.7376,-9.9066,-9.9163,-9.8421,-9.6779,-9.6679,-9.5312,-9.253,-9.253,-9.1988,-9.0794,-9.1813,-9.1817,-9.1125,-9.0502,-8.9412,-8.7519,-8.3646,-8.1171,-7.9778,-7.753,-7.6331,-7.603,-7.603,-7.603,-7.5929,-7.4824,-7.4423,-7.4222,0.0,0.0,0.0,0.0,0.0,-10.1555,-10.2096,-10.169,-10.1555,-10.2096,-10.0652,-9.8665,-9.6534,-9.4152,-9.1757,-8.9597,0.0,0.0,0.0,0.0,0.0,0.0,0.0,0.0,0.0,0.0,-9.3022,-9.3591,-9.3022,-9.3747,0.0,0.0,-9.4214,-9.3591,0.0,0.0,0.0,0.0,0.0,0.0,0.0,0.0,0.0,0.0,0.0,0.0,0.0,0.0,0.0,0.0,0.0,-8.9771,-9.0429,-9.0608,-9.1327,-9.4977,-9.7072,-9.8628,-10.0364,-10.2099,-10.3535,-10.4014,-10.1321,-9.8269,-9.7431,-9.4319,-9.1446,-9.0788,-9.0608,-9.0608,-9.0608,-9.0608,-9.0608,-9.0608,-8.888,-8.8987,-9.3071,-9.1543,-9.1742,-9.6064,-9.5576,-9.536,-9.6805,-9.6549,-9.691,-9.8512,-9.8438,-9.9163,-10.117,-10.2022,-10.155,-9.9552,-9.9552,-9.8109,-9.519,-9.519,-9.4574,-9.3343,-9.4711,-9.4804,-9.3748,-9.3374,-9.2312,-9.0538,-8.6123,-8.3588,-8.2394,-7.9877,-7.8582,-7.822,-7.822,-7.822,-7.802,-7.6171,-7.5475,-7.5227,0.0,0.0,0.0,0.0,0.0,0.0,-10.1352,-10.1352,-10.1352,-10.1352,-10.0319,-9.8535,-9.5901,-9.3838,-9.1573,-8.8996,0.0,0.0,0.0,0.0,0.0,0.0,0.0,0.0,0.0,0.0,-9.1617,-9.3591,-9.1617,-9.1698,-9.3669,-9.5677,-9.5526,-9.3669,0.0,0.0,0.0,0.0,0.0,0.0,0.0,0.0,-9.0608,0.0,0.0,0.0,0.0,0.0,0.0,0.0,0.0,0.0,0.0,-9.0608,-9.0908,-9.2284,-9.4977,-9.779,-9.9167,-10.1441,-10.3416,-10.3416,-10.0962,-9.8209,-9.6892,-9.402,-9.1446,-9.0788,-9.0608,-9.0608,-9.0608,-9.0608,-9.0608,-9.0608,-9.0526,-9.1243,-9.3302,-9.1686,-9.2106,-9.6895,-9.2507,-9.2415,-10.0584,-10.0076,-9.9244,-9.9244,-9.8668,-9.8323,-9.8323,-10.1015,-10.2518,-10.2518,-10.2518,-10.0815,-9.7459,-9.7361,-9.6671,-9.5405,-9.5405,-9.5798,-9.6593,-9.6533,-9.4517,-9.0719,-8.9452,-8.7532,-8.5074,-8.3767,-8.3215,-8.3215,-8.3215,-8.3215,-8.2777,-7.9254,-7.7957,-7.7427,0.0,0.0,0.0,0.0,0.0,0.0,0.0,-10.169,-10.1555,-10.2096,-10.1845,-9.998,-9.6046,-9.4587,-9.2369,-8.8357,0.0,0.0,0.0,0.0,0.0,0.0,0.0,0.0,0.0,-9.0608,-9.0939,-9.1535,-9.0939,-9.0939,-9.1617,-9.2204,-9.2204,-9.1617,-9.2204,-9.2124,0.0,0.0,0.0,0.0,0.0,-9.0608,-9.0608,0.0,0.0,0.0,0.0,0.0,0.0,0.0,0.0,0.0,0.0,0.0,0.0,-9.1027,-9.2943,-9.5097,-9.6473,-9.8089,-9.9466,-9.9945,-9.797,-9.5755,-9.5336,-9.3002,-9.0908,-9.0668,-9.0608,-9.0608,-9.0608,-9.0608,-9.0608,-9.0608,-9.0608,-9.0848,-9.1506,-9.214,-9.3687,-9.6505,-9.8053,-10.0125,-10.3261,-10.2595,-10.2057,-10.2057,-10.1465,-10.117,-10.117,-10.1988,-10.2518,-10.2518,-10.2518,-10.1784,-10.0259,-10.0259,-9.9514,-9.8213,-9.774,-9.7158,-9.6533,-9.6114,-9.4958,-9.3277,-9.1151,-8.9553,-8.8224,-8.5646,-8.4355,-8.3913,-8.3472,-8.3306,-8.3105,-8.1609,-8.1063,-8.0864,0.0,0.0,0.0,0.0,0.0,0.0,0.0,-10.169,-10.1555,-10.2028,-10.2096,-10.0851,-9.7438,-9.5797,-9.3342,-8.9486,0.0,0.0,0.0,0.0,0.0,0.0,0.0,0.0,-9.0608,-9.0608,-9.0728,-9.1027,-9.1027,-9.1147,-9.1386,-9.1855,-9.1652,-9.0968,-9.1493,-9.129,0.0,0.0,0.0,0.0,-9.0549,-9.0489,-9.0309,0.0,0.0,0.0,0.0,0.0,0.0,0.0,0.0,0.0,0.0,0.0,0.0,0.0,-9.0968,-9.2165,-9.4259,-9.5995,-9.7252,-9.767,-9.5995,-9.4199,-9.4199,-9.2344,-9.0608,-9.0608,-9.0608,-9.0608,-9.0608,-9.0608,-9.0608,-9.0608,-8.9798,-8.9546,-9.0442,-9.152,-9.3363,-9.6565,-10.0603,-10.3236,-10.3595,-10.3715,-10.3775,-10.3775,-10.2997,-10.2518,-10.2518,-10.2518,-10.2518,-10.2518,-10.2518,-10.2159,-10.1501,-10.1201,-10.0603,-9.9466,-9.8568,-9.773,-9.6892,-9.5995,-9.5396,-9.4831,-9.2747,-9.1483,0.0,-8.8494,-8.7241,-8.6614,-8.6215,-8.6044,-8.5899,-8.4483,-8.3904,-8.3703,0.0,0.0,0.0,0.0,0.0,0.0,0.0,0.0,-10.1487,-10.1487,-10.1419,-10.0909,-9.9502,-9.6958,-9.4292,0.0,0.0,0.0,0.0,0.0,0.0,0.0,0.0,0.0,-9.0608,-9.0608,-9.0968,-9.1566,-9.1626,-9.1925,-9.2608,-9.3872,-9.3404,-9.165,-9.2912,-9.2365,0.0,0.0,0.0,-8.9771,-9.0369,-9.0249,0.0,0.0,0.0,0.0,0.0,0.0,0.0,0.0,0.0,0.0,0.0,0.0,0.0,0.0,0.0,0.0,0.0,-9.4618,-9.6055,-9.6055,-9.4738,-9.3361,-9.3361,-9.1925,0.0,-9.0608,-9.0608,-9.0608,-9.0608,-9.0608,-9.0608,-9.0608,-8.8726,-8.7984,-9.0216,-9.0486,-9.2239,-9.7282,-10.0782,-10.2698,-10.2638,-10.3715,-10.4373,-10.4313,-10.3176,-10.2518,-10.2518,-10.2518,-10.2518,-10.2518,-10.2458,-10.2099,-10.1381,-10.0782,-10.0124,-9.9406,-9.8089,-9.7491,-9.7431,-9.6174,-9.5576,-9.5516,-9.4199,-9.3302,-9.2703,-9.1985,-9.1327,-9.0788,-9.0668,-9.0608,-9.03,-8.7513,-8.6455,-8.614,0.0,0.0,0.0,0.0,0.0,0.0,0.0,0.0,0.0,0.0,-10.1758,-10.0506,-9.8183,-9.5539,-9.3096,0.0,0.0,0.0,0.0,0.0,0.0,0.0,0.0,0.0,-9.0608,-9.0608,-9.0728,-9.0848,-9.1386,-9.1686,-9.1865,-9.2669,-9.2548,-9.1626,-9.1886,-9.1525,0.0,0.0,-9.0549,-9.0429,-9.0549,-9.0549,0.0,0.0,0.0,0.0,-8.989,-8.9591,0.0,0.0,0.0,0.0,0.0,0.0,0.0,0.0,-8.9232,-8.8873,-8.9651,0.0,-9.1267,-9.1267,-9.1327,-9.1327,0.0,-9.0968,-9.0608,-9.0608,-9.0608,-9.0608,-9.0608,-9.0608,-9.0608,-9.0608,-9.0109,-8.9847,-8.9868,-9.2873,-9.6685,-10.1467,-10.3595,-10.4493,-10.4014,-10.4194,-10.4194,-10.3715,-10.2937,-10.2518,-10.2518,-10.2518,-10.2518,-10.2518,-10.1979,-10.1381,-10.0723,-10.0603,-9.9885,-9.8748,-9.791,-9.7491,-9.7431,-9.6174,-9.5576,-9.5516,-9.4738,-9.4259,-9.402,-9.2883,-9.2284,-9.2045,-9.1027,-9.0608,-9.0526,-8.9847,-8.9561,-8.9477,0.0,0.0,0.0,0.0,0.0,0.0,0.0,0.0,0.0,0.0,0.0,0.0,0.0,0.0,0.0,0.0,0.0,0.0,0.0,0.0,0.0,0.0,0.0,-9.0608,-9.0608,-9.0608,-9.0908,-9.1566,-9.1865,-9.2404,-9.3002,-9.3361,-9.3182,-9.2464,-9.1865,-9.1267,-9.0608,-9.0608,-9.0489,-9.019,-9.0549,0.0,0.0,0.0,0.0,0.0,-9.013,-8.989,0.0,-9.007,-9.013,-9.007,0.0,0.0,0.0,0.0,-8.8274,-8.7856,-8.8155,-8.8693,-8.9292,-8.9591,-8.995,-9.0249,-9.0549,-9.0608,-9.0608,-9.0608,-9.0608,-9.0608,-9.0608,-9.0369,-9.0309,-9.0608,-8.9393,-8.8837,-9.0099,-9.389,-9.803,-10.2099,-10.3715,-10.4493,-10.4433,-10.4134,-10.3835,-10.3416,-10.2817,-10.2518,-10.2518,-10.2518,-10.2398,-10.2039,-10.168,-10.1261,-10.0962,-10.0304,-9.9705,-9.8927,-9.767,-9.7371,-9.791,-9.6294,-9.5755,-9.5995,-9.5336,-9.4738,-9.408,-9.3002,-9.2404,-9.2045,-9.1027,-9.0608,-9.0608,-9.0608,-9.0608,-9.0608,0.0,0.0,0.0,0.0,0.0,0.0,0.0,0.0,0.0,0.0,0.0,0.0,0.0,0.0,0.0,0.0,0.0,0.0,0.0,0.0,0.0,0.0,-9.0608,-9.0608,-9.0608,-9.0608,-9.1267,-9.2464,-9.2524,-9.3242,-9.4439,-9.4558,-9.4199,-9.3361,-9.2165,-9.1267,-9.0608,-9.0608,-9.0309,-8.989,-9.0429,0.0,0.0,0.0,0.0,0.0,0.0,0.0,0.0,-8.995,-9.013,-9.0309,-8.9172,0.0,0.0,0.0,0.0,0.0,-8.7556,-8.8215,-8.8873,-8.9531,-8.9651,-8.983,-9.0489,-9.0608,-9.0608,-9.0608,-9.0608,-9.0608,-9.0489,-9.013,-8.995,-9.0429,-8.8484,-8.8075,-9.1616,-9.4902,-9.803,-10.1261,-10.2757,-10.3715,-10.4074,-10.3715,-10.3416,-10.3296,-10.2817,-10.2518,-10.2518,-10.2518,-10.2219,-10.168,-10.1534,-10.1261,-10.1261,-10.0004,-9.9286,-9.9167,-9.7431,-9.7192,-9.8329,-9.6533,-9.6055,-9.6533,-9.5875,-9.4917,-9.3661,-9.2943,-9.2284,-9.1686,-9.0908,-9.0608,-9.0608,-9.0608,-9.0608,-9.0608,0.0,0.0,0.0,0.0,0.0,0.0,0.0,0.0,0.0,0.0,0.0,0.0,0.0,0.0,0.0,0.0,0.0,0.0,0.0,0.0,0.0,-9.0608,-9.0608,-9.0608,-9.0608,-9.0608,-9.1027,-9.1746,-9.2344,-9.3002,-9.378,-9.4319,-9.396,-9.2703,-9.1985,-9.1267,-9.0608,-9.0608,-9.0608,-9.0489,-9.0608,0.0,0.0,0.0,0.0,0.0,0.0,0.0,0.0,-9.0309,-9.019,-8.9771,-8.9591,0.0,0.0,0.0,0.0,0.0,-8.7676,-8.8215,-8.8873,-8.9531,-8.9651,-8.983,-9.0489,-9.0608,-9.0608,-9.0608,-9.0608,-9.0489,-8.989,-9.019,-9.0309,-8.989,-9.0359,-9.2311,-9.6715,-9.7819,-9.9226,-10.1979,-10.3476,-10.3895,-10.2877,-10.3176,-10.3236,-10.2698,-10.2578,-10.2518,-10.2518,-10.2518,-10.2458,-10.2339,-10.1201,-10.0663,-10.0663,-9.9346,-9.8389,-9.779,-9.6952,-9.6952,-9.7611,-9.6773,-9.6473,-9.6533,-9.5875,-9.5157,-9.4379,-9.3122,-9.2524,-9.2344,-9.1087,-9.0608,-9.0608,-9.0608,-9.0608,-9.0608,0.0,0.0,0.0,0.0,0.0,0.0,0.0,0.0,0.0,0.0,0.0,0.0,0.0,0.0,0.0,0.0,0.0,0.0,0.0,0.0,-9.0608,-9.0608,-9.0608,-9.0608,-9.0608,-9.0968,-9.1506,-9.2165,-9.3182,-9.402,-9.4678,-9.4977,-9.4618,-9.3661,-9.3002,-9.2105,-9.1147,-9.1147,-9.0968,-9.0608,0.0,0.0,0.0,0.0,0.0,0.0,0.0,0.0,0.0,0.0,-9.013,-9.007,-8.9352,0.0,0.0,0.0,0.0,0.0,-8.8574,-8.8753,-8.8753,-8.9052,-8.8873,-8.8574,-8.8514,-8.8514,-8.8693,-8.9412,-8.9591,-8.9591,-8.9651,-9.019,-9.0908,-9.1686,-9.3182,-9.5157,-9.7611,-9.8269,-9.9226,-10.1201,-10.2279,-10.2698,-10.2518,-10.2757,-10.2817,-10.2518,-10.2518,-10.2518,-10.2518,-10.2518,-10.2159,-10.1381,-10.0782,-10.0184,-9.9406,-9.8448,-9.779,-9.7491,-9.6533,-9.6533,-9.7491,-9.6833,-9.6773,-9.7072,-9.6773,-9.6055,-9.5037,-9.3661,-9.2943,-9.2464,-9.1147,-9.0608,-9.0608,-9.0608,-9.0608,-9.0608,0.0,0.0,0.0,0.0,0.0,0.0,0.0,0.0,0.0,0.0,0.0,0.0,0.0,0.0,0.0,0.0,0.0,0.0,0.0,-8.9651,-9.0429,-9.0429,-9.0429,-9.0549,-9.0848,-9.1386,-9.2105,-9.3062,-9.408,-9.4917,-9.5576,-9.5456,-9.5037,-9.4319,-9.384,-9.2823,-9.1626,-9.1626,-9.1267,-9.0608,0.0,0.0,0.0,0.0,0.0,0.0,0.0,0.0,0.0,0.0,0.0,0.0,0.0,0.0,0.0,-8.8933,-8.8574,-8.8394,-8.9412,-8.9412,-8.9052,-8.8574,-8.8334,-8.7975,-8.7317,-8.7377,-8.7915,-8.8933,-8.9112,-8.9232,-8.9591,-9.0429,-9.1746,-9.3721,-9.5695,-9.7371,-9.8269,-9.8867,-9.9645,-10.0782,-10.1381,-10.192,-10.2458,-10.2518,-10.2518,-10.2518,-10.2518,-10.2518,-10.2518,-10.2518,-10.1979,-10.0962,-10.0663,-10.0004,-9.8987,-9.797,-9.7491,-9.7491,-9.6354,-9.6414,-9.7491,-9.6833,-9.6892,-9.7491,-9.7192,-9.6473,-9.5456,-9.396,-9.3122,-9.2703,-9.1386,-9.0848,-9.0848,-9.0668,-9.0608,-9.0608,0.0,0.0,0.0,0.0,0.0,0.0,0.0,0.0,0.0,0.0,0.0,0.0,0.0,0.0,0.0,0.0,0.0,0.0,0.0,-8.8993,-8.9711,-8.9711,-8.9711,-9.0309,-9.1506,-9.1626,-9.2583,-9.4499,-9.4558,-9.4917,-9.5576,-9.4977,-9.4319,-9.3661,-9.3601,-9.2823,-9.1626,-9.1626,-9.1267,-9.0608,-9.0608,0.0,0.0,0.0,0.0,0.0,0.0,0.0,0.0,0.0,0.0,0.0,0.0,0.0,-8.9591,-8.9591,-8.9591,-8.9531,-8.9651,-9.007,-9.007,-8.8215,-8.8634,-8.9352,-8.8693,-8.9471,-9.0369,-9.0489,-9.0489,-9.0309,-8.9771,-9.1207,-9.3122,-9.5097,-9.7072,-9.9047,-10.0902,-10.1354,-10.1561,-10.2279,-10.2398,-10.2398,-10.2518,-10.2518,-10.2518,-10.2518,-10.2518,-10.2518,-10.2518,-10.2518,-10.2458,-10.2398,-10.1082,-10.0483,-10.0364,-9.8448,-9.7491,-9.7491,-9.6833,-9.6833,-9.7491,-9.6833,-9.6892,-9.7431,-9.6234,-9.5695,-9.5456,-9.3481,-9.3002,-9.3361,-9.2045,-9.1566,-9.1446,-9.0848,-9.0608,-9.0608,0.0,0.0,0.0,0.0,0.0,0.0,0.0,0.0,0.0,0.0,0.0,0.0,0.0,0.0,0.0,0.0,0.0,0.0,0.0,-8.8574,-8.9052,-8.9052,-8.9471,-9.0309,-9.1566,-9.2045,-9.3002,-9.4618,-9.5815,-9.6354,-9.6174,-9.5935,-9.5277,-9.4199,-9.4199,-9.3481,-9.2224,-9.2224,-9.1626,-9.0608,-9.0608,-9.0608,0.0,0.0,0.0,0.0,0.0,0.0,0.0,0.0,-9.0608,-9.0608,-9.0369,-9.001,-8.9771,-9.013,-8.995,-8.9771,-9.019,-8.983,-8.9232,-8.8514,-8.8693,-8.8753,-8.7676,-8.8155,-8.9052,-8.989,-9.0369,-9.0788,-9.1386,-9.2464,-9.402,-9.6414,-9.8448,-10.0304,-10.186,-10.2099,-10.2219,-10.2458,-10.2518,-10.2518,-10.2518,-10.2518,-10.2518,-10.2518,-10.2518,-10.2518,-10.2518,-10.2518,-10.2279,-10.186,-10.0962,-10.0304,-9.9885,-9.8269,-9.7491,-9.7491,-9.6892,-9.6713,-9.6952,-9.7072,-9.7252,-9.7491,-9.7012,-9.6533,-9.6055,-9.402,-9.3361,-9.3421,-9.2105,-9.1626,-9.1566,-9.0908,-9.0608,-9.0608,0.0,0.0,0.0,0.0,0.0,0.0,0.0,0.0,0.0,0.0,0.0,0.0,0.0,0.0,0.0,0.0,0.0,0.0,-8.7676,-8.8155,-8.8394,-8.8394,-8.8813,-8.9771,-9.1267,-9.1925,-9.3182,-9.4917,-9.6234,-9.6653,-9.6234,-9.6055,-9.5456,-9.4618,-9.4379,-9.3661,-9.2583,-9.2583,-9.1865,-9.0668,-9.0848,-9.0848,0.0,0.0,0.0,0.0,0.0,0.0,0.0,0.0,-9.0608,-9.0608,-9.0608,-9.0309,-9.007,-9.0489,-8.989,-8.9172,-8.983,-8.9232,-8.8334,-8.8095,-8.8394,-8.8394,-8.7257,-8.8035,-8.9292,-9.0608,-9.1267,-9.1865,-9.2763,-9.3481,-9.4618,-9.6833,-9.9047,-10.0962,-10.2279,-10.2518,-10.2518,-10.2518,-10.2518,-10.2518,-10.2518,-10.2518,-10.2518,-10.2518,-10.2518,-10.2518,-10.2518,-10.2518,-10.2279,-10.18,-10.0962,-10.0304,-9.9825,-9.8269,-9.7491,-9.7491,-9.6892,-9.6593,-9.6593,-9.6773,-9.7012,-9.7192,-9.6773,-9.6354,-9.5815,-9.402,-9.3122,-9.2883,-9.2224,-9.1805,-9.1566,-9.1087,-9.0788,-9.0608,0.0,0.0,0.0,0.0,0.0,0.0,0.0,0.0,0.0,0.0,-9.5211,0.0,0.0,0.0,0.0,0.0,0.0,0.0,-8.7676,-8.7676,-8.7676,-8.7676,-8.7676,-8.8634,-9.0608,-9.1267,-9.2943,-9.5576,-9.5576,-9.5576,-9.5576,-9.4917,-9.4618,-9.4558,-9.39,-9.3242,-9.2583,-9.2583,-9.1865,-9.0728,-9.1386,-9.1207,-9.0668,0.0,0.0,0.0,0.0,0.0,0.0,0.0,-9.0608,-9.0608,-9.0608,-9.0608,-9.0608,-9.0608,-8.9232,-8.7856,-8.8514,-8.8215,-8.7556,-8.6838,-8.7676,-8.8514,-8.7856,-8.9711,-9.1985,-9.3302,-9.3601,-9.3601,-9.3601,-9.4139,-9.5037,-9.6354,-9.8808,-10.0962,-10.2279,-10.2518,-10.2518,-10.2518,-10.2518,-10.2518,-10.2518,-10.2518,-10.2518,-10.2518,-10.2518,-10.2518,-10.2518,-10.2518,-10.2518,-10.2518,-10.1201,-10.0483,-10.0483,-9.8508,-9.7491,-9.7491,-9.6833,-9.6533,-9.6533,-9.5875,-9.5935,-9.6473,-9.5157,-9.4618,-9.4499,-9.3182,-9.2224,-9.1686,-9.2344,-9.2165,-9.1626,-9.1626,-9.1207,-9.0608,0.0,0.0,0.0,0.0,0.0,0.0,0.0,0.0,0.0,-9.3756,-9.3508,0.0,0.0,0.0,0.0,0.0,0.0,0.0,-8.7676,-8.7257,-8.6958,-8.6958,-8.7915,-8.8873,-8.995,-9.1506,-9.3361,-9.5576,-9.6473,-9.6473,-9.5576,-9.5396,-9.5037,-9.4618,-9.4379,-9.39,-9.3302,-9.3302,-9.2823,-9.1985,-9.1746,-9.1506,-9.1267,0.0,0.0,0.0,0.0,0.0,0.0,0.0,0.0,0.0,-9.0608,-9.0608,-9.0608,-9.0608,-9.0249,-8.983,-9.001,-8.8574,-8.7137,-8.7915,-8.7317,-8.6898,-8.8095,-8.9352,-9.1027,-9.3721,-9.5037,-9.5516,-9.5097,-9.5516,-9.6414,-9.773,-9.8987,-10.0423,-10.2219,-10.2518,-10.2518,-10.2518,-10.2518,-10.2518,-10.2518,-10.2518,-10.2518,-10.2518,-10.2518,-10.2518,-10.2518,-10.2518,-10.2279,-10.18,-10.0962,-10.0004,-9.9107,-9.7611,-9.6593,-9.6174,-9.5516,-9.5456,-9.5875,-9.6174,-9.6114,-9.5815,-9.4977,-9.4618,-9.4499,-9.3182,-9.2224,-9.1626,-9.1865,-9.1805,-9.1566,-9.1087,-9.0788,-9.0608,0.0,0.0,0.0,0.0,0.0,0.0,-9.3806,-9.2168,-9.1318,-9.2069,-9.1646,-9.1185,0.0,0.0,0.0,-8.9712,-8.8697,0.0,0.0,-8.7437,-8.7077,-8.7077,-8.7856,-8.8873,-9.001,-9.1746,-9.3182,-9.4379,-9.5157,-9.5277,-9.4798,-9.4798,-9.4738,-9.4618,-9.4858,-9.4499,-9.3601,-9.4139,-9.3661,-9.2583,-9.2464,-9.2224,-9.1925,0.0,0.0,0.0,0.0,0.0,0.0,0.0,0.0,0.0,-9.0608,-9.0608,-9.0549,-9.001,-8.9292,-8.8693,-8.8693,-8.7137,-8.5821,-8.7137,-8.6778,-8.6539,-8.8274,-9.019,-9.2284,-9.4558,-9.5815,-9.6473,-9.6055,-9.6114,-9.6593,-9.791,-9.8867,-10.0124,-10.186,-10.2099,-10.2159,-10.2458,-10.2279,-10.2219,-10.2458,-10.2518,-10.2518,-10.2518,-10.2518,-10.2398,-10.2099,-10.2099,-10.18,-10.1082,-10.0184,-9.9346,-9.8508,-9.6952,-9.5875,-9.5217,-9.4499,-9.4379,-9.4798,-9.5516,-9.5576,-9.5157,-9.4199,-9.3661,-9.3361,-9.2284,-9.1566,-9.1267,-9.1506,-9.1446,-9.1207,-9.1087,-9.0848,-9.0608,0.0,0.0,-9.8165,-9.657,0.0,-9.4502,-9.2661,-8.9857,-8.8515,-9.0205,-8.9755,-9.0259,0.0,0.0,0.0,-9.218,-9.0123,-8.8753,0.0,-8.8155,-8.7796,-8.7796,-8.7856,-8.8753,-9.0608,-9.1805,-9.2404,-9.2404,-9.2583,-9.3002,-9.3601,-9.3601,-9.396,-9.4738,-9.5277,-9.4858,-9.384,-9.5037,-9.4439,-9.2823,-9.3361,-9.3242,-9.2643,-9.1985,0.0,0.0,0.0,0.0,0.0,0.0,0.0,0.0,-9.0608,-9.0608,-9.0429,-8.9232,-8.7556,-8.606,-8.612,-8.5162,-8.4384,-8.5641,-8.6419,-8.7197,-8.8514,-9.1686,-9.4558,-9.5277,-9.6055,-9.6593,-9.6653,-9.6234,-9.6234,-9.7491,-9.8748,-10.0004,-10.1201,-10.1534,-10.168,-10.2279,-10.18,-10.168,-10.2398,-10.2398,-10.2398,-10.2518,-10.2398,-10.2099,-10.1501,-10.1381,-10.1082,-10.0304,-9.9167,-9.8448,-9.8269,-9.6473,-9.5277,-9.4618,-9.39,-9.3601,-9.3721,-9.4259,-9.4499,-9.4379,-9.3062,-9.2165,-9.1506,-9.0908,-9.0608,-9.0668,-9.1327,-9.1207,-9.0788,-9.1386,-9.1267,-9.0788,0.0,0.0,-9.2863,-9.4059,0.0,0.0,-9.1109,-9.0038,-8.9395,-8.9822,-8.8877,-8.8311,-8.8904,-8.8994,0.0,-8.954,-8.9558,-8.9471,-8.9471,-8.8873,-8.8454,-8.8454,-8.8993,-8.9711,-9.0608,-9.0908,-9.1087,-9.1087,-9.2583,-9.3421,-9.3601,-9.3601,-9.4199,-9.5336,-9.4977,-9.4977,-9.5157,-9.4917,-9.4558,-9.4139,-9.3721,-9.3481,-9.3302,-9.2643,-9.2045,0.0,0.0,0.0,0.0,0.0,0.0,0.0,-9.0608,-9.0608,-9.0608,-9.0309,-8.9531,-8.8933,-8.9412,-8.8215,-8.7018,-8.7856,-8.8155,-8.8454,-8.9292,-9.0908,-9.2583,-9.378,-9.5396,-9.6713,-9.7192,-9.7611,-9.8149,-9.8927,-9.9765,-10.0364,-10.0663,-10.1142,-10.1653,-10.168,-10.1082,-10.1201,-10.2398,-10.1979,-10.192,-10.2458,-10.1979,-10.1773,-10.1501,-10.0962,-10.0184,-9.8987,-9.8688,-9.779,-9.6234,-9.5815,-9.5277,-9.4618,-9.39,-9.384,-9.4379,-9.396,-9.3541,-9.3002,-9.2165,-9.1446,-9.0848,-9.0668,-9.0608,-9.0668,-9.0788,-9.1087,-9.1446,-9.1566,-9.1865,-9.2105,0.0,0.0,0.0,0.0,0.0,0.0,0.0,0.0,-8.9651,-8.9651,-8.8514,-8.7676,-8.7676,-8.8035,0.0,0.0,-8.9112,-8.9531,-8.9232,-8.9172,-8.9172,-8.9172,-8.9771,-9.0309,-9.0608,-9.0608,-9.0608,-9.0608,-9.1686,-9.2464,-9.3122,-9.3122,-9.384,-9.5157,-9.5396,-9.5396,-9.5157,-9.5456,-9.5217,-9.4558,-9.4199,-9.408,-9.402,-9.3302,-9.2643,-9.2045,-9.1746,0.0,0.0,0.0,0.0,0.0,0.0,0.0,-9.0489,-8.989,-8.9471,-8.9112,-8.8813,-8.7975,-8.7437,-8.8454,-8.9172,-8.9711,-9.007,-9.0668,-9.1446,-9.2464,-9.4259,-9.5755,-9.6055,-9.6892,-9.779,-9.8448,-9.8808,-9.9286,-9.9945,-10.0004,-10.0304,-10.0902,-10.0423,-10.0423,-10.1381,-10.1201,-10.1142,-10.1501,-10.1201,-10.0842,-10.0543,-9.9885,-9.9107,-9.8089,-9.7431,-9.6473,-9.5157,-9.5097,-9.4618,-9.3661,-9.3601,-9.3601,-9.3661,-9.3601,-9.3242,-9.2583,-9.1925,-9.1267,-9.0608,-9.0608,-9.0608,-9.0608,-9.0608,-9.1027,-9.1566,-9.1267,-9.1566,-9.2045,0.0,0.0,0.0,0.0,0.0,0.0,0.0,0.0,0.0,-8.983,-8.8813,-8.7975,-8.7915,-8.7856,-8.7856,0.0,0.0,0.0,-8.8873,-8.9471,-8.983,-8.983,-9.0369,-9.0608,-9.0608,-9.0608,-9.0608,-9.0608,-9.0728,-9.1446,-9.2583,-9.2583,-9.3361,-9.4798,-9.5815,-9.5695,-9.4858,-9.5815,-9.5576,-9.4618,-9.4618,-9.4618,-9.4558,-9.396,-9.3361,-9.2703,-9.2045,-9.1386,-9.0788,-9.0668,0.0,0.0,0.0,0.0,-9.0429,-8.9352,-8.8933,-8.8634,-8.7616,-8.7377,-8.7616,-8.8753,-8.983,-9.0608,-9.0608,-9.0608,-9.0788,-9.1327,-9.2883,-9.4139,-9.4379,-9.5396,-9.6414,-9.7072,-9.7371,-9.791,-9.8987,-9.8688,-9.8808,-10.0184,-9.9645,-9.9526,-10.0364,-10.0364,-10.0304,-10.0304,-10.0184,-9.9825,-9.9167,-9.8568,-9.785,-9.7192,-9.6055,-9.5157,-9.4618,-9.4499,-9.396,-9.2943,-9.3361,-9.3242,-9.2583,-9.3062,-9.2943,-9.2404,-9.1746,-9.1147,-9.0608,-9.0608,-9.0608,-9.0608,-9.0608,-9.1027,-9.1566,-9.1147,-9.1327,-9.1686,0.0,0.0,0.0,0.0,0.0,0.0,0.0,0.0,0.0,0.0,-8.989,-8.9172,-8.8634,-8.8574,-8.8334,-8.7736,-8.8933,-8.9651,-8.9531,0.0,0.0,-9.0489,-9.0608,-9.0608,-9.0608,-9.0608,-9.0608,-9.0608,-9.1207,-9.1865,-9.2583,-9.2583,-9.3601,-9.5456,-9.5037,-9.5097,-9.5456,-9.5037,-9.4798,-9.4618,-9.4618,-9.4618,-9.4618,-9.4499,-9.402,-9.3361,-9.2703,-9.2045,-9.1386,-9.0848,-9.0608,0.0,0.0,0.0,-9.0608,-9.0429,-8.995,-8.9591,-9.001,-9.013,-9.013,-9.0309,-9.0489,-9.0608,-9.0608,-9.0608,-9.0668,-9.0728,-9.1446,-9.2344,-9.3481,-9.4319,-9.5097,-9.5755,-9.6773,-9.7551,-9.773,-9.767,-9.8149,-9.9466,-9.8508,-9.8508,-10.0304,-9.9945,-9.9645,-9.9645,-9.9107,-9.8508,-9.779,-9.7192,-9.6533,-9.5875,-9.5157,-9.4678,-9.4618,-9.402,-9.396,-9.4319,-9.384,-9.3242,-9.2583,-9.2105,-9.1805,-9.1746,-9.1027,-9.0728,-9.0608,-9.0608,-9.0608,-9.0608,-9.0608,-9.1027,-9.1686,-9.2165,-9.2404,-9.2464,0.0,0.0,0.0,0.0,0.0,0.0,0.0,0.0,0.0,0.0,0.0,-8.9412,-8.8753,-8.8334,-8.7856,-8.7197,-8.8334,-8.9412,-9.019,-9.0489,0.0,-9.0608,-9.0608,-9.0608,-9.0608,-9.0608,-9.0608,-9.0608,-9.0908,-9.1626,-9.2583,-9.2583,-9.3661,-9.5576,-9.5277,-9.5336,-9.5576,-9.5695,-9.5277,-9.4618,-9.5037,-9.4499,-9.3541,-9.4319,-9.3721,-9.2524,-9.3002,-9.2703,-9.2045,-9.1386,-9.1446,-9.1686,-9.1327,0.0,0.0,0.0,-9.1267,-9.0728,-9.0668,-9.0369,-9.019,-9.0549,-9.0608,-9.0608,-9.0608,-9.0608,-9.0608,-9.0608,-9.0848,-9.1386,-9.2284,-9.3062,-9.384,-9.4858,-9.5157,-9.5695,-9.6833,-9.6653,-9.6773,-9.773,-9.7311,-9.7311,-9.8209,-9.803,-9.785,-9.785,-9.7611,-9.7311,-9.7012,-9.6354,-9.5875,-9.5576,-9.4558,-9.402,-9.402,-9.3721,-9.39,-9.4618,-9.3541,-9.2883,-9.2583,-9.1566,-9.1267,-9.1566,-9.0908,-9.0608,-9.0608,-9.0608,-9.0608,-9.0608,-9.0608,-9.1027,-9.1626,-9.1506,-9.1746,-9.1985,0.0,0.0,0.0,0.0,0.0,0.0,0.0,0.0,0.0,0.0,0.0,-8.9651,-8.8993,0.0,0.0,0.0,-8.8035,-8.9172,-9.0309,0.0,0.0,0.0,-9.0608,-9.0608,-9.0608,-9.0608,-9.0608,-9.0608,-9.0788,-9.1566,-9.2823,-9.2823,-9.402,-9.6055,-9.5755,-9.5755,-9.6114,-9.6414,-9.5995,-9.5097,-9.5097,-9.408,-9.2643,-9.3361,-9.2763,-9.1746,-9.2703,-9.2883,-9.2524,-9.2045,-9.2224,-9.2524,-9.2045,-9.2224,0.0,0.0,0.0,-9.1446,-9.0788,-9.0309,-9.001,-9.0549,-9.0608,-9.0608,-9.0608,-9.0608,-9.0608,-9.0608,-9.0608,-9.0788,-9.1267,-9.1925,-9.2703,-9.3721,-9.3541,-9.39,-9.5576,-9.5396,-9.5396,-9.6234,-9.6354,-9.6414,-9.6533,-9.6593,-9.6473,-9.6354,-9.6354,-9.6234,-9.6055,-9.5636,-9.5336,-9.5336,-9.4199,-9.3661,-9.384,-9.384,-9.402,-9.4319,-9.3182,-9.2524,-9.2284,-9.1147,-9.0908,-9.1327,-9.0848,-9.0608,-9.0608,-9.0608,-9.0608,-9.0608,-9.0608,-9.0968,-9.1327,-9.1027,-9.1087,-9.1327,0.0,0.0,0.0,0.0,0.0,0.0,0.0,0.0,0.0,0.0,0.0,-9.0309,-8.9711,-8.9591,-8.9052,-8.7736,-8.8274,-8.8993,-8.9651,-9.0309,0.0,0.0,-9.0608,0.0,-9.0608,-9.0608,-9.0608,-9.0608,-9.1267,-9.2224,-9.3541,-9.3541,-9.4917,-9.7371,-9.6114,-9.6234,-9.7371,-9.6833,-9.6533,-9.6294,-9.4439,-9.3242,-9.2464,-9.1327,-9.1147,-9.1626,-9.1686,-9.2105,-9.2583,-9.2583,-9.2583,-9.2583,-9.2583,-9.2583,-9.2583,0.0,0.0,0.0,-9.0788,-9.0608,-9.0608,-9.0608,-9.0608,-9.0608,-9.0608,-9.0608,-9.0608,-9.0608,-9.0608,-9.0668,-9.0668,-9.1207,-9.1686,-9.1746,-9.2284,-9.2883,-9.3661,-9.3721,-9.4199,-9.5516,-9.5636,-9.5875,-9.6533,-9.6593,-9.6294,-9.5695,-9.5636,-9.5396,-9.4738,-9.4678,-9.4678,-9.4678,-9.396,-9.39,-9.4558,-9.4558,-9.4259,-9.3601,-9.2943,-9.2284,-9.1626,-9.0968,-9.0668,-9.0668,-9.0668,-9.0608,-9.0608,-9.0608,-9.0608,-9.0608,-9.0608,-9.0668,-9.0728,-9.1327,-9.1207,-9.0788,0.0,0.0,0.0,0.0,0.0,0.0,0.0,0.0,0.0,0.0,0.0,0.0,0.0,-8.9651,-8.9292,-8.8394,-8.8933,-8.9591,-9.0249,-9.0489,0.0,0.0,-9.0608,-9.0608,-9.0608,-9.0608,-9.0608,-9.0608,-9.0848,-9.1446,-9.2344,-9.2763,-9.39,-9.5636,-9.6055,-9.6713,-9.7491,-9.773,-9.7371,-9.6473,-9.5336,-9.396,-9.2524,-9.2105,-9.1506,-9.1087,-9.1925,-9.2643,-9.3182,-9.2763,-9.3182,-9.384,-9.3361,-9.3541,-9.3721,-9.2823,-9.2404,-9.1985,-9.0908,-9.0608,-9.0608,-9.0608,-9.0608,-9.0549,-9.013,-9.0309,-9.0549,-9.007,-9.0369,-9.0608,-9.0608,-9.0848,-9.1147,-9.1566,-9.1805,-9.2224,-9.2883,-9.2943,-9.3302,-9.4199,-9.4319,-9.4558,-9.5277,-9.5336,-9.5217,-9.4977,-9.4977,-9.4858,-9.4618,-9.4618,-9.4379,-9.396,-9.3721,-9.3481,-9.3302,-9.3721,-9.3601,-9.2943,-9.2703,-9.2284,-9.1626,-9.0968,-9.0608,-9.0608,-9.0608,-9.0608,-9.0608,-9.0608,-9.0608,-9.0608,-9.0608,-9.0608,-9.0668,-9.0908,-9.0848,-9.0668,0.0,0.0,0.0,-8.9352,0.0,-8.983,-9.0249,-9.0489,-9.0608,-9.0608,0.0,0.0,0.0,0.0,-8.9711,-8.9052,-8.9412,-8.983,-9.0309,-9.0549,-9.0608,0.0,-9.0608,-9.0608,-9.0608,-9.019,-9.019,-9.0608,-9.019,-9.0668,-9.1985,-9.2404,-9.3421,-9.4977,-9.5875,-9.6713,-9.7551,-9.8209,-9.791,-9.6773,-9.5456,-9.4259,-9.3182,-9.2284,-9.1805,-9.1686,-9.2344,-9.3182,-9.378,-9.2883,-9.3361,-9.4199,-9.3721,-9.408,-9.4379,-9.3242,-9.2943,-9.2643,-9.1327,-9.0968,-9.0968,-9.0968,-9.0788,-9.0608,-9.0369,-9.0309,-9.0249,-9.001,-9.019,-9.0369,-9.0608,-9.0608,-9.0788,-9.1207,-9.1267,-9.1446,-9.1865,-9.2105,-9.2524,-9.3182,-9.3421,-9.384,-9.4558,-9.4379,-9.4259,-9.4259,-9.4259,-9.4259,-9.4259,-9.4499,-9.4319,-9.3601,-9.3601,-9.3242,-9.2583,-9.3002,-9.2943,-9.2284,-9.2284,-9.1925,-9.1267,-9.0848,-9.0608,-9.0608,-9.0608,-9.0608,-9.0608,-9.0608,-9.0608,-9.0608,-9.0608,-9.0608,-9.0608,-9.0608,-9.0788,-9.0968,-8.8813,-8.9172,-8.9412,-8.8813,-8.9232,-8.9651,-8.9711,-9.0249,-9.0608,-9.0608,0.0,0.0,0.0,0.0,0.0,-8.9771,-8.9711,-8.9711,-8.9711,-9.0309,-9.0608,-9.0608,-9.0608,-9.0608,-9.0608,-8.9412,-8.9352,-9.0608,-8.9352,-9.007,-9.2524,-9.2583,-9.3661,-9.5516,-9.5576,-9.6294,-9.7431,-9.8149,-9.8089,-9.7252,-9.4678,-9.408,-9.4379,-9.1746,-9.1925,-9.3481,-9.2823,-9.3421,-9.4379,-9.3062,-9.3062,-9.3661,-9.3661,-9.408,-9.4499,-9.378,-9.3601,-9.3302,0.0,0.0,0.0,-9.1626,-9.1147,-9.0788,-9.1446,-9.0608,-8.989,-9.0489,-9.013,-8.989,-9.0549,-9.0608,-9.0608,-9.0608,-9.0608,-9.0608,-9.0608,-9.1207,-9.1865,-9.2464,-9.3122,-9.378,-9.4499,-9.396,-9.3541,-9.3601,-9.3541,-9.3541,-9.3541,-9.4199,-9.4199,-9.3541,-9.3541,-9.3182,-9.2583,-9.2583,-9.2224,-9.1566,-9.1626,-9.1267,-9.0608,-9.0608,-9.0608,-9.0608,-9.0608,-9.0608,-9.0608,-9.0608,-9.0608,-9.0608,-9.0608,-9.0608,-9.0608,-9.0608,-9.1027,-9.1626,-8.8215,-8.8514,-8.8873,-8.8693,-8.8813,-8.9292,-9.0249,-9.0549,-9.0608,0.0,0.0,0.0,-9.0608,-9.0608,-9.0549,-9.0369,-9.0369,-9.0369,-9.0369,-9.0549,-9.0608,-9.0608,-9.0608,-9.0608,-9.0608,-9.0309,-9.0249,-9.0608,-9.0249,-9.0489,-9.1207,-9.2165,-9.2883,-9.3481,-9.4917,-9.5516,-9.5516,-9.6653,-9.7252,-9.7371,-9.6234,-9.5576,-9.5157,-9.3421,-9.2823,-9.2763,-9.2105,-9.2763,-9.378,-9.3421,-9.408,-9.5037,-9.5037,-9.5157,-9.5097,-9.39,-9.3601,-9.3421,-9.2583,0.0,0.0,0.0,0.0,0.0,-9.0249,-9.0309,-9.0309,-9.001,-9.019,-9.0429,-9.0608,-9.0608,-9.0608,-9.0608,-9.0608,-9.0608,-9.0608,-9.0788,-9.1147,-9.1805,-9.2045,-9.2583,-9.378,-9.3242,-9.3062,-9.3541,-9.3122,-9.2883,-9.2883,-9.2583,-9.2583,-9.2883,-9.1925,-9.1566,-9.1865,-9.1865,-9.1566,-9.0908,-9.1386,-9.1267,-9.0608,-9.013,-9.019,-9.0608,-9.013,-9.019,-9.0608,-9.0608,-9.0608,-9.0608,-9.0608,-9.0608,-9.0608,-9.0608,-9.1027,-9.1626,-8.8334,-8.8454,-8.8574,-8.8334,-8.8514,-8.9052,-9.007,-9.0489,-9.0608,0.0,0.0,0.0,-9.0608,-9.0908,-9.0908,-9.0668,-9.0608,-9.0608,-9.0608,-9.0608,-9.0608,-9.0608,-9.0608,-9.0608,-9.0608,-9.013,-9.007,-9.0608,-9.007,-9.013,-9.0668,-9.1686,-9.2165,-9.2284,-9.3721,-9.4259,-9.4259,-9.4977,-9.5995,-9.7012,-9.5815,-9.5576,-9.5815,-9.39,-9.3481,-9.3721,-9.2763,-9.3481,-9.4678,-9.3541,-9.408,-9.5157,-9.4858,-9.5157,-9.5396,-9.4319,-9.402,-9.384,-9.3182,-9.2524,-9.2045,-9.2045,0.0,0.0,-8.983,-8.9771,-8.9651,-8.8993,-8.9352,-8.989,-9.019,-9.0429,-9.0608,-9.0608,-9.0608,-9.0608,-9.0608,-9.0608,-9.0908,-9.1566,-9.1626,-9.2045,-9.3062,-9.2823,-9.2763,-9.3122,-9.2823,-9.2583,-9.2583,-9.2224,-9.2105,-9.2165,-9.1446,-9.1087,-9.1207,-9.1207,-9.1027,-9.0608,-9.0728,-9.0728,-9.0608,-8.995,-9.001,-9.0608,-9.0249,-9.0309,-9.0608,-9.0608,-9.0608,-9.0608,-9.0608,-9.0608,-9.0608,-9.0608,-9.1207,-9.2045,0.0,-8.8753,-8.8514,-8.8035,-8.8334,-8.8933,-8.9651,-9.0249,-9.0608,0.0,-9.0668,-9.0728,-9.0728,-9.1267,-9.1327,-9.0668,-9.0608,-9.0608,-9.0608,-9.0608,-9.0608,-9.0608,-9.0608,-9.0608,-9.0608,-8.9471,-8.9471,-9.0608,-8.9471,-8.9471,-9.0668,-9.1327,-9.1626,-9.1626,-9.2284,-9.2943,-9.3601,-9.3601,-9.4678,-9.6234,-9.4499,-9.4858,-9.6114,-9.3661,-9.378,-9.5097,-9.39,-9.4678,-9.5875,-9.3661,-9.3661,-9.4499,-9.396,-9.4499,-9.5277,-9.4738,-9.4558,-9.4379,-9.384,-9.3182,-9.2703,-9.2643,-9.1686,0.0,-8.995,-8.9352,-8.8753,-8.8155,-8.8514,-8.9052,-8.9651,-9.0249,-9.0608,-9.0608,-9.0668,-9.0728,-9.0668,-9.0668,-9.0908,-9.1446,-9.1566,-9.1865,-9.2404,-9.2464,-9.2524,-9.2583,-9.2583,-9.2583,-9.2464,-9.2583,-9.2284,-9.1626,-9.1626,-9.1386,-9.0848,-9.0728,-9.0668,-9.0728,-9.007,-9.007,-9.0608,-8.995,-9.001,-9.0608,-9.0549,-9.0549,-9.0608,-9.0608,-9.0608,-9.0608,-9.0608,-9.0608,-9.0608,-9.0608,-9.1446,-9.2524,-8.9591,-8.9052,-8.8813,-8.9232,-8.8933,-8.9052,-9.0249,-9.0549,-9.0608,-9.0608,-9.1087,-9.1446,-9.1446,-9.1566,-9.1327,-9.0668,-9.0608,-9.0608,-9.0608,-9.0608,-9.0608,-9.0608,-9.0608,-9.0608,-9.0608,-9.0369,-9.0369,-9.0608,-9.0369,-9.0369,-9.0668,-9.1327,-9.1626,-9.1626,-9.2284,-9.2943,-9.3601,-9.3601,-9.4139,-9.4977,-9.5157,-9.5097,-9.4858,-9.378,-9.3302,-9.3122,-9.2883,-9.3361,-9.4259,-9.4798,-9.4858,-9.4678,-9.5097,-9.4618,-9.408,-9.4499,-9.4199,-9.39,-9.4319,-9.39,-9.3242,-9.2703,-9.1985,0.0,-9.0608,-9.0369,-9.0249,-9.007,-9.019,-9.0309,-9.0429,-9.0549,-9.0608,-9.0608,-9.1087,-9.1267,-9.0728,-9.1087,-9.1267,-9.0848,-9.1327,-9.1686,-9.1805,-9.1805,-9.2045,-9.2583,-9.2583,-9.2344,-9.1865,-9.2344,-9.2284,-9.1626,-9.1626,-9.1805,-9.2224,-9.1147,-9.0908,-9.1446,-9.0788,-9.0549,-9.0608,-8.995,-9.001,-9.0608,-9.007,-9.013,-9.0608,-9.0608,-9.0608,-9.0608,-9.0608,-9.0608,-9.0608,-9.0608,-9.1147,-9.1865,-8.8873,-8.8693,-8.8813,-8.9112,-8.8933,-8.9112,-9.0429,-9.0608,-9.0608,-9.0608,-9.1506,-9.2105,-9.2105,-9.2404,-9.2224,-9.1207,-9.1147,-9.0968,-9.0668,-9.0608,-9.0608,-9.0608,-9.0608,-9.0608,-9.0608,-9.0608,-9.0608,-9.0608,-9.0608,-9.0608,-9.0668,-9.0968,-9.0788,-9.019,-9.1207,-9.1805,-9.2165,-9.2823,-9.3661,-9.4558,-9.4259,-9.39,-9.3481,-9.2524,-9.2105,-9.2105,-9.2105,-9.2763,-9.3721,-9.4738,-9.5097,-9.5037,-9.4678,-9.4558,-9.4499,-9.4199,-9.408,-9.4139,-9.4499,-9.408,-9.3481,-9.3182,-9.2583,0.0,0.0,-9.0429,-9.0369,-8.9352,-8.9711,-9.013,-9.013,-9.0429,-9.0608,-9.0608,-9.0908,-9.1027,-9.0668,-9.1207,-9.1506,-9.1147,-9.1147,-9.1147,-9.1147,-9.1746,-9.2404,-9.3062,-9.3062,-9.2823,-9.2165,-9.2404,-9.2464,-9.2105,-9.2105,-9.2284,-9.2583,-9.1925,-9.1626,-9.1626,-9.0968,-9.0608,-9.0608,-8.995,-9.001,-9.0608,-9.0309,-9.0309,-9.0668,-9.0968,-9.1147,-9.1147,-9.1147,-9.1327,-9.1626,-9.1626,-9.2045,-9.2643,-8.8274,-8.8394,-8.8753,-8.8873,-8.8753,-8.9112,-9.0429,-9.0608,-9.0728,-9.0968,-9.1805,-9.2404,-9.2404,-9.2643,-9.2464,-9.1506,-9.1087,-9.0908,-9.1027,-9.0549,-9.0249,-9.0249,-9.0489,-9.0429,-9.007,-9.0429,-9.0608,-9.0608,-9.0608,-9.0608,-9.0608,-9.0608,-9.007,-8.9112,-9.001,-9.0668,-9.1087,-9.1985,-9.3122,-9.4139,-9.3062,-9.2763,-9.2823,-9.1386,-9.1267,-9.1805,-9.1686,-9.2404,-9.3481,-9.4199,-9.4678,-9.4858,-9.402,-9.4259,-9.4678,-9.396,-9.396,-9.4259,-9.4558,-9.4199,-9.3721,-9.3601,-9.3182,-9.2344,0.0,0.0,0.0,-8.8753,-8.9172,-8.983,-8.983,-9.0309,-9.0608,-9.0608,-9.0728,-9.0848,-9.0848,-9.1267,-9.1566,-9.1446,-9.1207,-9.0908,-9.0668,-9.1805,-9.2883,-9.3541,-9.3721,-9.3481,-9.2823,-9.2943,-9.2943,-9.2823,-9.2943,-9.3062,-9.3182,-9.2943,-9.2524,-9.1985,-9.1207,-9.0848,-9.0788,-9.0309,-9.0369,-9.1027,-9.1147,-9.1207,-9.1267,-9.1925,-9.2284,-9.2344,-9.2105,-9.2344,-9.2823,-9.2943,-9.3302,-9.378,-8.9232,-8.9052,-8.8873,-8.9471,-8.9052,-8.9112,-9.0429,-9.0608,-9.1087,-9.2224,-9.1985,-9.1746,-9.1746,-9.0728,-9.0309,-9.0728,-8.9172,-8.9352,-9.2165,-9.019,-8.8933,-8.8933,-9.001,-8.983,-8.8095,-8.9771,-9.0608,-9.0608,-9.0608,-9.0608,-9.0608,-9.0608,-9.0549,-9.0429,-8.995,-9.0728,-9.2344,-9.1925,-9.2165,-9.2823,-9.2643,-9.3302,-9.4199,-9.2224,-9.1925,-9.2404,-9.1805,-9.2105,-9.2823,-9.3481,-9.3361,-9.3122,-9.4139,-9.3361,-9.2404,-9.402,-9.3721,-9.3062,-9.4319,-9.4558,-9.4319,-9.3721,-9.3541,-9.3242,-9.2464,0.0,-9.1446,-9.1207,0.0,-9.0549,-9.0549,0.0,0.0,-9.0608,-9.1147,-9.1506,-9.1506,-9.1566,-9.1386,-9.0788,-9.1746,-9.1925,-9.0728,-9.1805,-9.2883,-9.3541,-9.4139,-9.4199,-9.3481,-9.408,-9.408,-9.3481,-9.408,-9.4678,-9.5217,-9.408,-9.3421,-9.3361,-9.2105,-9.1506,-9.1506,-9.1446,-9.1746,-9.2404,-9.3002,-9.3242,-9.3302,-9.396,-9.4618,-9.5037,-9.384,-9.3421,-9.3541,-9.4139,-9.4439,-9.4499,-8.7975,-8.8035,-8.8334,-8.8993,-8.8873,-8.9112,-9.0429,-9.0968,-9.1566,-9.2464,-9.2703,-9.3062,-9.384,-9.3122,-9.2464,-9.2344,-9.0908,-9.0369,-9.1386,-9.007,-8.9412,-8.983,-9.0369,-9.0249,-8.9412,-9.019,-9.0608,-9.0608,-9.0608,-9.0608,-9.0608,-9.0608,-9.0249,-8.9531,-9.001,-9.0489,-9.0968,-9.1805,-9.2583,-9.3182,-9.3182,-9.3721,-9.4379,-9.1985,-9.1207,-9.1446,-9.1147,-9.1446,-9.2105,-9.2763,-9.3062,-9.3242,-9.384,-9.3721,-9.3421,-9.39,-9.39,-9.39,-9.4439,-9.4618,-9.4558,-9.4259,-9.4199,-9.402,-9.3302,-9.2943,-9.2643,-9.2284,0.0,0.0,0.0,0.0,0.0,0.0,-9.0848,-9.1027,-9.1027,-9.1386,-9.1506,-9.1267,-9.1386,-9.1566,-9.1746,-9.2284,-9.3062,-9.408,-9.4439,-9.4499,-9.4199,-9.4798,-9.5037,-9.4738,-9.5396,-9.5875,-9.6174,-9.5576,-9.4738,-9.3601,-9.3421,-9.2943,-9.2224,-9.3002,-9.3481,-9.378,-9.4439,-9.4558,-9.4259,-9.5336,-9.5935,-9.6234,-9.6773,-9.6294,-9.5336,-9.5636,-9.5755,-9.5755,-8.7137,-8.7676,-8.8334,-8.8634,-8.8813,-8.9352,-9.0489,-9.1327,-9.2045,-9.2524,-9.2883,-9.3601,-9.5157,-9.4259,-9.3601,-9.384,-9.2165,-9.1087,-9.1147,-9.007,-8.9471,-8.9591,-9.0249,-9.0309,-8.9591,-9.0249,-9.0608,-9.0608,-9.0608,-9.0608,-9.0608,-9.0608,-9.013,-8.9232,-9.019,-9.0489,-9.0309,-9.1746,-9.2583,-9.3062,-9.3062,-9.3242,-9.3361,-9.1805,-9.0968,-9.0608,-9.0608,-9.0968,-9.1506,-9.2344,-9.2943,-9.3361,-9.3721,-9.408,-9.4259,-9.396,-9.408,-9.4379,-9.4558,-9.4618,-9.4618,-9.4618,-9.4618,-9.4499,-9.396,-9.3721,-9.3421,-9.2943,-9.2344,0.0,0.0,0.0,-9.1147,-9.0908,0.0,-9.1014,-9.1372,-9.1877,-9.2179,-9.2179,-9.2185,-9.2651,-9.3627,-9.3357,-9.3569,-9.4512,-9.4423,-9.4319,-9.4319,-9.5157,-9.5576,-9.5576,-9.6414,-9.6833,-9.6833,-9.6833,-9.5935,-9.4139,-9.4618,-9.4379,-9.3481,-9.4618,-9.5336,-9.5695,-9.6354,-9.6414,-9.6055,-9.7192,-9.767,-9.779,-9.9226,-9.8927,-9.767,-9.767,-9.767,-9.7611,-8.7676,-8.8693,-8.9412,-8.8813,-8.9232,-8.989,-9.0549,-9.1746,-9.2583,-9.2583,-9.2045,-9.2464,-9.4439,-9.2344,-9.1805,-9.4379,-9.1626,-9.0549,-9.2404,-9.013,-8.8155,-8.6898,-8.9292,-8.9412,-8.6838,-8.9292,-9.0608,-9.0608,-9.0608,-9.0608,-9.0608,-9.0608,-9.0608,-9.0549,-9.0608,-9.0968,-9.1566,-9.1626,-9.1686,-9.1686,-9.1686,-9.1327,-9.0908,-9.2105,-9.1746,-9.0608,-9.0608,-9.0668,-9.0848,-9.2165,-9.2583,-9.2883,-9.4139,-9.4139,-9.3721,-9.4379,-9.4139,-9.378,-9.4439,-9.4618,-9.4618,-9.4618,-9.4618,-9.4618,-9.4558,-9.408,-9.3601,-9.3541,-9.3002,-9.2583,-9.2583,-9.2524,-9.2344,-9.1686,-9.1566,0.0,0.0,-9.3512,-9.3574,-9.3574,-9.5224,-9.6422,-9.6486,-9.5366,-9.4548,-9.4609,-9.3941,-9.3601,-9.3601,-9.4858,-9.5576,-9.5576,-9.6833,-9.7491,-9.7491,-9.7491,-9.6833,-9.5516,-9.5576,-9.5516,-9.5516,-9.6174,-9.7192,-9.8448,-9.9107,-9.9346,-9.9406,-10.0064,-10.0364,-10.0364,-10.0423,-10.0423,-10.0364,-10.0364,-10.0364,-10.0184,-8.8454,-8.9412,-9.013,-8.9471,-8.9531,-8.989,-9.0549,-9.1386,-9.2404,-9.378,-9.4139,-9.5157,-9.7611,-9.6653,-9.6055,-9.6473,-9.4738,-9.3302,-9.2643,-9.1386,-9.0249,-8.9352,-9.019,-9.0429,-8.995,-9.0429,-9.1449,-9.3279,-9.1449,-9.129,-9.2544,-9.1208,-9.0608,-9.0608,-9.0608,-9.0788,-9.1027,-9.1446,-9.1626,-9.1626,-9.1626,-9.1506,-9.1267,-9.1327,-9.1027,-9.0608,-9.0608,-9.0608,-9.0848,-9.2165,-9.2583,-9.2823,-9.4199,-9.4439,-9.4319,-9.4558,-9.4439,-9.4319,-9.4558,-9.4917,-9.5157,-9.4738,-9.4917,-9.5157,-9.4738,-9.4798,-9.4798,-9.4379,-9.408,-9.378,-9.3302,-9.2883,-9.2404,-9.1746,-9.2668,-9.3582,0.0,-9.5902,-9.7713,-9.8166,-9.7718,-9.7466,-9.7914,-9.64,-9.5326,-9.5246,-9.3842,-9.3122,-9.3541,-9.4439,-9.5336,-9.6234,-9.7072,-9.773,-9.8149,-9.8149,-9.7311,-9.5636,-9.6892,-9.7072,-9.6294,-9.8269,-9.9406,-9.9885,-10.0483,-10.0603,-10.0184,-10.0902,-10.1142,-10.1201,-10.168,-10.18,-10.168,-10.0782,-10.0483,-10.0364,-8.8813,-8.9531,-9.007,-8.9412,-8.9531,-8.989,-9.0549,-9.1805,-9.3122,-9.4439,-9.5576,-9.7192,-9.9586,-9.9047,-9.8508,-9.8568,-9.7371,-9.5695,-9.3481,-9.2943,-9.2045,-9.0668,-9.0848,-9.1087,-9.1267,-9.1532,-9.2468,-9.4272,-9.2468,-9.2365,-9.3591,-9.1535,-9.0608,-9.0668,-9.0908,-9.0848,-9.0668,-9.1327,-9.1506,-9.1267,-9.1267,-9.1267,-9.1207,-9.0788,-9.0788,-9.0968,-9.0728,-9.0608,-9.0848,-9.2165,-9.2583,-9.2823,-9.4199,-9.4618,-9.4618,-9.4618,-9.4618,-9.4618,-9.4618,-9.4917,-9.5217,-9.4977,-9.5277,-9.5456,-9.5037,-9.5277,-9.5396,-9.4738,-9.4618,-9.4618,-9.4618,-9.3721,-9.2883,-9.2703,0.0,-9.4868,0.0,-9.8449,-10.0783,-10.1649,-10.0614,-9.9968,-10.0354,-9.8597,-9.7338,-9.7072,-9.4722,-9.3638,-9.4304,-9.4509,-9.5217,-9.6533,-9.7192,-9.785,-9.8508,-9.8508,-9.767,-9.5935,-9.791,-9.8329,-9.7371,-9.9765,-10.0962,-10.1201,-10.168,-10.1561,-10.1201,-10.168,-10.186,-10.186,-10.2279,-10.2518,-10.2398,-10.1501,-10.0902,-10.0423,-8.8873,-8.9172,-8.9412,-8.8813,-8.9232,-8.989,-9.0549,-9.2883,-9.4618,-9.4678,-9.6414,-9.8329,-10.0364,-9.9466,-9.9226,-10.0423,-9.9406,-9.7551,-9.4977,-9.4798,-9.3601,-9.0968,-9.1386,-9.1446,-9.0954,-9.2667,-9.3653,-9.3965,-9.3653,-9.3512,-9.3669,-9.1617,-9.0608,-9.0668,-9.1267,-9.1207,-9.0668,-9.1327,-9.1207,-9.0608,-9.0608,-9.0668,-9.0668,-9.0668,-9.1027,-9.1506,-9.0848,-9.0608,-9.0848,-9.2105,-9.2583,-9.2823,-9.4139,-9.4558,-9.4618,-9.4618,-9.4618,-9.4618,-9.4618,-9.4618,-9.4798,-9.5396,-9.5576,-9.5576,-9.5576,-9.5576,-9.5456,-9.4798,-9.4738,-9.5097,-9.6294,-9.4977,-9.384,0.0,0.0,0.0,-9.9142,-10.132,-10.2773,-10.3517,-10.3585,-10.3585,-10.3585,-10.1784,-10.0284,-9.9559,-9.6537,-9.4972,-9.5654,-9.5102,-9.5358,-9.665,-9.7309,-9.788,-9.8508,-9.8508,-9.785,-9.6593,-9.8568,-9.9167,-9.8568,-10.0603,-10.186,-10.2518,-10.2518,-10.2518,-10.2518,-10.2518,-10.2518,-10.2518,-10.2518,-10.2518,-10.2518,-10.2518,-10.168,-10.0483,-8.9471,-8.8753,-8.8454,-8.9292,-8.9531,-8.989,-9.0549,-9.2464,-9.4379,-9.5875,-9.779,-9.9765,-10.18,-10.168,-10.1381,-10.1261,-10.0902,-9.9825,-9.767,-9.7012,-9.5815,-9.3661,-9.3242,-9.3788,-9.5137,-9.3157,-9.4503,-9.9574,-9.4008,-9.2863,-9.5752,-9.2285,-9.0608,-9.0668,-9.0788,-9.0788,-9.0668,-9.0788,-9.0788,-9.0608,-9.0608,-9.0908,-9.1327,-9.0848,-9.1027,-9.1506,-9.0848,-9.0608,-9.0788,-9.1566,-9.2224,-9.2763,-9.3601,-9.4199,-9.4618,-9.4618,-9.4618,-9.4618,-9.4618,-9.4977,-9.5277,-9.4917,-9.5217,-9.5456,-9.4977,-9.5636,-9.6114,-9.5456,-9.6114,-9.6593,-9.5935,-9.5396,-9.4618,-9.3302,-9.4813,-9.7414,-10.1187,-10.2243,-10.2773,-10.3517,-10.3585,-10.3585,-10.3585,-10.1784,-10.0284,-9.9559,-9.7423,-9.6323,-9.7021,-9.7447,-9.7726,-9.8065,-9.874,-9.8861,-9.8508,-9.8508,-9.785,-9.6593,-9.9047,-9.9645,-9.8628,-10.1082,-10.2279,-10.2518,-10.2518,-10.2518,-10.2518,-10.2518,-10.2518,-10.2518,-10.2518,-10.2518,-10.2518,-10.2518,-10.1979,-10.1201,-8.9537,-8.8394,-8.8035,-8.9052,-8.995,-9.0848,-9.1805,-9.2883,-9.4319,-9.6294,-9.8269,-9.9945,-10.1082,-10.1979,-10.2339,-10.1979,-10.192,-10.1082,-9.9107,-9.8329,-9.7072,-9.5097,-9.408,-9.4584,-9.6628,-9.5086,-9.61,-9.9856,-9.5409,-9.3903,-9.5224,-9.2043,-9.0608,-9.0608,-9.0608,-9.0608,-9.0608,-9.0608,-9.0608,-9.0608,-9.0608,-9.0848,0.0,-9.0788,-9.0848,-9.1147,-9.0788,-9.0608,-9.0788,-9.1746,-9.2284,-9.2763,-9.3721,-9.4319,-9.4678,-9.4977,-9.5037,-9.5037,-9.5037,-9.5336,-9.5576,-9.5516,-9.5516,-9.5576,-9.5456,-9.6055,-9.6414,-9.5755,-9.6414,-9.7072,-9.6892,-9.5935,-9.5247,-9.528,-9.6521,-9.8924,-10.2923,-10.3179,-10.3314,-10.399,-10.3517,-10.3179,-10.3585,-10.2592,-10.1586,-10.0919,-9.9007,-9.8131,-9.878,-9.8746,-9.8643,-9.8446,-9.9436,-9.9526,-9.8508,-9.8808,-9.8269,-9.7012,-9.9346,-9.9945,-9.9047,-10.1381,-10.2518,-10.2518,-10.2518,-10.2518,-10.2518,-10.2518,-10.2518,-10.2518,-10.2518,-10.2518,-10.2518,-10.2518,-10.2099,-10.1381,-8.9038,-8.8155,-8.8035,-8.8693,-9.0677,-9.2561,-9.3806,-9.4139,-9.4858,-9.6713,-9.8688,-9.9885,-9.9885,-10.1501,-10.2518,-10.2518,-10.2518,-10.168,-9.9885,-9.9167,-9.797,-9.6055,-9.4678,-9.4947,-9.6938,-9.7117,-9.7573,-9.8232,-9.688,-9.5451,-9.3981,-9.1698,-9.0608,-9.0608,-9.0608,-9.0608,-9.0549,-9.0608,-9.0608,-9.0549,-9.0608,-9.0608,-9.0608,-9.0608,-9.0608,-9.0668,-9.0728,-9.0788,-9.0968,-9.2105,-9.2583,-9.2943,-9.408,-9.4618,-9.4858,-9.5516,-9.5695,-9.5755,-9.5815,-9.5755,-9.5875,-9.6414,-9.6055,-9.5755,-9.6294,-9.6473,-9.6294,-9.5695,-9.6174,-9.7012,-9.8089,-9.6234,-9.5527,-9.8507,-9.881,-10.0093,-10.4337,-10.4193,-10.399,-10.4599,-10.3517,0.0,-10.3517,-10.3517,-10.3179,-10.2502,-10.0852,-10.0102,-10.0694,-9.9994,-9.9273,-9.8816,-10.0101,-10.0238,-9.8628,-9.9107,-9.8808,-9.779,-9.9586,-10.0184,-9.9705,-10.162,-10.2518,-10.2518,-10.2518,-10.2518,-10.2518,-10.2518,-10.2518,-10.2518,-10.2518,-10.2518,-10.2518,-10.2518,-10.2099,-10.1501,-8.8056,-8.8215,-8.8753,-8.9412,-9.2692,-9.5404,-9.5985,-9.6952,-9.797,-9.8867,-10.0723,-10.1979,-10.1979,-10.2279,-10.2518,-10.2518,-10.2518,-10.2099,-10.1201,-10.0483,-9.9526,-9.8089,-9.6773,-9.6825,-9.8281,-9.6764,-9.7579,-10.0902,-9.6386,-9.4767,-9.5976,-9.2365,-9.0608,-9.0608,-9.0608,-9.0309,-8.989,-9.0429,-9.0309,-8.989,-9.0429,-9.0608,-9.0608,-9.0608,-9.0608,-9.0728,-9.1267,-9.1446,-9.1506,-9.1746,-9.2524,-9.3421,-9.3661,-9.4499,-9.5576,-9.6234,-9.6414,-9.6533,-9.7012,-9.6773,-9.6414,-9.6533,-9.6055,-9.5636,-9.5755,-9.5755,-9.5755,-9.5636,-9.6533,-9.7252,-9.6952,-9.5636,-9.5831,-9.9856,-9.945,-10.0288,-10.5011,-10.5005,-10.4599,-10.4667,-10.3923,-10.3517,-10.3585,-10.3043,-10.2637,-10.2502,-10.2243,-10.2047,-10.2049,-10.3128,-10.2606,-10.016,-10.1621,-10.1389,-9.9286,-9.8927,-9.8867,-9.9167,-10.0064,-10.0423,-10.0364,-10.18,-10.2518,-10.2518,-10.2518,-10.2518,-10.2518,-10.2518,-10.2518,-10.2518,-10.2518,-10.2518,-10.2518,-10.2518,-10.2398,-10.2099,-8.8334,-8.8753,-9.0,-9.2509,-9.5481,-9.8033,-9.9599,-10.0864,-10.1211,-9.9708,-10.0304,-10.0902,-10.0902,-10.186,-10.2518,-10.2518,-10.2518,-10.2099,-10.1022,-10.0364,-9.9406,-9.803,-9.6773,-9.6946,-9.8652,-9.6609,-9.7073,-10.0093,-9.6826,-9.5072,-9.4996,-9.3101,-9.1617,-9.0608,-9.0309,-9.013,-9.019,-9.013,-9.013,-9.019,-9.0489,-9.0608,-9.0608,-9.0608,-9.0848,-9.1207,-9.1506,-9.2045,-9.2643,-9.2643,-9.3062,-9.3661,-9.402,-9.4798,-9.5695,-9.6354,-9.6773,-9.7132,-9.7431,-9.7252,-9.7072,-9.7072,-9.6294,-9.5695,-9.5995,-9.5815,-9.5576,-9.5576,-9.6593,-9.7431,-9.7132,-9.6533,-9.7006,-9.9718,-10.0605,-10.1989,-10.5368,-10.5818,-10.5953,-10.6358,-10.4735,-10.3787,-10.4126,-10.3179,-10.2502,-10.2502,-10.2502,-10.2502,-10.2502,-10.3855,-10.3927,-10.2245,-10.3233,-10.2928,-10.123,-10.0401,-10.0004,-10.0004,-10.0663,-10.0962,-10.1082,-10.2039,-10.2518,-10.2518,-10.2518,-10.2518,-10.2518,-10.2518,-10.2698,-10.2937,-10.2638,-10.2698,-10.2937,-10.2578,-10.2518,-10.2398,-8.9292,-8.983,-9.1734,-9.6051,-9.8831,-10.1076,-10.318,-10.521,-10.491,-10.0701,-10.0124,-10.0124,-10.0124,-10.1964,-10.3144,-10.3144,-10.3144,-10.2541,-10.1306,-10.0279,-9.9107,-9.779,-9.6593,-9.6747,-9.8233,-9.6612,-9.6651,-9.8426,-9.721,-9.5498,-9.3527,-9.3639,-9.2483,-9.0429,-9.007,-9.001,-9.019,-8.995,-9.007,-9.0429,-9.0608,-9.0608,-9.0668,-9.0788,-9.1147,-9.1686,-9.1925,-9.2703,-9.3601,-9.3721,-9.378,-9.39,-9.4439,-9.5157,-9.5935,-9.6593,-9.7192,-9.773,-9.791,-9.791,-9.791,-9.773,-9.6952,-9.6294,-9.6533,-9.6055,-9.5576,-9.5396,-9.6414,-9.7311,-9.7491,-9.7491,-9.8048,-9.9617,-10.1534,-10.375,-10.5778,-10.6389,-10.6831,-10.7711,-10.501,-10.3261,-10.3799,-10.3051,-10.224,-10.1914,-10.2308,-10.2502,-10.2502,-10.3855,-10.42,-10.3122,-10.3981,-10.3806,-10.2169,-10.1578,-10.1142,-10.0902,-10.1261,-10.1561,-10.168,-10.2279,-10.2518,-10.2518,-10.2518,-10.2518,-10.2518,-10.2518,-10.2817,-10.3176,-10.2698,-10.2817,-10.3176,-10.2698,-10.2518,-10.2398,-9.0908,-9.1865,-9.3824,-9.8693,-10.2878,-10.5577,-10.5833,-10.9165,-10.9482,-10.3088,-10.2219,-10.2219,-10.2219,-10.4248,-10.5507,-10.5507,-10.5507,-10.489,-10.3618,-10.1577,-9.9825,-9.8508,-9.773,-9.7161,-9.6826,-9.6609,-9.6901,-9.7573,-9.688,-9.5537,-9.3539,-9.3584,-9.2238,-8.9771,-9.0309,-8.995,-8.8933,-9.007,-9.0249,-8.983,-9.0429,-9.0608,-9.0728,-9.1327,-9.1566,-9.1805,-9.2943,-9.3481,-9.3661,-9.4319,-9.4499,-9.4558,-9.4618,-9.5456,-9.6593,-9.7252,-9.791,-9.8568,-9.9167,-9.9286,-9.9167,-9.8568,-9.8329,-9.797,-9.6833,-9.6055,-9.5396,-9.4858,-9.5755,-9.6833,-9.7371,-9.7491,-9.8229,-10.0319,-10.185,-10.3944,-10.6641,-10.59,-10.5568,-10.69,-10.3921,-10.1549,-10.1025,-10.1922,-10.1716,-9.9972,-10.1452,-10.2502,-10.2502,-10.3855,-10.3516,-10.0884,-10.2684,-10.2744,-10.067,-10.0575,-10.1201,-10.2279,-10.174,-10.18,-10.2398,-10.2458,-10.2518,-10.2518,-10.2518,-10.2518,-10.2518,-10.2518,-10.2518,-10.2578,-10.2518,-10.2518,-10.2578,-10.2518,-10.2518,-10.2518,-9.7573,-9.8449,-10.0364,-10.4868,-10.7051,-10.8105,-10.8033,-11.0475,-11.0576,-10.515,-10.449,-10.4005,-10.2646,-10.333,-10.3822,-10.3822,-10.3822,-10.3397,-10.2516,-10.1575,-10.0483,-9.9167,-9.8448,-9.7611,-9.6593,-9.5781,-9.571,-9.6307,-9.6855,-9.5913,-9.3574,-9.4404,-9.3002,-8.9651,-8.9531,-8.9591,-8.989,-9.001,-9.013,-9.0249,-9.0549,-9.0848,-9.1267,-9.1506,-9.2105,-9.2883,-9.3421,-9.384,-9.4319,-9.4977,-9.4917,-9.4678,-9.5097,-9.5815,-9.6713,-9.7311,-9.8269,-9.9107,-9.8927,-9.9226,-9.9346,-9.8688,-9.8209,-9.779,-9.7252,-9.6653,-9.5995,-9.5336,-9.5935,-9.6892,-9.791,-9.8089,-9.8358,-9.9274,-10.0983,-10.2632,-10.3701,-10.3825,-10.3739,-10.3908,-10.2501,-10.1268,-10.075,-10.1855,-10.2243,-10.1386,-10.2045,-10.2705,-10.3111,-10.4126,-10.4196,-10.3119,-10.3954,-10.3766,-10.2411,-10.1939,-10.1979,-10.2518,-10.2219,-10.2219,-10.2518,-10.2518,-10.2698,-10.2997,-10.2698,-10.2698,-10.2997,-10.2638,-10.2698,-10.2997,-10.2638,-10.2698,-10.2997,-10.2638,-10.2518,-10.2518,-10.2449,-10.2797,-10.4186,-10.8626,-10.9396,-10.954,-10.9992,-11.2003,-11.2081,-10.8337,-10.8016,-10.6868,-10.373,-10.4671,-10.4942,-10.3606,-10.4096,-10.3883,-10.2638,-10.1723,-10.0663,-9.9526,-9.8867,-9.797,-9.6892,-9.5576,-9.5105,-9.5476,-9.6304,-9.5171,-9.2413,-9.302,-9.1995,-8.9651,-8.9352,-8.9651,-9.0309,-9.007,-9.0309,-9.0908,-9.0908,-9.1327,-9.1925,-9.2105,-9.2763,-9.3601,-9.378,-9.4319,-9.4977,-9.5456,-9.5516,-9.5516,-9.5815,-9.6473,-9.7252,-9.767,-9.8748,-9.9705,-9.9226,-9.9466,-9.9705,-9.9226,-9.8568,-9.803,-9.785,-9.7431,-9.7012,-9.6533,-9.6653,-9.7192,-9.8329,-9.8508,-9.8508,-9.8508,-10.028,-10.1648,-10.1524,-10.231,-10.2756,-10.2472,-10.1604,-10.0746,-9.9837,-10.0499,-10.0715,-9.9904,-10.1253,-10.2453,-10.3517,-10.3866,-10.4112,-10.42,-10.4106,-10.3809,-10.3073,-10.2694,-10.2518,-10.2518,-10.2518,-10.2518,-10.2518,-10.2518,-10.2698,-10.3117,-10.2698,-10.2698,-10.3117,-10.2877,-10.2937,-10.3117,-10.2877,-10.2937,-10.3117,-10.2698,-10.2518,-10.2518,-10.3398,-10.2967,-10.3368,-10.8269,-10.9049,-10.9858,-11.2081,-11.4295,-11.5027,-11.2696,-11.3054,-11.1517,-10.6304,-10.9758,-11.0576,-10.6092,-10.7827,-10.7914,-10.5046,-10.2092,-10.0184,-9.9526,-9.8867,-9.8209,-9.7491,-9.6234,-9.5528,-9.5395,-9.4875,-9.2909,-8.9487,-8.8347,-8.8475,-8.9711,-9.0309,-9.0249,-8.9711,-9.0369,-9.1027,-9.1626,-9.1626,-9.1985,-9.2643,-9.3302,-9.3541,-9.3661,-9.4379,-9.5037,-9.5576,-9.5576,-9.6414,-9.7371,-9.6773,-9.7431,-9.8508,-9.8508,-9.9466,-10.0483,-10.0483,-10.0483,-10.0483,-10.0483,-9.9945,-9.9286,-9.8688,-9.8508,-9.8508,-9.8508,-9.797,-9.767,-9.8389,-9.8508,-9.8508,-9.8508,-10.028,-10.1524,-10.0904,-10.1994,-10.3105,-10.3684,-10.1298,-9.913,-9.7871,-9.7669,-9.6525,-9.3965,-9.802,-10.1513,-10.3519,-10.2975,-10.255,-10.2621,-10.266,-10.2283,-10.1534,-10.2159,-10.2518,-10.2518,-10.2518,-10.2518,-10.2518,-10.2518,-10.2518,-10.2518,-10.2518,-10.2518,-10.2578,-10.3117,-10.2997,-10.2578,-10.3176,-10.2997,-10.2518,-10.2518,-10.2518,-10.2518,-11.091,-11.1382,-11.1948,-11.3412,-11.3764,-11.3392,-11.2552,-11.4437,-11.496,-11.2774,-11.404,-11.3888,-11.0657,-11.0638,-11.019,-10.8252,-10.8695,-10.8125,-10.5667,-10.5968,-10.4721,-10.1027,-10.1694,-10.0687,-9.764,-9.6713,-9.5564,-9.4197,-9.5383,-9.5665,-9.5043,-9.2289,-9.1784,-9.3072,-9.2747,-9.2307,-9.1686,-9.1865,-9.1865,-9.1686,-9.2105,-9.2404,-9.2643,-9.3302,-9.39,-9.4379,-9.5037,-9.5396,-9.5695,-9.6593,-9.7491,-9.8269,-9.8508,-9.8867,-9.9286,-9.9705,-10.0483,-10.0962,-10.0064,-10.0483,-10.0962,-10.0004,-10.0004,-10.0124,-9.9885,-9.9526,-9.9167,-9.9167,-9.8688,-9.8269,-9.8508,-9.8508,-9.8508,-9.8508,-9.9076,-9.9307,-9.8641,-9.974,-9.9911,-9.7785,-9.8758,-9.8711,-9.6495,-9.7452,-9.7666,-9.6298,-9.8063,-10.0327,-10.2972,-10.3271,-10.3603,-10.4106,-10.3161,-10.2133,-10.1534,-10.2159,-10.2518,-10.2518,-10.2518,-10.2518,-10.2518,-10.2518,-10.2997,-10.3775,-10.3296,-10.3416,-10.3775,-10.4014,-10.3715,-10.3176,-10.3835,-10.3715,-10.3176,-10.3595,-10.3535,-10.3117,-11.4072,-11.4435,-11.4587,-11.4587,-11.4587,-11.4068,-11.2696,-11.4437,-11.5323,-11.3917,-11.5229,-11.566,-11.3917,-11.3199,-11.1761,-10.9344,-10.9858,-10.9363,-10.7225,-10.8104,-10.7153,-10.3646,-10.436,-10.2773,-9.8843,-9.9134,-9.7995,-9.5116,-9.6417,-9.7398,-9.8053,-9.5628,-9.5144,-9.6211,-9.5772,-9.5305,-9.4891,-9.4134,-9.366,-9.3456,-9.3102,-9.3122,-9.3421,-9.408,-9.4618,-9.5037,-9.5695,-9.6294,-9.6833,-9.7611,-9.8688,-9.9705,-10.0124,-10.0423,-10.0663,-10.0782,-10.1381,-10.168,-10.0902,-10.1082,-10.1474,-10.0782,-10.0603,-10.0543,-10.0782,-10.0364,-9.9885,-9.9885,-9.9346,-9.8808,-9.8568,-9.8508,-9.8508,-9.8508,-9.8329,-9.791,-9.7252,-9.9032,-9.9189,-9.6159,-9.8547,-9.9242,-9.6293,-9.6657,-9.6585,-9.5727,-9.6996,-9.8902,-10.1235,-10.1804,-10.2714,-10.3889,-10.2814,-10.2122,-10.186,-10.2279,-10.2518,-10.2518,-10.2518,-10.2518,-10.2518,-10.2518,-10.2937,-10.3715,-10.3535,-10.3655,-10.4074,-10.4613,-10.4433,-10.3835,-10.4493,-10.4373,-10.3835,-10.4194,-10.4134,-10.3775,-11.353,-11.3209,-11.263,-11.263,-11.263,-11.263,-11.263,-11.4512,-11.5831,-11.5831,-11.644,-11.6575,-11.5898,-11.644,-11.4879,-11.0005,-11.1461,-11.1765,-10.9528,-10.895,-10.8162,-10.7129,-10.6588,-10.4672,-10.1241,-10.3032,-10.1954,-9.7988,-9.8036,-9.8394,-9.9111,-9.8543,-9.8543,-9.9111,-9.9111,-9.9036,-9.881,-9.6714,-9.6212,-9.6528,-9.4476,-9.402,-9.4678,-9.5336,-9.5636,-9.5755,-9.6473,-9.7491,-9.8508,-9.8628,-9.9885,-10.1441,-10.1441,-10.192,-10.2279,-10.168,-10.1979,-10.2518,-10.2398,-10.1979,-10.168,-10.2279,-10.1501,-10.0782,-10.1381,-10.1082,-10.0603,-10.0603,-10.0004,-9.9346,-9.8688,-9.8568,-9.8508,-9.8448,-9.791,-9.734,-9.6858,-9.9458,-10.0607,-9.8113,-9.994,-10.0211,-9.7,-9.5541,-9.4199,-9.2823,-9.5175,-9.727,-9.857,-9.9207,-10.0504,-10.2592,-10.185,-10.18,-10.2518,-10.2518,-10.2518,-10.2518,-10.2518,-10.2518,-10.2518,-10.2518,-10.2518,-10.2698,-10.3236,-10.3535,-10.3655,-10.4912,-10.5091,-10.4493,-10.5211,-10.5091,-10.4493,-10.4493,-10.4493,-10.4493,-11.4274,-11.479,-11.496,-11.496,-11.496,-11.496,-11.496,-11.5538,-11.5831,-11.5831,-11.6034,-11.6034,-11.5831,-11.6034,-11.5599,-11.4295,-11.4736,-11.4068,-11.1779,-11.3116,-11.2114,-10.7916,-10.8805,-10.7687,-10.4036,-10.3946,-10.3004,-10.0859,-10.0384,-10.0999,-10.2599,-10.2606,-10.2606,-10.2599,-10.2599,-10.179,-10.0205,-9.8153,-9.7,-9.6528,-9.502,-9.4439,-9.4678,-9.5336,-9.5875,-9.6473,-9.767,-9.8269,-9.8688,-9.9705,-10.0663,-10.1441,-10.1441,-10.1561,-10.18,-10.2159,-10.2398,-10.2398,-10.186,-10.1979,-10.2159,-10.18,-10.186,-10.2099,-10.2219,-10.2099,-10.186,-10.1381,-10.0663,-10.0064,-9.9406,-9.8867,-9.8329,-9.785,-9.7611,-9.7631,-9.808,-9.888,-9.9186,-9.8487,-9.9022,-9.8714,-9.6799,-9.6345,-9.5576,-9.4259,-9.5677,-9.6807,-9.7109,-9.8651,-10.072,-10.3421,-10.2244,-10.18,-10.2518,-10.2518,-10.2518,-10.2518,-10.2518,-10.2518,-10.2518,-10.2518,-10.2997,-10.3954,-10.4134,-10.4493,-10.5032,-10.581,-10.581,-10.5211,-10.5929,-10.581,-10.5211,-10.575,-10.563,-10.5211,-11.4613,-11.5289,-11.5831,-11.5831,-11.5831,-11.5831,-11.5831,-11.5831,-11.5831,-11.5831,-11.5831,-11.5831,-11.5831,-11.5831,-11.5831,-11.5831,-11.5831,-11.5323,-11.4068,-11.5108,-11.42,-11.0661,-11.1732,-11.0436,-10.6065,-10.7182,-10.7251,-10.5664,-10.5014,-10.5193,-10.6326,-10.6326,-10.6326,-10.6326,-10.6326,-10.5691,-10.4538,-10.2126,-10.0818,-10.0266,-9.7559,-9.6463,-9.65,-9.6493,-9.7538,-9.9104,-10.02,-10.0931,-10.145,-10.218,-10.2182,-10.1979,-10.1979,-10.1979,-10.1979,-10.2398,-10.2279,-10.1979,-10.1979,-10.2219,-10.2398,-10.1979,-10.2219,-10.2518,-10.2518,-10.2518,-10.2279,-10.1561,-10.0962,-10.0304,-9.9645,-9.8688,-9.791,-9.7551,-9.7834,-9.823,-9.8693,-9.9243,-9.9442,-9.8756,-9.89,-9.8433,-9.6798,-9.6833,-9.6593,-9.5576,-9.6414,-9.7132,-9.7431,-9.9047,-10.0823,-10.2632,-10.224,-10.2099,-10.2518,-10.2518,-10.2518,-10.2518,-10.2518,-10.2518,-10.2518,-10.2817,-10.3296,-10.4014,-10.4613,-10.5091,-10.551,-10.6109,-10.6229,-10.5929,-10.6288,-10.6229,-10.5929,-10.6288,-10.6229,-10.5929,-11.4613,-11.5289,-11.5831,-11.5831,-11.5831,-11.5831,-11.5831,-11.5831,-11.5831,-11.5831,-11.5831,-11.5831,-11.5831,-11.5831,-11.5831,-11.5831,-11.5831,-11.5831,-11.5831,-11.5831,-11.5222,-11.3801,-11.4274,-11.2472,-10.8126,-11.072,-11.1568,-11.0283,-10.9809,-10.9403,-10.92,-10.9674,-10.9674,-10.9403,-10.9471,-10.9471,-10.9199,-10.636,-10.5233,-10.4801,-10.0588,-9.9086,-9.9417,-9.8479,-10.0027,-10.2552,-10.3363,-10.4423,-10.5271,-10.5396,-10.4361,-10.3019,-10.3019,-10.2679,-10.2398,-10.2458,-10.1979,-10.1561,-10.2279,-10.2518,-10.2518,-10.2518,-10.2518,-10.2518,-10.2518,-10.2518,-10.2279,-10.174,-10.1082,-10.0423,-9.9765,-9.8568,-9.7611,-9.7371,-9.8083,-9.8673,-9.8611,-9.9671,-10.0147,-9.8962,-9.9207,-9.8804,-9.7189,-9.7551,-9.767,-9.7072,-9.7611,-9.8209,-9.8808,-9.9945,-10.0962,-10.1561,-10.2159,-10.2518,-10.2518,-10.2518,-10.2518,-10.2518,-10.2518,-10.2518,-10.2698,-10.3176,-10.3535,-10.3835,-10.4912,-10.551,-10.563,-10.6169,-10.6408,-10.6408,-10.6408,-10.6408,-10.6408,-10.6408,-10.6408,-10.6408,-11.468,-11.5289,-11.5831,-11.5831,-11.5831,-11.5831,-11.5831,-11.5831,-11.5831,-11.5831,-11.5831,-11.5831,-11.5831,-11.5831,-11.5831,-11.5831,-11.5831,-11.5831,-11.5831,-11.5831,-11.5425,-11.4613,-11.4004,-11.3117,-11.1683,-11.1022,-11.0486,-11.0283,-11.0824,-11.0418,-10.9268,-11.1771,-11.1906,-11.0215,-11.0824,-11.0689,-10.9873,-10.7091,-10.5893,-10.5664,-10.1282,-10.1154,-10.2956,-10.1699,-10.2973,-10.5571,-10.691,-10.7548,-10.7803,-10.8292,-10.7013,-10.5329,-10.5329,-10.3579,-10.174,-10.2279,-10.1979,-10.1561,-10.2279,-10.2518,-10.2518,-10.2518,-10.2518,-10.2518,-10.2518,-10.2518,-10.2458,-10.2398,-10.18,-10.1082,-10.0483,-9.9226,-9.803,-9.6892,-9.7839,-9.8549,-9.7929,-9.8485,-9.9127,-9.9479,-9.8983,-9.8748,-9.8987,-9.9645,-9.9765,-9.9107,-9.9645,-10.0064,-10.0184,-10.0902,-10.168,-10.2279,-10.2398,-10.2518,-10.2518,-10.2518,-10.2518,-10.2518,-10.2518,-10.2817,-10.3296,-10.3416,-10.4014,-10.5151,-10.5331,-10.575,-10.6288,-10.6408,-10.6408,-10.6408,-10.6408,-10.6408,-10.6408,-10.6408,-10.6408,-10.6408,-11.468,-11.5289,-11.5831,-11.5831,-11.5831,-11.5831,-11.5831,-11.5831,-11.5831,-11.5831,-11.5831,-11.5831,-11.5831,-11.5831,-11.5831,-11.5831,-11.5831,-11.5831,-11.5831,-11.5831,-11.5492,-11.468,-11.4816,-11.441,-11.3666,-11.2177,-11.1501,-11.1501,-11.1771,-11.1365,-11.0418,-11.2583,-11.2786,-11.1501,-11.2312,-11.2177,-11.1363,-10.9708,-10.8677,-10.7984,-10.3733,-10.3451,-10.5391,-10.3328,-10.4915,-10.8587,-10.9629,-11.02,-11.059,-11.077,-10.9446,-10.7398,-10.6242,-10.4965,-10.3609,-10.2772,-10.2279,-10.2099,-10.2398,-10.2518,-10.2518,-10.2518,-10.2518,-10.2518,-10.2518,-10.2518,-10.2518,-10.2518,-10.1979,-10.1381,-10.1082,-9.9645,-9.8448,-9.8209,-9.8449,-9.8859,-9.921,-9.89,-9.9024,-10.0015,-9.9207,-9.8808,-9.9466,-10.0124,-10.0364,-10.0064,-10.0663,-10.0962,-10.0962,-10.168,-10.2159,-10.2518,-10.2518,-10.2518,-10.2518,-10.2518,-10.2518,-10.2518,-10.2817,-10.3117,-10.3416,-10.4134,-10.4852,-10.5451,-10.581,-10.6109,-10.6408,-10.6408,-10.6408,-10.6408,-10.6408,-10.6408,-10.6408,-10.6408,-10.6408,-10.6408,-11.468,-11.5289,-11.5831,-11.5831,-11.5831,-11.5831,-11.5831,-11.5831,-11.5831,-11.5831,-11.5831,-11.5831,-11.5831,-11.5831,-11.5831,-11.5831,-11.5831,-11.5831,-11.5831,-11.5831,-11.5492,-11.5019,-11.5289,-11.5222,-11.4477,-11.3192,-11.2448,-11.2448,-11.2448,-11.2177,-11.1703,-11.3192,-11.3463,-11.2786,-11.353,-11.3395,-11.2448,-11.1906,-11.123,-11.0206,-10.6365,-10.6201,-10.8094,-10.5624,-10.7554,-11.1524,-11.2187,-11.2851,-11.3305,-11.3305,-11.1844,-10.9611,-10.7912,-10.6618,-10.5507,-10.373,-10.2986,-10.2698,-10.2518,-10.2518,-10.2518,-10.2518,-10.2518,-10.2518,-10.2518,-10.2518,-10.2518,-10.2518,-10.2099,-10.168,-10.1501,-10.0124,-9.9047,-9.9226,-9.9243,-9.9229,-9.9647,-9.9308,-9.9352,-9.9992,-9.9461,-9.9226,-9.9885,-10.0603,-10.0962,-10.0962,-10.1381,-10.168,-10.168,-10.2219,-10.2518,-10.2518,-10.2518,-10.2518,-10.2518,-10.2518,-10.2578,-10.2698,-10.3176,-10.3595,-10.3895,-10.4912,-10.551,-10.569,-10.6229,-10.6408,-10.6408,-10.6408,-10.6408,-10.6408,-10.6408,-10.6408,-10.6408,-10.6408,-10.6408,-10.6408,-11.468,-11.5289,-11.5831,-11.5831,-11.5831,-11.5831,-11.5831,-11.5831,-11.5831,-11.5831,-11.5831,-11.5831,-11.5831,-11.5831,-11.5831,-11.5831,-11.5831,-11.5831,-11.5831,-11.5831,-11.5831,-11.5695,-11.5086,-11.441,-11.3733,-11.2921,-11.2448,-11.2448,-11.2448,-11.2448,-11.2518,-11.3869,-11.4207,-11.3598,-11.4274,-11.3801,-11.2448,-11.238,-11.1974,-11.1157,-10.8796,-10.963,-11.1886,-11.0426,-11.175,-11.4463,-11.5206,-11.5544,-11.5611,-11.5611,-11.4068,-11.216,-11.2147,-10.9177,-10.5863,-10.5623,-10.4461,-10.3236,-10.2698,-10.2518,-10.2518,-10.2518,-10.2518,-10.2518,-10.2518,-10.2518,-10.2518,-10.2518,-10.2458,-10.2219,-10.1561,-10.0842,-9.9945,-9.8808,-9.967,-9.9647,-9.7269,-9.8987,-10.0054,-9.8777,-9.9677,-10.0603,-10.1261,-10.1979,-10.2398,-10.2398,-10.2398,-10.2398,-10.2398,-10.2458,-10.2518,-10.2518,-10.2518,-10.2518,-10.2518,-10.2518,-10.2817,-10.3356,-10.3416,-10.4074,-10.5331,-10.5391,-10.575,-10.6348,-10.6408,-10.6408,-10.6408,-10.6408,-10.6408,-10.6408,-10.6408,-10.6408,-10.6408,-10.6408,-10.6408,-10.6528,-11.4004,-11.4613,-11.5086,-11.5086,-11.5492,-11.5831,-11.5831,-11.5831,-11.5831,-11.5831,-11.5831,-11.5831,-11.5831,-11.5831,-11.5831,-11.5831,-11.5831,-11.5831,-11.5831,-11.5831,-11.5831,-11.5831,-11.5492,-11.5289,-11.5019,-11.4207,-11.3869,-11.3869,-11.3869,-11.3598,-11.3192,-11.468,-11.5019,-11.4274,-11.5086,-11.4816,-11.3869,-11.3869,-11.3192,-11.19,-10.9674,-11.0243,-11.2302,-11.0936,-11.2183,-11.4816,-11.5492,-11.5831,-11.5831,-11.5831,-11.5182,-11.4295,-11.2929,-11.0414,-10.7374,-10.5009,-10.3928,-10.3416,-10.3595,-10.3715,-10.3595,-10.3176,-10.3117,-10.2997,-10.2578,-10.2518,-10.2518,-10.2518,-10.2518,-10.2398,-10.2159,-10.1561,-10.0962,-10.0423,-9.9768,-9.9251,-9.9108,-9.9166,-9.9433,-9.9677,-10.0543,-10.1201,-10.1441,-10.2099,-10.2518,-10.2518,-10.2518,-10.2518,-10.2518,-10.2518,-10.2518,-10.2518,-10.2518,-10.2518,-10.2518,-10.2877,-10.3176,-10.3416,-10.4254,-10.4912,-10.5451,-10.581,-10.6169,-10.6408,-10.6408,-10.6408,-10.6408,-10.6408,-10.6408,-10.6408,-10.6408,-10.6408,-10.6408,-10.6408,-10.6408,-10.6408,-11.326,-11.4004,-11.468,-11.468,-11.5289,-11.5831,-11.5831,-11.5831,-11.5831,-11.5831,-11.5831,-11.5831,-11.5831,-11.5831,-11.5831,-11.5831,-11.5831,-11.5831,-11.5831,-11.5831,-11.5831,-11.5831,-11.5831,-11.5831,-11.5831,-11.5086,-11.468,-11.468,-11.4477,-11.4207,-11.4004,-11.5019,-11.5222,-11.468,-11.5492,-11.5289,-11.441,-11.4613,-11.4004,-11.2715,-11.1205,-11.1699,-11.3049,-11.2073,-11.3039,-11.5086,-11.5628,-11.5831,-11.5831,-11.5831,-11.5831,-11.547,-11.3992,-11.1592,-10.8696,-10.4761,-10.3895,-10.4194,-10.4852,-10.5546,-10.5719,-10.4084,-10.4042,-10.4268,-10.3005,-10.2638,-10.2518,-10.2518,-10.2518,-10.2518,-10.2518,-10.2099,-10.168,-10.1501,-10.0304,-9.9705,-10.0364,-9.9705,-9.9526,-10.0663,-10.1201,-10.1561,-10.18,-10.2219,-10.2518,-10.2518,-10.2518,-10.2518,-10.2518,-10.2518,-10.2578,-10.2817,-10.2817,-10.2817,-10.2817,-10.3236,-10.3535,-10.3715,-10.4912,-10.551,-10.575,-10.6229,-10.6408,-10.6408,-10.6408,-10.6408,-10.6408,-10.6408,-10.6408,-10.6408,-10.6408,-10.6408,-10.6408,-10.6408,-10.6408,-10.6408,-11.2448,-11.3666,-11.468,-11.468,-11.5289,-11.5831,-11.5831,-11.5831,-11.5831,-11.5831,-11.5831,-11.5831,-11.5831,-11.5831,-11.5831,-11.5831,-11.5831,-11.5831,-11.5831,-11.5831,-11.5831,-11.5831,-11.5831,-11.5831,-11.5831,-11.5086,-11.468,-11.468,-11.4004,-11.4004,-11.468,-11.468,-11.468,-11.468,-11.5492,-11.5019,-11.3666,-11.441,-11.4274,-11.3598,-11.3598,-11.4004,-11.468,-11.468,-11.5222,-11.5831,-11.5831,-11.5831,-11.5831,-11.5831,-11.5831,-11.5831,-11.5831,-11.3158,-10.9309,-10.5489,-10.4912,-10.557,-10.6169,-10.8148,-10.9121,-10.534,-10.5681,-10.6316,-10.4015,-10.2937,-10.2458,-10.2518,-10.2518,-10.2518,-10.2518,-10.2518,-10.2279,-10.1561,-10.1441,-10.1261,-10.0603,-10.0483,-10.0782,-10.1381,-10.1501,-10.174,-10.2398,-10.2518,-10.2518,-10.2518,-10.2518,-10.2518,-10.2518,-10.2518,-10.2817,-10.3416,-10.3416,-10.3416,-10.3416,-10.3416,-10.3715,-10.4433,-10.5091,-10.581,-10.6408,-10.6408,-10.6408,-10.6408,-10.6408,-10.6408,-10.6408,-10.6408,-10.6408,-10.6408,-10.6408,-10.6408,-10.6408,-10.6408,-10.6408,-10.6528,-11.238,-11.326,-11.3936,-11.3936,-11.5019,-11.5831,-11.5831,-11.5831,-11.5831,-11.5831,-11.5831,-11.5831,-11.5831,-11.5831,-11.5831,-11.5831,-11.5831,-11.5831,-11.5831,-11.5831,-11.5831,-11.5831,-11.5831,-11.5831,-11.5831,-11.5628,-11.5492,-11.5492,-11.5289,-11.5289,-11.5492,-11.5492,-11.5492,-11.5492,-11.5695,-11.5628,-11.5222,-11.5425,-11.5019,-11.441,-11.441,-11.4477,-11.468,-11.468,-11.5222,-11.5831,-11.5831,-11.5831,-11.5898,-11.644,-11.6237,-11.5538,-11.4593,-11.1984,-10.9227,-10.7913,-10.7367,-10.7367,-10.8533,-11.1668,-11.3576,-10.8776,-10.8689,-10.9146,-10.6529,-10.5281,-10.4399,-10.2832,-10.2518,-10.2518,-10.2518,-10.2518,-10.2279,-10.1561,-10.1441,-10.1381,-10.1201,-10.1201,-10.1441,-10.2099,-10.2159,-10.2279,-10.2458,-10.2518,-10.2518,-10.2518,-10.2518,-10.2518,-10.2518,-10.2518,-10.2817,-10.3416,-10.2997,-10.2997,-10.3416,-10.4313,-10.4732,-10.4433,-10.557,-10.6229,-10.6408,-10.6408,-10.6408,-10.6408,-10.6408,-10.6408,-10.6408,-10.6408,-10.6408,-10.6408,-10.6408,-10.6408,-10.6408,-10.6408,-10.6408,-10.6408,-11.2718,-11.3327,-11.3733,-11.4004,-11.5019,-11.5831,-11.5831,-11.5831,-11.5831,-11.5831,-11.5831,-11.5831,-11.5831,-11.5831,-11.5831,-11.5831,-11.5831,-11.5831,-11.5831,-11.5831,-11.5831,-11.5831,-11.5831,-11.5831,-11.5831,-11.5831,-11.5831,-11.5831,-11.5831,-11.5831,-11.5831,-11.5831,-11.5831,-11.5831,-11.5831,-11.5831,-11.5831,-11.5831,-11.5492,-11.5086,-11.5086,-11.5086,-11.5086,-11.5086,-11.5425,-11.5831,-11.5831,-11.6034,-11.6304,-11.671,-11.6778,-11.6273,-11.4299,-11.2521,-11.0972,-10.9699,-10.9337,-10.9249,-11.019,-11.3296,-11.5579,-11.2441,-11.2334,-11.2307,-10.9699,-10.7654,-10.6146,-10.5671,-10.3912,-10.2739,-10.3638,-10.3051,-10.2398,-10.1979,-10.186,-10.186,-10.186,-10.2573,-10.303,-10.2552,-10.3237,-10.3514,-10.2612,-10.2518,-10.2518,-10.2518,-10.2518,-10.2518,-10.2518,-10.2518,-10.2817,-10.3416,-10.3057,-10.2997,-10.3416,-10.4732,-10.5091,-10.4433,-10.581,-10.6408,-10.6408,-10.6408,-10.6408,-10.6408,-10.6408,-10.6408,-10.6408,-10.6408,-10.6408,-10.6408,-10.6408,-10.6408,-10.6408,-10.6408,-10.6408,-10.6408,-11.3192,-11.3598,-11.3936,-11.4613,-11.5289,-11.5831,-11.5831,-11.5831,-11.5831,-11.5831,-11.5831,-11.5831,-11.5831,-11.5831,-11.5831,-11.5831,-11.5831,-11.5831,-11.5831,-11.5831,-11.5831,-11.5831,-11.5831,-11.5831,-11.5831,-11.5831,-11.5831,-11.5831,-11.5831,-11.5831,-11.5831,-11.5831,-11.5831,-11.5831,-11.5831,-11.5831,-11.5831,-11.5831,-11.5831,-11.5831,-11.5831,-11.5831,-11.5831,-11.5831,-11.5831,-11.5898,-11.5831,-11.6304,-11.6913,-11.6913,-11.7522,-11.7697,-11.4997,-11.4279,-11.4117,-11.1423,-11.0946,-11.1395,-11.1395,-11.3582,-11.5877,-11.5877,-11.6023,-11.5461,-11.3249,-11.0023,-10.7969,-10.9864,-10.6536,-10.373,-10.5712,-10.4309,-10.2832,-10.2832,-10.2552,-10.2612,-10.2739,-10.449,-10.5122,-10.2959,-10.4581,-10.4881,-10.2739,-10.2518,-10.2518,-10.2518,-10.2518,-10.2518,-10.2518,-10.2518,-10.2817,-10.3416,-10.3356,-10.3416,-10.3535,-10.4732,-10.5032,-10.4433,-10.581,-10.6408,-10.6408,-10.6408,-10.6408,-10.6408,-10.6408,-10.6408,-10.6408,-10.6408,-10.6408,-10.6408,-10.6408,-10.6408,-10.6408,-10.6408,-10.6408,-10.6408,-11.2651,-11.3666,-11.4477,-11.468,-11.5289,-11.5831,-11.5831,-11.5831,-11.5831,-11.5831,-11.5831,-11.5831,-11.5831,-11.5831,-11.5831,-11.5831,-11.5831,-11.5831,-11.5831,-11.5831,-11.5831,-11.5831,-11.5831,-11.5831,-11.5831,-11.5831,-11.5831,-11.5831,-11.5831,-11.5831,-11.5831,-11.5831,-11.5831,-11.5831,-11.5831,-11.5831,-11.5831,-11.5831,-11.5831,-11.5831,-11.5831,-11.5831,-11.5831,-11.5831,-11.6237,-11.6575,-11.6034,-11.6304,-11.6913,-11.6913,-11.7793,-11.88,-11.8146,-11.6527,-11.4634,-11.4546,-11.4188,-11.3941,-11.3926,-11.5716,-11.759,-11.759,-11.7994,-11.7937,-11.5541,-11.3617,-11.1777,-11.0601,-10.8866,-10.7763,-10.8273,-10.6593,-10.506,-10.506,-10.3638,-10.3051,-10.479,-10.5507,-10.5623,-10.515,-10.5446,-10.4881,-10.2739,-10.2518,-10.2518,-10.2518,-10.2518,-10.2518,-10.2518,-10.2518,-10.2817,-10.3416,-10.2937,-10.3176,-10.4194,-10.4493,-10.4493,-10.4433,-10.581,-10.6408,-10.6408,-10.6408,-10.6408,-10.6408,-10.6408,-10.6408,-10.6408,-10.6408,-10.6408,-10.6408,-10.6408,-10.6408,-10.6408,-10.6408,-10.6408,-10.6408,-11.3936,-11.441,-11.4816,-11.5222,-11.5492,-11.5831,-11.5831,-11.5831,-11.5831,-11.5831,-11.5831,-11.5831,-11.5831,-11.5831,-11.5831,-11.5831,-11.5831,-11.5831,-11.5831,-11.5831,-11.5831,-11.5831,-11.5831,-11.5831,-11.5831,-11.5831,-11.5831,-11.5831,-11.5831,-11.5831,-11.5831,-11.5831,-11.5831,-11.5831,-11.5831,-11.5831,-11.5831,-11.5831,-11.5831,-11.5831,-11.5831,-11.5831,-11.5831,-11.6237,-11.6575,-11.6913,-11.6913,-11.7387,-11.8063,-11.8402,-11.9078,-11.9687,-11.9281,-11.7927,-11.6271,-11.6338,-11.5804,-11.5203,-11.5203,-11.6296,-11.7522,-11.7522,-11.8131,-11.8515,-11.7649,-11.6035,-11.4516,-11.4108,-11.1695,-10.9895,-11.0641,-10.8863,-10.7398,-10.7398,-10.6355,-10.6066,-10.7225,-10.8337,-10.8252,-10.6066,-10.6705,-10.6443,-10.4309,-10.3446,-10.3346,-10.4491,-10.3774,-10.3296,-10.2937,-10.2937,-10.2937,-10.2997,-10.2698,-10.2997,-10.3895,-10.4194,-10.4613,-10.4912,-10.5929,-10.6408,-10.6408,-10.6408,-10.6408,-10.6408,-10.6408,-10.6408,-10.6408,-10.6408,-10.6408,-10.6408,-10.6408,-10.6408,-10.6408,-10.6408,-10.6408,-10.6408,-11.5425,-11.5222,-11.5086,-11.5695,-11.5831,-11.5831,-11.5831,-11.5831,-11.5831,-11.5831,-11.5831,-11.5831,-11.5831,-11.5831,-11.5898,-11.6034,-11.6034,-11.6034,-11.6034,-11.6034,-11.5898,-11.5831,-11.5831,-11.5831,-11.5831,-11.5831,-11.5831,-11.5831,-11.5831,-11.5831,-11.5831,-11.5831,-11.5831,-11.5831,-11.5831,-11.5831,-11.5831,-11.5831,-11.5831,-11.5831,-11.5831,-11.5898,-11.6101,-11.671,-11.7116,-11.7387,-11.7928,-11.8605,-11.9281,-11.989,-12.0161,-12.0161,-11.9552,-11.9011,-11.8266,-11.7387,-11.671,-11.6101,-11.5898,-11.6237,-11.671,-11.671,-11.7319,-11.8063,-11.8672,-11.7314,-11.6416,-11.8035,-11.4516,-11.168,-11.3038,-11.1286,-10.9694,-10.9694,-10.9363,-10.9133,-10.9611,-11.1301,-11.1045,-10.6941,-10.7592,-10.7741,-10.5507,-10.4705,-10.5132,-10.6703,-10.5743,-10.4906,-10.4015,-10.3895,-10.3467,-10.2518,-10.2518,-10.2817,-10.3595,-10.4454,-10.527,-10.563,-10.6496,-10.6737,-10.6408,-10.6408,-10.6408,-10.6408,-10.6408,-10.6408,-10.6408,-10.6408,-10.6408,-10.6408,-10.6408,-10.6408,-10.6408,-10.6408,-10.6348,-10.6229,-11.4816,-11.5289,-11.5695,-11.5831,-11.5831,-11.5831,-11.5831,-11.5831,-11.5831,-11.5831,-11.5831,-11.5831,-11.5831,-11.5831,-11.6101,-11.671,-11.6778,-11.6778,-11.6778,-11.6778,-11.6507,-11.5831,-11.5831,-11.5831,-11.5831,-11.5831,-11.5831,-11.5831,-11.5831,-11.5831,-11.5831,-11.5831,-11.5831,-11.5831,-11.5831,-11.5831,-11.5831,-11.5831,-11.5831,-11.5831,-11.5831,-11.6237,-11.6778,-11.6913,-11.7725,-11.8808,-11.8266,-11.8605,-11.9214,-11.9281,-11.9755,-12.0296,-12.0161,-12.0093,-11.9687,-11.8334,-11.7928,-11.7522,-11.6237,-11.5898,-11.5898,-11.5898,-11.6507,-11.7116,-11.7184,-11.6962,-11.7225,-11.8665,-11.6873,-11.5296,-11.6199,-11.401,-11.2003,-11.2003,-11.0414,-10.9776,-11.1765,-11.2317,-11.1461,-10.8946,-10.7162,-10.5418,-10.3205,-10.6216,-10.7885,-10.706,-10.7878,-10.7901,-10.6524,-10.585,-10.4612,-10.2612,-10.2518,-10.3057,-10.4254,-10.6354,-10.7026,-10.6288,-10.837,-10.8431,-10.6408,-10.6408,-10.6408,-10.6408,-10.6408,-10.6408,-10.6408,-10.6408,-10.6408,-10.6408,-10.6408,-10.6408,-10.6408,-10.6408,-10.6049,-10.563,-11.5289,-11.5628,-11.5831,-11.5831,-11.5831,-11.5831,-11.5831,-11.5831,-11.5831,-11.5831,-11.5831,-11.5831,-11.5831,-11.5831,-11.5898,-11.6304,-11.6304,-11.6304,-11.6304,-11.6304,-11.6101,-11.5831,-11.5831,-11.5831,-11.5831,-11.5831,-11.5831,-11.5831,-11.5831,-11.5831,-11.5831,-11.5831,-11.5831,-11.5831,-11.5831,-11.5831,-11.5831,-11.5831,-11.5831,-11.5831,-11.5831,-11.6237,-11.6913,-11.7387,-11.8199,-11.9214,-11.9281,-11.9484,-11.9755,-11.9755,-11.9958,-12.0296,-12.0296,-11.9687,-11.8875,-11.8266,-11.7522,-11.671,-11.6034,-11.5831,-11.5831,-11.5831,-11.6034,-11.644,-11.6778,-11.6575,-11.6643,-11.7725,-11.7116,-11.644,-11.6304,-11.5161,-11.4295,-11.4295,-11.3469,-11.3238,-11.4219,-11.4295,-11.3469,-11.1367,-10.903,-10.7827,-10.8146,-10.8993,-10.9901,-11.0473,-11.0349,-10.9758,-10.8751,-10.7192,-10.5699,-10.4399,-10.3144,-10.3117,-10.4373,-10.545,-10.6116,-10.6408,-10.7447,-10.7351,-10.6408,-10.6408,-10.6408,-10.6408,-10.6408,-10.6408,-10.6408,-10.6408,-10.6408,-10.6408,-10.6408,-10.6408,-10.6408,-10.5989,-10.569,-10.5451]},{"header":{"parameterUnit":"m.s-1","parameterCategory":1,"la1":30.6,"la2":28.766,"lo1":-90.7593,"lo2":-88.6598,"dy":0.0162,"dx":0.0183,"nx":116,"ny":114,"refTime":"2024-03-25T12:00:00:Z","depth":0,"parameterNumber":3,"parameterNumberName":"V-component_of_WINDS"},"data":[0.0,0.0,0.0,0.0,0.0,0.0,0.0,0.0,0.0,0.0,0.0,0.0,0.0,0.0,0.0,0.0,0.0,0.0,0.0,0.0,0.0,0.0,0.0,0.0,0.0,0.0,0.0,0.0,0.0,0.0,0.0,0.0,0.0,0.0,0.0,0.0,0.0,0.0,0.0,0.0,0.0,0.0,0.0,0.0,0.0,0.0,0.0,0.0,0.0,0.0,0.0,0.0,0.0,0.0,0.0,0.0,0.0,0.0,0.0,0.0,0.0,0.0,0.0,0.0,0.0,0.0,0.0,0.0,0.0,0.0,0.0,0.0,0.0,0.0,0.0,0.0,0.0,0.0,0.0,0.0,0.0,0.0,0.0,0.0,0.0,0.0,0.0,0.0,0.0,0.0,0.0,0.0,0.0,0.0,0.0,0.0,0.0,0.0,0.0,0.0,0.0,0.0,0.0,0.0,0.0,0.0,0.0,0.0,0.0,0.0,0.0,0.0,0.0,0.0,0.0,0.0,0.0,0.0,0.0,0.0,0.0,0.0,0.0,0.0,0.0,0.0,0.0,0.0,0.0,0.0,0.0,0.0,0.0,0.0,0.0,0.0,0.0,0.0,0.0,0.0,0.0,0.0,0.0,0.0,0.0,0.0,0.0,0.0,0.0,0.0,0.0,0.0,0.0,0.0,0.0,0.0,0.0,0.0,0.0,0.0,0.0,0.0,0.0,0.0,0.0,0.0,0.0,0.0,0.0,0.0,0.0,0.0,0.0,0.0,0.0,0.0,0.0,0.0,0.0,0.0,0.0,0.0,0.0,0.0,0.0,0.0,0.0,0.0,0.0,0.0,0.0,0.0,0.0,0.0,0.0,0.0,0.0,0.0,0.0,0.0,0.0,0.0,0.0,0.0,0.0,0.0,0.0,0.0,0.0,0.0,0.0,0.0,0.0,0.0,0.0,0.0,0.0,0.0,0.0,0.0,0.0,0.0,0.0,0.0,0.0,0.0,0.0,0.0,0.0,0.0,0.0,0.0,0.0,0.0,0.0,0.0,0.0,0.0,0.0,0.0,0.0,0.0,0.0,0.0,0.0,0.0,0.0,0.0,0.0,0.0,0.0,0.0,0.0,0.0,0.0,0.0,0.0,0.0,0.0,0.0,0.0,0.0,0.0,0.0,0.0,0.0,0.0,0.0,0.0,0.0,0.0,0.0,0.0,0.0,0.0,0.0,0.0,0.0,0.0,0.0,0.0,0.0,0.0,0.0,0.0,0.0,0.0,0.0,0.0,0.0,0.0,0.0,0.0,0.0,0.0,0.0,0.0,0.0,0.0,0.0,0.0,0.0,0.0,0.0,0.0,0.0,0.0,0.0,0.0,0.0,0.0,0.0,0.0,0.0,0.0,0.0,0.0,0.0,0.0,0.0,0.0,0.0,0.0,0.0,0.0,0.0,0.0,0.0,0.0,0.0,0.0,0.0,0.0,0.0,0.0,0.0,0.0,0.0,0.0,0.0,0.0,0.0,0.0,0.0,0.0,0.0,0.0,0.0,0.0,0.0,0.0,0.0,0.0,0.0,0.0,0.0,0.0,0.0,0.0,0.0,0.0,0.0,0.0,0.0,0.0,0.0,0.0,0.0,0.0,0.0,0.0,0.0,0.0,0.0,0.0,0.0,0.0,0.0,0.0,0.0,0.0,0.0,0.0,0.0,0.0,0.0,0.0,0.0,0.0,0.0,0.0,0.0,0.0,0.0,0.0,0.0,0.0,0.0,0.0,0.0,0.0,0.0,0.0,0.0,0.0,0.0,0.0,0.0,0.0,0.0,0.0,0.0,0.0,0.0,0.0,0.0,0.0,0.0,0.0,0.0,0.0,0.0,0.0,0.0,0.0,0.0,0.0,0.0,0.0,0.0,0.0,0.0,0.0,0.0,0.0,0.0,0.0,0.0,0.0,0.0,0.0,0.0,0.0,0.0,0.0,0.0,0.0,0.0,0.0,0.0,0.0,0.0,0.0,0.0,0.0,0.0,0.0,0.0,0.0,0.0,0.0,0.0,0.0,0.0,0.0,0.0,0.0,0.0,0.0,0.0,0.0,0.0,0.0,0.0,0.0,0.0,0.0,0.0,0.0,0.0,0.0,0.0,0.0,0.0,0.0,0.0,0.0,0.0,0.0,0.0,0.0,0.0,0.0,0.0,0.0,0.0,0.0,0.0,0.0,0.0,0.0,0.0,0.0,0.0,0.0,0.0,0.0,0.0,0.0,0.0,0.0,0.0,0.0,0.0,0.0,0.0,0.0,0.0,0.0,0.0,0.0,0.0,0.0,0.0,0.0,0.0,0.0,0.0,0.0,0.0,0.0,0.0,0.0,0.0,0.0,0.0,0.0,0.0,0.0,0.0,0.0,0.0,0.0,0.0,0.0,0.0,0.0,0.0,0.0,0.0,0.0,0.0,0.0,0.0,0.0,0.0,0.0,0.0,0.0,0.0,0.0,0.0,0.0,0.0,0.0,0.0,0.0,0.0,0.0,0.0,0.0,0.0,0.0,0.0,0.0,0.0,0.0,0.0,0.0,0.0,0.0,0.0,0.0,0.0,0.0,0.0,0.0,0.0,0.0,0.0,0.0,0.0,0.0,0.0,0.0,0.0,0.0,0.0,0.0,0.0,0.0,0.0,0.0,0.0,0.0,0.0,0.0,0.0,0.0,0.0,0.0,0.0,0.0,0.0,0.0,0.0,0.0,0.0,0.0,0.0,0.0,0.0,0.0,0.0,0.0,0.0,0.0,0.0,0.0,0.0,0.0,0.0,0.0,0.0,0.0,0.0,0.0,0.0,0.0,0.0,0.0,0.0,0.0,0.0,0.0,0.0,0.0,0.0,0.0,0.0,0.0,0.0,0.0,0.0,0.0,0.0,0.0,0.0,0.0,0.0,0.0,0.0,0.0,0.0,0.0,0.0,0.0,0.0,0.0,0.0,0.0,0.0,0.0,0.0,0.0,0.0,0.0,0.0,0.0,0.0,0.0,0.0,0.0,0.0,0.0,0.0,0.0,0.0,0.0,0.0,0.0,0.0,0.0,0.0,0.0,0.0,0.0,0.0,0.0,0.0,0.0,0.0,0.0,0.0,0.0,0.0,0.0,0.0,0.0,0.0,0.0,0.0,0.0,0.0,0.0,0.0,0.0,0.0,0.0,0.0,0.0,0.0,0.0,0.0,0.0,0.0,0.0,0.0,0.0,0.0,0.0,0.0,0.0,0.0,0.0,0.0,0.0,0.0,0.0,0.0,0.0,0.0,0.0,0.0,0.0,0.0,0.0,0.0,0.0,0.0,0.0,0.0,0.0,0.0,0.0,0.0,0.0,0.0,0.0,0.0,0.0,0.0,0.0,0.0,0.0,0.0,0.0,0.0,0.0,0.0,0.0,0.0,0.0,0.0,0.0,0.0,0.0,0.0,0.0,0.0,0.0,0.0,0.0,0.0,0.0,0.0,0.0,0.0,0.0,0.0,0.0,0.0,0.0,0.0,0.0,0.0,0.0,0.0,0.0,0.0,0.0,0.0,0.0,0.0,0.0,0.0,0.0,0.0,0.0,0.0,0.0,0.0,0.0,0.0,0.0,0.0,0.0,0.0,0.0,0.0,0.0,0.0,0.0,0.0,0.0,0.0,0.0,0.0,0.0,0.0,0.0,0.0,0.0,0.0,0.0,0.0,0.0,0.0,0.0,0.0,0.0,0.0,0.0,0.0,0.0,0.0,0.0,0.0,0.0,0.0,0.0,0.0,0.0,0.0,0.0,0.0,0.0,0.0,0.0,0.0,0.0,0.0,0.0,0.0,0.0,0.0,0.0,0.0,0.0,0.0,0.0,0.0,0.0,0.0,0.0,0.0,0.0,0.0,0.0,0.0,0.0,0.0,0.0,0.0,0.0,0.0,0.0,0.0,0.0,0.0,0.0,0.0,0.0,0.0,0.0,0.0,0.0,0.0,0.0,0.0,0.0,0.0,0.0,0.0,0.0,0.0,0.0,0.0,0.0,0.0,0.0,0.0,0.0,0.0,0.0,0.0,0.0,0.0,0.0,0.0,0.0,0.0,0.0,0.0,0.0,0.0,0.0,0.0,0.0,0.0,0.0,0.0,0.0,0.0,0.0,0.0,0.0,0.0,0.0,0.0,0.0,0.0,0.0,0.0,0.0,0.0,0.0,0.0,0.0,0.0,0.0,0.0,0.0,0.0,0.0,0.0,0.0,0.0,0.0,0.0,0.0,0.0,0.0,0.0,0.0,0.0,0.0,0.0,0.0,0.0,0.0,0.0,0.0,0.0,0.0,0.0,0.0,0.0,0.0,0.0,0.0,0.0,0.0,0.0,0.0,0.0,0.0,0.0,0.0,0.0,0.0,0.0,0.0,0.0,0.0,0.0,0.0,0.0,0.0,0.0,0.0,0.0,0.0,0.0,0.0,0.0,0.0,0.0,0.0,0.0,0.0,0.0,0.0,0.0,0.0,0.0,0.0,0.0,0.0,0.0,0.0,0.0,0.0,0.0,0.0,0.0,0.0,0.0,0.0,0.0,0.0,0.0,0.0,0.0,0.0,0.0,0.0,0.0,0.0,0.0,0.0,0.0,0.0,0.0,0.0,0.0,0.0,0.0,0.0,0.0,0.0,0.0,0.0,0.0,0.0,0.0,0.0,0.0,0.0,0.0,0.0,0.0,0.0,0.0,0.0,0.0,0.0,0.0,0.0,0.0,0.0,0.0,0.0,0.0,0.0,0.0,0.0,0.0,0.0,0.0,0.0,0.0,0.0,0.0,0.0,0.0,0.0,0.0,0.0,0.0,0.0,0.0,0.0,0.0,0.0,0.0,0.0,0.0,0.0,0.0,0.0,0.0,0.0,0.0,0.0,0.0,0.0,0.0,0.0,0.0,0.0,0.0,0.0,0.0,0.0,0.0,0.0,0.0,0.0,0.0,0.0,0.0,0.0,0.0,0.0,0.0,0.0,0.0,0.0,0.0,0.0,0.0,0.0,0.0,0.0,0.0,0.0,0.0,0.0,0.0,0.0,0.0,0.0,0.0,0.0,0.0,0.0,0.0,0.0,0.0,0.0,0.0,0.0,0.0,0.0,0.0,0.0,0.0,0.0,0.0,0.0,0.0,0.0,0.0,0.0,0.0,0.0,0.0,0.0,0.0,0.0,0.0,0.0,0.0,0.0,0.0,0.0,0.0,0.0,0.0,0.0,0.0,0.0,0.0,0.0,0.0,0.0,0.0,0.0,0.0,0.0,0.0,0.0,0.0,0.0,0.0,0.0,0.0,0.0,0.0,0.0,0.0,0.0,0.0,0.0,0.0,0.0,0.0,0.0,0.0,0.0,0.0,0.0,0.0,0.0,0.0,0.0,0.0,0.0,0.0,0.0,0.0,0.0,0.0,0.0,0.0,0.0,0.0,0.0,0.0,0.0,0.0,0.0,0.0,0.0,0.0,0.0,0.0,0.0,0.0,0.0,0.0,0.0,0.0,0.0,0.0,0.0,0.0,0.0,0.0,0.0,0.0,0.0,0.0,0.0,0.0,0.0,0.0,0.0,0.0,0.0,0.0,0.0,0.0,0.0,0.0,0.0,0.0,0.0,0.0,0.0,0.0,0.0,0.0,0.0,0.0,0.0,0.0,0.0,0.0,0.0,0.0,0.0,0.0,0.0,0.0,0.0,0.0,0.0,0.0,0.0,0.0,0.0,0.0,0.0,0.0,0.0,0.0,0.0,0.0,0.0,0.0,0.0,0.0,0.0,0.0,0.0,0.0,0.0,0.0,0.0,0.0,0.0,0.0,0.0,0.0,0.0,0.0,0.0,0.0,0.0,0.0,0.0,0.0,0.0,0.0,0.0,0.0,0.0,0.0,0.0,0.0,0.0,0.0,0.0,0.0,0.0,0.0,0.0,0.0,0.0,0.0,0.0,0.0,0.0,0.0,0.0,0.0,0.0,0.0,0.0,0.0,0.0,0.0,0.0,0.0,0.0,0.0,0.0,0.0,0.0,0.0,0.0,0.0,0.0,0.0,0.0,0.0,0.0,0.0,0.0,0.0,0.0,0.0,0.0,0.0,0.0,0.0,0.0,0.0,9.1027,9.1446,0.0,0.0,0.0,0.0,0.0,0.0,0.0,0.0,0.0,0.0,0.0,0.0,0.0,0.0,0.0,0.0,0.0,0.0,0.0,0.0,0.0,0.0,0.0,0.0,0.0,0.0,7.603,7.603,7.603,7.603,0.0,0.0,0.0,0.0,0.0,0.0,7.6821,7.8251,7.8154,7.9206,8.1204,8.1201,7.9881,7.7737,0.0,0.0,0.0,0.0,0.0,0.0,0.0,0.0,0.0,0.0,0.0,0.0,0.0,0.0,0.0,0.0,0.0,0.0,0.0,0.0,0.0,0.0,0.0,0.0,0.0,0.0,0.0,0.0,0.0,0.0,0.0,0.0,0.0,0.0,0.0,0.0,0.0,0.0,0.0,0.0,0.0,0.0,0.0,0.0,0.0,0.0,0.0,0.0,0.0,0.0,0.0,0.0,0.0,0.0,0.0,0.0,0.0,0.0,0.0,0.0,0.0,0.0,0.0,0.0,0.0,0.0,0.0,0.0,0.0,0.0,9.1746,9.1267,0.0,0.0,0.0,0.0,0.0,0.0,0.0,0.0,0.0,0.0,0.0,0.0,0.0,0.0,0.0,0.0,0.0,0.0,0.0,0.0,0.0,0.0,0.0,7.603,7.603,7.603,7.603,7.603,7.603,7.603,7.603,7.603,7.603,7.603,7.603,7.603,7.7205,7.9445,7.9509,8.0388,8.1897,8.3598,8.2023,7.7817,7.8694,0.0,0.0,0.0,0.0,0.0,0.0,0.0,0.0,0.0,0.0,0.0,0.0,0.0,0.0,0.0,0.0,0.0,0.0,0.0,0.0,0.0,0.0,0.0,0.0,0.0,0.0,0.0,0.0,0.0,0.0,0.0,0.0,0.0,0.0,0.0,0.0,0.0,0.0,0.0,0.0,0.0,0.0,0.0,0.0,0.0,0.0,0.0,0.0,0.0,0.0,0.0,0.0,0.0,0.0,0.0,0.0,0.0,0.0,0.0,0.0,0.0,0.0,0.0,9.2524,9.3421,9.4618,9.39,9.396,9.4499,9.3126,9.1849,9.1027,9.2443,0.0,0.0,0.0,0.0,0.0,0.0,0.0,0.0,0.0,0.0,0.0,0.0,0.0,0.0,0.0,0.0,0.0,0.0,0.0,7.5427,7.5979,7.603,7.603,7.603,7.603,7.603,7.603,7.603,7.603,7.603,7.603,7.603,7.603,7.603,7.7,7.8771,8.1694,8.2555,8.147,8.4319,8.4217,8.1663,8.1191,7.9318,7.6281,0.0,0.0,0.0,0.0,0.0,0.0,0.0,0.0,0.0,0.0,0.0,0.0,0.0,0.0,0.0,0.0,0.0,0.0,0.0,0.0,0.0,0.0,0.0,0.0,0.0,0.0,0.0,0.0,0.0,0.0,0.0,0.0,0.0,0.0,0.0,0.0,0.0,0.0,0.0,0.0,0.0,8.7068,8.7929,0.0,0.0,0.0,0.0,0.0,0.0,0.0,0.0,0.0,0.0,0.0,0.0,0.0,9.1626,9.2105,9.2224,9.2643,9.3302,9.3421,9.384,9.4618,9.39,9.396,9.4645,9.5668,0.0,9.5871,9.7844,0.0,0.0,0.0,0.0,0.0,0.0,0.0,0.0,0.0,0.0,0.0,0.0,0.0,0.0,0.0,0.0,0.0,0.0,0.0,0.0,0.0,7.5778,7.5578,7.5578,7.5025,7.4925,7.5527,7.5327,7.5427,7.603,7.603,7.603,7.603,7.6286,7.7389,7.947,8.343,8.4702,8.3332,8.5779,8.5609,8.3328,8.3394,8.1793,7.891,7.6823,0.0,0.0,0.0,0.0,0.0,0.0,0.0,0.0,0.0,0.0,0.0,0.0,0.0,0.0,0.0,0.0,0.0,0.0,0.0,0.0,0.0,0.0,0.0,0.0,0.0,0.0,0.0,0.0,0.0,0.0,0.0,0.0,0.0,0.0,0.0,0.0,0.0,0.0,0.0,8.8575,8.9591,9.0249,9.0249,9.0369,0.0,0.0,0.0,0.0,0.0,0.0,0.0,0.0,0.0,9.1207,9.1805,9.2105,9.2045,9.2404,9.2943,9.3601,9.3601,9.396,9.4618,9.4319,9.4738,9.587,9.898,10.0242,9.9957,9.9911,9.9526,9.913,0.0,0.0,0.0,0.0,10.1486,10.2416,0.0,0.0,0.0,0.0,0.0,0.0,0.0,0.0,0.0,0.0,0.0,0.0,7.603,7.5427,7.5126,7.5427,7.4573,7.4423,7.5377,7.4925,7.5075,7.603,7.603,7.603,7.603,7.6408,7.7544,7.9527,8.3284,8.499,8.4743,8.6419,8.6313,8.4674,8.4552,8.3302,8.0946,7.7415,7.6352,7.6814,0.0,0.0,0.0,0.0,0.0,0.0,0.0,0.0,0.0,0.0,0.0,0.0,0.0,0.0,0.0,0.0,0.0,0.0,0.0,0.0,0.0,0.0,0.0,0.0,0.0,0.0,0.0,0.0,0.0,0.0,0.0,0.0,0.0,0.0,0.0,0.0,0.0,9.0309,9.0788,9.1746,9.1446,9.1446,0.0,0.0,0.0,0.0,0.0,0.0,9.1805,9.2224,9.2404,9.2404,9.3182,9.3302,9.2643,9.3302,9.378,9.408,9.4259,9.4618,9.5097,9.4917,9.5576,9.7038,10.0638,10.205,10.1923,10.1903,10.1474,10.0824,10.0296,10.0765,10.1904,10.1967,10.3127,10.4261,0.0,0.0,0.0,0.0,0.0,0.0,0.0,0.0,0.0,0.0,0.0,7.4875,7.5929,7.5075,7.4875,7.5929,7.5477,7.5377,7.5979,7.5477,7.5427,7.603,7.603,7.603,7.603,7.614,7.6762,7.8006,7.9804,8.2072,8.4743,8.5462,8.6041,8.648,8.4281,8.2284,8.0488,7.8536,7.7467,7.6967,7.5742,0.0,0.0,0.0,0.0,0.0,0.0,0.0,0.0,0.0,0.0,0.0,0.0,0.0,0.0,0.0,0.0,0.0,0.0,0.0,0.0,0.0,0.0,0.0,0.0,0.0,0.0,0.0,0.0,0.0,0.0,0.0,0.0,0.0,0.0,0.0,0.0,0.0,0.0,9.2344,9.2524,0.0,0.0,0.0,0.0,9.1626,9.2105,9.2464,9.2524,9.378,9.4439,9.4439,9.5695,9.6055,9.5396,9.6055,9.6055,9.5516,9.6114,9.6414,9.6473,9.5815,9.6234,9.7549,9.9193,9.9831,10.0183,10.5385,10.7169,10.6292,10.4875,10.4874,10.5413,10.3994,10.3587,10.3517,0.0,0.0,0.0,0.0,0.0,0.0,0.0,0.0,7.4423,7.4423,7.4724,7.5226,7.5979,7.5075,7.4724,7.5477,7.4372,7.387,7.4423,7.4272,7.4423,7.4975,7.5678,7.5706,7.497,7.4306,7.4332,7.5101,7.7901,7.9789,8.0805,8.289,8.4145,8.4726,8.3903,8.3407,8.3081,8.0284,7.8479,7.7508,7.6774,7.5966,0.0,0.0,0.0,0.0,0.0,0.0,0.0,0.0,0.0,0.0,0.0,0.0,0.0,0.0,0.0,0.0,0.0,0.0,0.0,0.0,0.0,0.0,0.0,0.0,0.0,0.0,0.0,0.0,0.0,0.0,0.0,0.0,0.0,0.0,0.0,0.0,0.0,9.4858,9.5157,0.0,9.5995,9.4738,9.4139,9.4738,9.4259,9.4259,9.5097,9.5636,9.6055,9.6473,9.6952,9.7252,9.7491,9.6892,9.6473,9.6234,9.5576,9.5336,9.5277,9.5097,9.5456,9.641,9.831,9.9376,9.9935,10.2912,10.4099,10.4248,10.4606,10.4261,10.372,10.3585,10.2976,10.2164,0.0,0.0,0.0,0.0,0.0,0.0,0.0,7.3669,7.4272,7.392,7.4322,7.4875,7.5427,7.4674,7.4423,7.5176,7.4071,7.3519,7.4121,7.3971,7.4222,7.4925,7.5126,7.4382,7.237,7.1926,7.194,7.245,7.4897,7.6844,7.8319,8.0158,8.1803,8.3068,8.3068,8.3427,8.3931,8.1873,8.0245,7.8909,7.8031,7.6797,7.5475,0.0,0.0,0.0,0.0,0.0,0.0,0.0,0.0,0.0,0.0,0.0,0.0,0.0,0.0,0.0,0.0,0.0,0.0,0.0,0.0,0.0,0.0,0.0,0.0,0.0,0.0,0.0,0.0,0.0,0.0,0.0,0.0,0.0,0.0,9.3062,9.4678,9.7491,9.785,9.8149,9.8808,9.7252,9.6414,9.6833,9.6294,9.6414,9.7491,9.7551,9.773,9.8149,9.8149,9.8089,9.785,9.7192,9.6533,9.5875,9.5277,9.4858,9.4618,9.4618,9.4977,9.5663,9.7096,9.7957,9.8494,10.0105,10.0754,10.0919,10.2906,10.286,10.1987,10.2916,10.257,10.1825,0.0,0.0,0.0,0.0,0.0,0.0,7.2765,7.372,7.4021,7.2916,7.3268,7.382,7.4372,7.392,7.4071,7.5126,7.4724,7.4623,7.5176,7.4724,7.4875,7.5929,7.4372,7.1912,6.8698,6.91,6.9597,7.0145,7.0726,7.3186,7.7316,7.7394,7.8955,8.1616,8.1616,8.211,8.2769,8.3367,8.2664,8.111,7.9407,7.7735,7.6282,0.0,0.0,0.0,0.0,0.0,0.0,0.0,0.0,0.0,0.0,0.0,0.0,0.0,0.0,0.0,0.0,0.0,0.0,0.0,0.0,0.0,0.0,0.0,0.0,0.0,0.0,0.0,0.0,0.0,0.0,0.0,0.0,0.0,9.3541,9.4798,9.6892,10.0064,10.0603,10.0364,9.9705,9.9645,9.9107,9.773,9.8269,9.8927,9.9526,9.9586,9.9526,9.9526,9.9466,9.8568,9.6593,9.7132,9.6473,9.4618,9.5277,9.5217,9.4558,9.4618,9.4977,9.5576,9.5576,9.5576,9.5691,9.7735,9.7785,9.6968,10.0206,10.1066,10.0757,10.192,10.2373,10.2437,0.0,0.0,0.0,0.0,0.0,0.0,7.3368,7.4322,7.4623,7.3519,7.387,7.4272,7.4423,7.4272,7.4473,7.5176,7.4724,7.4322,7.4071,7.4272,7.4372,7.4272,7.151,6.9551,6.8648,6.7191,6.6732,6.723,6.8607,7.0011,7.161,7.3134,7.5356,7.8044,7.8044,7.9212,8.1332,8.1512,8.1554,8.158,8.1364,7.9883,7.7999,0.0,0.0,0.0,0.0,0.0,0.0,0.0,0.0,0.0,0.0,0.0,0.0,0.0,0.0,0.0,0.0,0.0,0.0,0.0,0.0,0.0,0.0,0.0,0.0,0.0,0.0,0.0,0.0,0.0,0.0,0.0,9.2883,9.3541,9.4259,9.6713,9.8927,10.0304,10.2159,10.3057,10.2398,10.2339,10.1979,10.1201,10.1321,10.1261,10.0962,10.0962,10.0483,9.9526,9.9047,9.8269,9.7252,9.6473,9.5636,9.4618,9.4798,9.4499,9.39,9.4379,9.4738,9.4858,9.4858,9.4858,9.4858,9.5488,9.496,9.419,9.8634,9.9578,9.8553,9.8932,9.9536,10.0516,0.0,0.0,0.0,0.0,0.0,0.0,7.3569,7.4523,7.4523,7.2464,7.3519,7.4071,7.3117,7.3669,7.4222,7.4523,7.4473,7.4272,7.3971,7.4021,7.3318,7.161,6.9451,6.7945,6.7241,6.5735,6.5082,6.5434,6.6631,6.7763,6.9013,7.0449,7.2485,7.4917,7.4917,7.6301,7.858,7.895,7.9931,8.1362,8.1092,8.0431,7.983,8.084,8.0909,8.0411,7.9939,7.9282,7.8583,7.7872,0.0,0.0,0.0,0.0,0.0,0.0,0.0,0.0,0.0,0.0,0.0,0.0,0.0,0.0,0.0,0.0,0.0,0.0,0.0,0.0,0.0,0.0,0.0,0.0,9.4917,9.6473,9.773,9.9526,10.1201,10.2398,10.4373,10.5211,10.3895,10.3835,10.3476,10.2578,10.2518,10.2279,10.192,10.1773,10.1082,10.0364,9.9406,9.8628,9.791,9.6653,9.5695,9.5037,9.4738,9.4379,9.402,9.4439,9.4618,9.4618,9.4618,9.4439,9.4199,9.4199,9.3421,9.2561,0.0,0.0,0.0,0.0,9.8196,9.9632,0.0,0.0,0.0,0.0,0.0,0.0,7.377,7.4674,7.4171,7.0958,7.2816,7.3569,7.141,7.2565,7.3519,7.3519,7.4021,7.4322,7.4322,7.3569,7.1811,6.8848,6.7995,6.689,6.5333,6.468,6.4429,6.4479,6.4982,6.6194,6.8182,6.8707,7.0068,7.2161,7.2161,7.3265,7.5249,7.5899,7.766,8.0034,7.9247,7.9823,8.111,8.1553,8.1181,8.0621,8.1457,8.0458,7.8771,7.9161,0.0,0.0,0.0,0.0,0.0,0.0,0.0,0.0,0.0,0.0,0.0,0.0,0.0,0.0,0.0,0.0,0.0,0.0,0.0,0.0,0.0,0.0,0.0,0.0,9.767,10.0423,10.2638,10.2937,10.3595,10.5451,10.6707,10.6588,10.4732,10.4433,10.3895,10.2578,10.2518,10.2518,10.2518,10.192,0.0,0.0,0.0,9.9286,9.8508,9.7252,9.6234,9.5456,9.4917,9.4558,9.4499,9.4558,9.4618,9.4618,9.4618,9.4259,9.3721,9.3601,9.2823,9.1793,9.4198,9.4309,9.3512,9.5526,9.7375,9.8937,0.0,0.0,0.0,0.0,0.0,0.0,7.4925,7.5477,7.5025,7.2565,7.3519,7.372,7.1962,7.2414,7.2916,7.2916,7.3418,7.377,7.377,7.156,6.9953,6.93,6.7442,6.6086,6.5283,6.4329,6.4028,6.4479,6.458,6.5084,6.5959,6.6467,6.7854,6.9905,6.9905,7.1122,7.3108,7.3275,7.4181,7.5563,7.5808,7.7767,8.0374,7.9745,7.9618,7.9696,7.8532,7.8433,7.8488,7.7246,7.6826,7.6682,7.6582,7.6331,0.0,0.0,0.0,0.0,0.0,0.0,0.0,0.0,0.0,0.0,0.0,0.0,0.0,0.0,0.0,0.0,0.0,0.0,0.0,9.797,9.9526,10.1561,10.5151,10.563,10.5989,10.6887,10.7186,10.6827,10.5331,10.4732,10.3895,10.2578,10.2518,10.2518,10.2518,10.2398,10.2039,10.1501,10.0663,9.9705,9.8508,9.7252,9.5995,9.4798,9.4678,0.0,9.378,9.4379,9.4618,9.4618,9.4618,9.4558,9.4379,9.378,9.2823,9.1566,9.1563,9.1367,9.1454,9.3434,9.4383,9.5224,0.0,0.0,0.0,0.0,0.0,0.0,7.5176,7.5678,7.5276,7.3016,7.3971,7.4171,7.2514,7.3067,7.3569,7.3569,7.3569,7.3368,7.2765,7.0907,6.9351,6.8246,6.684,6.5835,6.5283,6.4228,6.3827,6.4078,6.4329,6.463,6.4881,6.5735,6.6686,6.7686,6.7686,6.8887,7.088,7.088,7.2232,7.4275,7.3402,7.4765,7.7531,7.8745,7.9573,8.0059,7.9831,7.9254,7.8583,7.8065,7.706,7.608,7.608,7.5879,7.5628,0.0,0.0,0.0,0.0,0.0,0.0,0.0,0.0,0.0,0.0,0.0,0.0,0.0,0.0,9.2524,9.384,0.0,9.7311,9.9586,10.1381,10.3416,10.5989,10.6707,10.7007,10.7366,10.7366,10.6887,10.551,10.4792,10.4134,10.3476,10.3117,10.2997,10.2997,10.2997,10.2698,10.1979,10.1381,10.0663,10.0004,9.803,9.6713,9.6055,9.5097,9.4439,9.408,9.4439,9.4618,9.4618,9.4618,9.4259,9.3541,9.2524,9.1746,9.1087,9.0788,9.0608,9.0691,9.1719,9.2704,9.3903,0.0,0.0,0.0,0.0,0.0,0.0,0.0,7.5778,7.5327,7.3318,7.4322,7.4623,7.3067,7.372,7.4322,7.4423,7.3519,7.2715,7.2113,7.0757,6.915,6.7392,6.6639,6.6036,6.5484,6.4379,6.3827,6.3827,6.4479,6.4781,6.4831,6.5936,6.6438,6.6438,6.6338,6.7316,6.9004,6.8899,7.0562,7.3045,7.1465,7.2053,7.4306,7.7404,7.8928,7.956,8.0645,7.9734,7.811,7.8779,7.7331,7.5276,7.5377,7.5327,7.5276,7.5477,7.603,0.0,0.0,0.0,0.0,0.0,0.0,0.0,0.0,9.1027,9.1566,9.2883,9.3721,9.4618,9.6055,9.8209,10.0004,10.1082,10.2997,10.4912,10.6229,10.6767,10.7066,10.7186,10.7306,10.6887,10.575,10.5032,10.4493,10.4433,10.3775,10.3416,10.3416,10.3296,10.2997,10.2518,10.1979,10.1561,10.1441,9.9107,9.773,9.7491,9.5636,9.4738,9.4618,9.4618,9.4618,9.4618,9.4499,9.3721,9.2524,9.1327,9.0728,9.0608,9.0608,9.0608,9.0608,9.0608,9.1617,9.3101,0.0,0.0,0.0,0.0,0.0,0.0,0.0,0.0,7.5628,7.4372,7.4824,7.4774,7.3619,7.3619,7.387,7.4372,7.2113,7.1209,7.2565,7.0255,6.8698,6.8447,6.7442,6.6589,6.6036,6.4931,6.4379,6.4379,6.5434,6.5936,6.5936,6.7091,6.7593,6.7593,6.7091,6.7315,6.7893,6.7475,6.8018,6.9257,7.0092,7.1073,7.2429,7.4236,7.5087,7.5188,7.5849,7.5858,7.5667,7.632,7.5875,7.5327,7.5829,7.5628,7.5427,7.6431,7.608,7.6068,7.9459,8.2557,8.5475,8.8777,8.9068,8.9024,0.0,9.2404,9.3601,9.4977,9.5755,9.6833,9.8688,9.9765,10.1201,10.3595,10.4194,10.4912,10.6229,10.5989,10.5869,10.6408,10.7007,10.7126,10.6408,10.569,10.5032,10.4433,10.3775,10.3416,10.3416,10.2877,10.2578,10.2518,10.2398,10.2099,10.1501,10.0004,9.8688,9.7491,9.6114,9.5157,9.4618,9.4618,9.4618,9.4558,9.396,9.3302,9.2524,9.1805,9.1147,9.0608,9.0608,9.0608,9.0608,9.0608,9.0691,9.1208,0.0,0.0,0.0,0.0,0.0,0.0,0.0,0.0,7.5879,7.5427,7.5578,7.5527,7.5075,7.5025,7.5126,7.5327,7.3117,7.1404,7.0907,6.9727,6.8329,6.6774,6.7196,6.7191,6.6639,6.5534,6.5082,6.5434,6.5886,6.6438,6.7091,6.7894,6.8296,6.8246,6.8045,6.7894,6.7794,6.7894,6.8547,6.9652,7.0405,7.161,7.2966,7.3669,7.392,7.4071,7.5276,7.5728,0.0,7.5628,7.5628,7.5678,7.5628,7.5879,7.6281,7.6733,7.6984,7.768,8.0602,8.4514,8.7842,8.839,8.9471,9.0788,9.2404,9.378,9.5217,9.6952,9.8149,9.9346,10.0962,10.2398,10.3715,10.4792,10.5331,10.581,10.6288,10.581,10.5391,10.5211,10.551,10.5869,10.6408,10.581,10.5451,10.557,10.4613,10.4014,10.4014,10.3416,10.2877,10.2518,10.2518,10.2398,10.2099,10.0782,9.9586,9.8628,9.6952,9.5815,9.5157,9.4798,9.4379,9.396,9.2883,9.2284,9.1985,9.1327,9.0908,9.0608,9.0608,9.0608,9.0608,9.0608,9.0608,9.0691,0.0,0.0,0.0,0.0,0.0,0.0,0.0,0.0,0.0,0.0,7.5633,7.603,7.603,7.603,7.603,7.603,7.4322,7.2503,7.0761,6.9627,6.8025,6.5919,6.5982,6.6252,6.6533,6.5445,6.5496,6.6789,6.694,6.7543,6.8497,6.9049,6.93,6.93,6.915,6.8949,6.8748,6.8949,6.9702,7.0757,7.1309,7.2364,7.3569,7.3418,7.3669,7.4222,7.5427,7.5628,7.5377,7.5427,7.5628,7.5778,7.5527,7.613,7.6933,7.7084,7.814,7.9739,8.1785,8.5305,8.8433,8.8471,8.995,9.1865,9.3721,9.5336,9.6952,9.8927,10.0244,10.1381,10.2518,10.4074,10.5211,10.5391,10.581,10.6109,10.6109,10.551,10.4792,10.4014,10.3895,10.4254,10.5211,10.5391,10.551,10.581,10.4912,10.4313,10.4134,10.3535,10.2997,10.2518,10.2518,10.2518,10.2518,10.1381,10.0304,9.9466,9.791,9.6593,9.5576,9.4738,9.408,9.3481,9.2165,9.1626,9.1566,9.0908,9.0608,9.0608,9.0608,9.0608,9.0608,9.0608,9.0608,9.0608,0.0,0.0,0.0,0.0,0.0,0.0,0.0,0.0,0.0,0.0,0.0,7.603,7.603,7.603,7.603,7.603,7.5025,7.4121,7.3523,6.9985,6.7726,6.7058,6.3592,6.2807,6.5396,6.4491,6.5434,6.8547,6.91,6.9652,7.0204,7.0757,7.1008,7.1008,7.0455,7.0506,7.0958,7.0405,7.0857,7.1912,7.2464,7.3067,7.3519,7.2966,7.377,7.5176,7.5226,7.4573,7.392,7.5477,7.5678,7.5377,7.5879,7.6431,7.6984,7.7536,7.9387,8.1615,8.2904,8.42,8.6015,8.9609,9.0608,9.1506,9.4798,9.7012,9.8987,10.0962,10.1979,10.2638,10.3296,10.4014,10.4613,10.5331,10.5451,10.5451,10.5451,10.4912,10.3954,10.2698,10.2578,10.2578,10.2578,10.4313,10.5151,10.4493,10.4433,10.4134,10.3476,10.2877,10.2518,10.2518,10.2518,10.2518,10.2518,10.18,10.0782,9.9466,9.8808,9.7431,9.5576,9.4199,9.3601,9.3481,9.2165,9.1626,9.1566,9.0908,9.0608,9.0608,9.0608,9.0608,9.0608,9.0608,9.0608,9.0549,0.0,0.0,0.0,0.0,0.0,0.0,0.0,0.0,0.0,0.0,0.0,0.0,0.0,0.0,0.0,0.0,7.5075,7.3743,7.2074,7.1098,6.9881,6.8249,6.7626,6.7742,6.8623,6.7932,6.8288,6.9702,6.9903,7.0455,7.1359,7.156,7.1811,7.2163,7.161,7.1661,7.2163,7.161,7.2213,7.3569,7.3368,7.4071,7.5126,7.4222,7.4222,7.4724,0.0,7.5025,7.4724,7.4925,7.5075,7.5276,7.5477,7.613,7.7084,7.7988,7.9695,8.1378,8.139,8.2539,8.4176,8.5822,8.7385,8.9198,9.1616,9.3602,9.5288,9.6467,9.6623,9.6665,9.6893,9.8946,10.0816,10.146,10.367,10.5451,10.5451,10.5211,10.4134,10.1501,10.1979,10.1979,10.0603,10.2339,10.3715,10.4373,10.4014,10.3655,10.3416,10.2817,10.2518,10.2518,10.2518,10.2518,10.2518,10.2279,10.1501,10.0124,9.8149,9.6653,9.5516,9.3721,9.2943,9.2883,9.1566,9.0968,9.0968,9.0728,9.0608,9.0608,9.0608,9.0608,9.0608,9.0608,9.0369,8.995,0.0,0.0,0.0,0.0,0.0,0.0,0.0,0.0,0.0,0.0,0.0,0.0,0.0,0.0,0.0,0.0,0.0,7.434,7.2708,7.2029,7.0907,6.9345,6.7911,6.8061,6.9958,6.7533,6.7912,7.146,7.008,7.0328,7.2213,7.1811,7.1811,7.2113,7.1761,7.1912,7.2414,7.1861,7.3016,7.5176,7.4071,7.4724,7.618,7.4473,7.392,0.0,7.4071,7.4423,7.4975,7.4975,7.5226,7.5527,7.5527,7.6281,7.7335,7.8038,7.9096,8.012,8.0369,8.1485,8.2949,8.4828,8.6777,8.8801,9.062,9.221,9.3258,9.3526,9.3287,9.2733,9.2446,9.4907,9.7173,9.7808,10.1296,10.4254,10.4912,10.4852,10.3895,10.18,10.168,10.1261,10.0004,10.0782,10.2099,10.3595,10.3535,10.3296,10.3117,10.2698,10.2518,10.2518,10.2518,10.2518,10.2518,10.2518,10.18,10.0483,9.803,9.6414,9.5516,9.3541,9.2464,9.2165,9.1087,9.0608,9.0608,9.0608,9.0608,9.0608,9.0608,9.0608,9.0608,9.0608,9.0249,8.9651,0.0,0.0,0.0,0.0,0.0,0.0,0.0,0.0,0.0,0.0,0.0,0.0,0.0,0.0,0.0,0.0,0.0,0.0,7.5327,7.2856,7.1165,7.064,6.5121,6.4342,6.9385,6.3755,6.4773,7.3236,6.9455,6.9214,7.2291,7.1337,7.0981,7.1073,7.1073,7.1467,7.2062,7.151,7.3418,7.6632,7.4473,7.4875,7.6482,7.387,7.3217,7.3519,7.2514,7.3167,7.4674,7.5678,7.603,7.603,7.603,7.6783,7.7687,7.7687,7.7737,7.8089,7.9892,8.0886,8.2313,8.6255,8.8247,8.9674,9.1375,9.23,9.2677,9.2118,9.1558,9.083,8.9867,9.1823,9.3866,9.4746,9.8584,10.2159,10.4194,10.3895,10.3535,10.3416,10.18,10.0603,10.0543,9.9945,10.0423,10.2398,10.2997,10.3117,10.2518,10.2518,10.2518,10.2518,10.2518,10.2518,10.2518,10.2398,10.18,10.0483,9.8448,9.6833,9.5576,9.3541,9.2284,9.1626,9.0968,9.0608,9.0608,9.0608,9.0608,9.0608,9.0608,9.0608,9.0608,9.0608,9.019,8.9531,0.0,0.0,0.0,0.0,0.0,0.0,0.0,0.0,0.0,0.0,0.0,0.0,0.0,0.0,0.0,0.0,0.0,0.0,7.5879,7.4837,7.4145,7.3996,7.014,6.8606,6.9955,6.6441,6.5621,6.7945,6.696,6.6869,6.7715,6.7484,6.8633,7.1047,7.0661,7.2128,7.4925,7.3971,7.4372,7.5578,7.4573,7.4523,7.5025,7.4724,7.4674,7.4824,7.4975,7.5276,7.5628,7.5477,7.5728,7.5979,7.5578,7.618,7.7185,7.7586,7.7988,7.8492,7.9405,8.0116,8.0829,8.2367,8.3807,8.52,8.5612,8.6127,8.6281,8.5409,8.4068,8.3445,8.4618,8.7424,9.0747,9.4196,9.8996,10.2937,10.4912,10.5451,10.5091,10.3595,10.2997,10.2279,10.1261,10.1082,10.1381,10.2398,10.2159,10.2099,10.2458,10.2518,10.2518,10.2518,10.2518,10.2518,10.2518,10.1501,10.0782,10.0483,9.797,9.6653,9.6234,9.3721,9.2524,9.2284,9.1147,9.0608,9.0608,9.0608,9.0608,9.0608,9.0608,9.0608,9.0608,9.007,8.9531,8.8873,0.0,0.0,0.0,0.0,0.0,0.0,0.0,0.0,0.0,0.0,0.0,0.0,0.0,0.0,0.0,0.0,0.0,0.0,0.0,7.5778,7.5578,7.5578,7.1404,6.9593,7.0858,6.5768,6.4951,6.8892,6.5727,6.5506,6.81,6.6236,6.6869,6.9908,6.9623,7.149,7.4925,7.4071,7.4724,0.0,0.0,7.4824,7.5477,7.5327,7.4925,7.4623,7.5427,7.5678,7.5628,7.5327,7.5276,7.5427,7.613,7.6933,7.7737,7.854,7.9193,7.9695,8.0047,8.07,8.1453,8.2257,8.316,8.3813,8.3562,8.3562,8.316,8.1553,8.0298,7.9604,8.0206,8.2773,8.5848,8.9106,9.4062,9.8912,10.2595,10.387,10.456,10.5078,10.4613,10.3895,10.2877,10.2458,10.2518,10.2877,10.2279,10.2099,10.2458,10.2518,10.2518,10.2518,10.2518,10.2518,10.2518,10.1441,10.0782,10.0483,9.8089,9.6653,9.6055,9.396,9.2703,9.2105,9.1386,9.0908,9.0608,9.0608,9.0608,9.0608,9.0608,9.0608,9.0549,8.989,8.9232,8.8574,0.0,0.0,0.0,0.0,0.0,0.0,0.0,0.0,0.0,0.0,0.0,0.0,0.0,0.0,0.0,0.0,0.0,0.0,0.0,0.0,7.603,7.603,7.0995,6.9294,7.1713,6.3926,6.3594,7.1446,6.4677,6.4139,6.9324,6.5443,6.5369,6.8414,6.8414,7.042,7.387,7.3368,7.4774,7.7235,7.5377,7.5427,7.6482,0.0,7.4724,7.3971,7.4975,7.5276,7.5126,7.5226,7.5025,7.5075,7.7084,7.8189,7.8992,8.0097,8.08,8.1252,8.1353,8.2106,8.311,8.4064,8.4265,8.4064,8.3412,8.2809,8.1754,7.9595,7.8691,7.8089,7.7432,7.9048,8.1369,8.406,8.8566,9.3934,10.0193,10.1996,10.3791,10.707,10.6348,10.5331,10.4613,10.3895,10.3535,10.3416,10.2937,10.2578,10.2518,10.2518,10.2518,10.2518,10.2518,10.2518,10.2518,10.18,10.1142,10.0483,9.8448,9.6892,9.5695,9.4259,9.2943,9.1865,9.1686,9.1327,9.0788,9.0668,9.0608,9.0608,9.0608,9.0608,9.0549,8.983,8.9172,8.8574,0.0,0.0,0.0,0.0,0.0,0.0,0.0,0.0,0.0,0.0,6.804,7.0377,0.0,0.0,0.0,0.0,0.0,0.0,0.0,0.0,0.0,7.603,7.288,7.1303,7.1815,6.5817,6.3426,6.4982,6.1419,6.0126,6.1199,6.0407,6.2815,6.7752,6.7752,7.0729,7.5628,7.5527,7.5527,7.5678,7.5728,7.5377,7.4925,7.5628,0.0,0.0,7.5678,7.5327,7.4623,7.5075,7.5778,7.6582,7.7436,7.8741,8.0147,8.1202,8.1955,8.2508,8.296,8.3512,8.4064,8.4265,8.3964,8.3361,8.2357,8.1353,8.0147,7.834,7.7536,7.7631,7.8962,7.9992,8.2925,9.0051,9.2905,9.6902,10.4301,10.5485,10.6337,10.8024,10.7007,10.5989,10.5331,10.4613,10.4014,10.3416,10.3296,10.2997,10.2518,10.2518,10.2518,10.2518,10.2518,10.2518,10.2518,10.18,10.1142,10.0483,9.8448,9.7132,9.6354,9.4439,9.3481,9.3182,9.2105,9.1566,9.1386,9.0848,9.0608,9.0608,9.0608,9.0608,9.0489,8.9292,8.8813,8.8454,0.0,0.0,0.0,0.0,0.0,0.0,0.0,5.918,6.0658,6.4896,6.6668,6.971,7.5534,7.603,0.0,0.0,0.0,0.0,0.0,0.0,0.0,7.603,7.3284,7.1815,7.1815,6.6243,6.4227,6.5951,0.0,6.1512,6.1755,6.1512,6.3601,6.7619,6.735,7.0508,7.603,7.5728,7.5628,7.5678,7.5929,7.5578,7.4925,7.5728,0.0,0.0,7.5979,7.5527,7.4925,7.5477,7.623,7.7084,7.8239,7.9344,8.0599,8.2558,8.3311,8.3663,8.4215,8.4767,8.5169,8.5169,8.4315,8.311,8.1704,8.0348,7.8842,7.7185,7.6632,7.6727,7.7645,7.8349,8.0212,8.4656,8.7419,9.1048,9.6853,9.9159,10.1506,10.4763,10.4905,10.4933,10.5414,10.5151,10.4493,10.3535,10.2057,10.099,10.0286,9.8968,9.887,10.0286,10.0286,10.1015,10.2518,10.18,10.1142,10.0483,9.7149,9.5213,9.4567,9.2834,9.1953,9.163,9.2013,9.1925,9.1566,9.0908,9.0608,9.0608,9.0608,9.0608,9.0489,8.9172,8.8693,8.8454,0.0,0.0,0.0,0.0,0.0,0.0,0.0,5.918,6.0254,6.3058,6.5817,6.9456,7.449,7.5683,7.603,0.0,0.0,0.0,0.0,0.0,0.0,0.0,0.0,0.0,7.2778,0.0,0.0,6.8263,6.5563,0.0,0.0,0.0,0.0,0.0,6.7111,7.0004,7.5186,7.5282,7.5678,0.0,0.0,7.5778,7.5477,0.0,0.0,0.0,0.0,7.5678,7.5327,7.5879,7.6331,7.6984,7.8691,7.9746,8.085,8.3261,8.4165,8.4466,8.5169,8.5722,8.6174,8.6174,8.4818,8.306,8.1403,7.9645,7.7888,7.6381,7.603,7.603,7.603,7.6431,7.7284,7.9101,8.1634,8.5077,8.9826,9.3418,9.6971,10.0915,10.279,10.3849,10.3634,10.3987,10.3746,10.2559,9.9878,9.799,9.7433,9.5312,9.521,9.7376,9.7376,9.8715,10.155,10.111,10.0457,9.9625,9.5845,9.3297,9.1819,9.0641,9.0059,9.0061,9.1276,9.186,9.1746,9.0968,9.0608,9.0608,9.0608,9.0608,9.0489,8.9172,8.8693,8.8454,0.0,0.0,0.0,0.0,0.0,0.0,0.0,5.918,6.0254,6.3058,6.5817,6.8591,7.1149,7.4292,7.603,0.0,0.0,0.0,0.0,0.0,0.0,0.0,0.0,0.0,0.0,0.0,0.0,6.7709,6.7347,0.0,0.0,0.0,0.0,0.0,0.0,6.9248,7.2324,7.4938,0.0,0.0,0.0,0.0,0.0,0.0,0.0,0.0,0.0,7.5678,7.5327,7.5879,7.608,7.6431,7.8088,7.9695,8.1202,8.2457,8.3512,8.4567,8.5671,8.6324,8.6676,8.6676,8.5069,8.306,8.1403,7.9344,7.7436,7.6281,7.603,7.603,7.603,7.608,7.7474,8.1682,8.2639,8.5219,9.2338,9.6239,9.8404,9.8406,10.3053,10.3883,9.8267,9.9615,10.045,9.9698,9.6571,9.4654,9.4599,9.4291,9.4291,9.4599,9.4599,9.5919,9.8617,9.8657,9.8021,9.6806,9.5864,9.3209,8.9161,8.84,8.9018,9.0662,8.9573,9.043,9.2404,9.1147,9.0608,9.0608,9.0608,9.0608,9.0489,8.9172,8.8693,8.8394,0.0,0.0,0.0,0.0,0.0,0.0,5.914,5.8945,5.9311,6.0658,6.3276,6.6049,6.8707,7.1434,7.3648,0.0,0.0,0.0,0.0,0.0,0.0,0.0,0.0,0.0,0.0,0.0,7.1303,7.0124,7.0124,0.0,0.0,0.0,0.0,0.0,0.0,7.1428,7.4438,7.5284,0.0,0.0,0.0,0.0,0.0,0.0,0.0,0.0,0.0,0.0,7.5778,7.5979,7.5829,7.5728,7.6733,7.7486,7.8591,8.1353,8.2708,8.3663,8.5069,8.6123,8.6877,8.7178,8.5119,8.2759,8.1754,7.9294,7.6984,7.623,7.603,7.603,7.603,7.603,7.6626,7.8419,7.9624,8.129,8.4102,8.6897,8.9604,9.2111,9.4596,9.6121,9.5895,9.6662,9.6271,9.4009,9.2484,9.1004,8.9395,8.9287,8.9989,9.1639,9.1745,9.3052,9.5818,9.5818,9.5256,9.402,9.1813,8.925,8.6474,8.5883,8.578,8.6381,8.8531,8.9755,9.0371,9.0977,9.0968,9.0608,9.0608,9.0608,9.0489,8.9172,8.8693,8.8454,0.0,0.0,0.0,0.0,0.0,5.8633,5.8945,5.8711,5.8633,5.8945,6.1529,6.4381,6.7124,6.951,7.2011,7.4682,0.0,0.0,0.0,0.0,0.0,0.0,0.0,0.0,0.0,0.0,7.2677,7.1815,7.2677,7.161,0.0,0.0,7.0995,7.1815,0.0,0.0,0.0,0.0,0.0,0.0,0.0,0.0,0.0,0.0,0.0,0.0,0.0,0.0,0.0,0.0,0.0,7.5327,7.5879,7.603,7.6632,7.9695,8.1453,8.2759,8.4215,8.5671,8.6877,8.7278,8.5019,8.2457,8.1754,7.9143,7.6733,7.618,7.603,7.603,7.603,7.603,7.603,7.603,7.7092,7.804,7.8442,8.0812,8.3515,8.6307,8.835,9.0296,9.2065,9.3236,9.2974,9.0467,9.0202,8.9287,8.7366,8.6368,8.6924,8.8853,8.8853,9.0098,9.273,9.273,9.213,9.0931,8.8707,8.6303,8.3858,8.3339,8.3118,8.3327,8.6123,8.7508,8.7779,8.8713,8.8821,8.8412,8.8412,8.8412,8.838,8.7818,8.7593,8.7498,0.0,0.0,0.0,0.0,0.0,0.0,5.8515,5.8515,5.8515,5.8515,6.1325,6.4295,6.6529,6.9278,7.1867,7.4182,0.0,0.0,0.0,0.0,0.0,0.0,0.0,0.0,0.0,0.0,7.4688,7.1815,7.4688,7.4588,7.1713,6.8877,6.9086,7.1713,0.0,0.0,0.0,0.0,0.0,0.0,0.0,0.0,7.603,0.0,0.0,0.0,0.0,0.0,0.0,0.0,0.0,0.0,0.0,7.603,7.6281,7.7436,7.9695,8.2056,8.3211,8.5119,8.6776,8.6776,8.4717,8.2407,8.1302,7.8892,7.6733,7.618,7.603,7.603,7.603,7.603,7.603,7.603,7.6128,7.6732,7.8289,8.1475,8.3114,8.2027,8.6832,8.8856,8.5528,8.8734,9.0941,9.0941,9.0413,9.0096,9.0096,8.7425,8.6023,8.6023,8.6023,8.7059,8.9304,8.9411,8.8777,8.7614,8.7614,8.5315,8.1051,8.1001,8.1801,8.3129,8.1968,8.2883,8.5074,8.395,8.3397,8.3397,8.3397,8.3397,8.3502,8.4618,8.5075,8.5241,0.0,0.0,0.0,0.0,0.0,0.0,0.0,5.8711,5.8633,5.8945,5.9842,6.2172,6.632,6.7313,6.9289,7.3485,0.0,0.0,0.0,0.0,0.0,0.0,0.0,0.0,0.0,7.603,7.5633,7.4788,7.5633,7.5633,7.4688,7.3837,7.3837,7.4688,7.3837,7.3937,0.0,0.0,0.0,0.0,0.0,7.603,7.603,0.0,0.0,0.0,0.0,0.0,0.0,0.0,0.0,0.0,0.0,0.0,0.0,7.6381,7.7988,7.9796,8.0951,8.2307,8.3462,8.3864,8.2206,8.0348,7.9997,7.8038,7.6281,7.608,7.603,7.603,7.603,7.603,7.603,7.603,7.603,7.623,7.6783,7.8695,8.0371,8.1157,8.5236,8.7615,8.6839,8.7625,8.8132,8.8132,8.7621,8.7366,8.7366,8.653,8.6023,8.6023,8.6023,8.6166,8.6388,8.6388,8.5936,8.4813,8.4404,8.3164,8.1001,8.065,8.0566,8.0728,8.2073,8.2782,8.3175,8.4164,8.4355,8.3913,8.3472,8.3306,8.3286,8.3227,8.3214,8.319,0.0,0.0,0.0,0.0,0.0,0.0,0.0,5.8711,5.8633,5.8906,5.8945,6.0597,6.5106,6.5993,6.7973,7.1981,0.0,0.0,0.0,0.0,0.0,0.0,0.0,0.0,7.603,7.603,7.613,7.6381,7.6381,7.6482,7.6682,7.5384,7.5384,7.6331,7.5086,7.5087,0.0,0.0,0.0,0.0,7.5979,7.5929,7.5778,0.0,0.0,0.0,0.0,0.0,0.0,0.0,0.0,0.0,0.0,0.0,0.0,0.0,7.6331,7.7335,7.9093,8.0549,8.1604,8.1955,8.0549,7.9043,7.9043,7.7486,7.603,7.603,7.603,7.603,7.603,7.603,7.603,7.603,7.6865,7.7158,7.6227,7.8338,8.0269,8.1207,8.4416,8.6625,8.6927,8.7027,8.7077,8.7077,8.6425,8.6023,8.6023,8.6023,8.6023,8.6023,8.6023,8.5722,8.5169,8.4918,8.4416,8.3462,8.2708,8.2005,8.1302,8.0549,8.0047,7.9749,8.098,8.1115,0.0,8.1625,8.171,8.1123,8.0749,8.0589,8.0629,8.0874,8.1025,8.1008,0.0,0.0,0.0,0.0,0.0,0.0,0.0,0.0,5.8594,5.8594,5.8555,5.9737,6.2933,6.5399,6.7725,0.0,0.0,0.0,0.0,0.0,0.0,0.0,0.0,0.0,7.603,7.603,7.6331,7.6833,7.6883,7.7134,7.7536,7.4502,7.4463,7.6733,7.3575,7.3635,0.0,0.0,0.0,7.5327,7.5829,7.5728,0.0,0.0,0.0,0.0,0.0,0.0,0.0,0.0,0.0,0.0,0.0,0.0,0.0,0.0,0.0,0.0,0.0,7.9394,8.0599,8.0599,7.9495,7.834,7.834,7.7134,0.0,7.603,7.603,7.603,7.603,7.603,7.603,7.603,7.7982,7.8701,7.6374,7.9529,8.2146,8.2174,8.4567,8.6174,8.6123,8.7027,8.758,8.7529,8.6575,8.6023,8.6023,8.6023,8.6023,8.6023,8.5973,8.5671,8.5069,8.4567,8.4014,8.3412,8.2307,8.1805,8.1754,8.07,8.0198,8.0147,7.9043,7.8289,7.7787,7.7185,7.6632,7.618,7.608,7.603,7.6275,7.7937,7.853,7.876,0.0,0.0,0.0,0.0,0.0,0.0,0.0,0.0,0.0,0.0,5.875,5.9498,6.1949,6.429,6.6712,0.0,0.0,0.0,0.0,0.0,0.0,0.0,0.0,0.0,7.603,7.603,7.613,7.623,7.6682,7.6933,7.7084,7.673,7.6631,7.6883,7.6083,7.5784,0.0,0.0,7.5979,7.5879,7.5979,7.5979,0.0,0.0,0.0,0.0,7.5427,7.5176,0.0,0.0,0.0,0.0,0.0,0.0,0.0,0.0,7.4875,7.4573,7.5226,0.0,7.6582,7.6582,7.6632,7.6632,0.0,7.6331,7.603,7.603,7.603,7.603,7.603,7.603,7.603,7.603,7.6621,7.6567,7.5575,7.8797,8.2395,8.533,8.6927,8.768,8.7278,8.7429,8.7429,8.7027,8.6374,8.6023,8.6023,8.6023,8.6023,8.6023,8.5571,8.5069,8.4516,8.4416,8.3813,8.2859,8.2156,8.1805,8.1754,8.07,8.0198,8.0147,7.9495,7.9093,7.8892,7.7938,7.7436,7.7235,7.6381,7.603,7.6128,7.6567,7.6661,7.6759,0.0,0.0,0.0,0.0,0.0,0.0,0.0,0.0,0.0,0.0,0.0,0.0,0.0,0.0,0.0,0.0,0.0,0.0,0.0,0.0,0.0,0.0,0.0,7.603,7.603,7.603,7.6281,7.6833,7.7084,7.7536,7.8038,7.834,7.8189,7.7586,7.7084,7.6582,7.603,7.603,7.5929,7.5678,7.5979,0.0,0.0,0.0,0.0,0.0,7.5628,7.5427,0.0,7.5578,7.5628,7.5578,0.0,0.0,0.0,0.0,7.4071,7.372,7.3971,7.4423,7.4925,7.5176,7.5477,7.5728,7.5979,7.603,7.603,7.603,7.603,7.603,7.603,7.5829,7.5778,7.603,7.6857,7.7737,7.8667,8.0013,8.2257,8.5671,8.7027,8.768,8.763,8.7379,8.7128,8.6776,8.6274,8.6023,8.6023,8.6023,8.5922,8.5621,8.532,8.4968,8.4717,8.4165,8.3663,8.301,8.1955,8.1704,8.2156,8.08,8.0348,8.0549,7.9997,7.9495,7.8942,7.8038,7.7536,7.7235,7.6381,7.603,7.603,7.603,7.603,7.603,0.0,0.0,0.0,0.0,0.0,0.0,0.0,0.0,0.0,0.0,0.0,0.0,0.0,0.0,0.0,0.0,0.0,0.0,0.0,0.0,0.0,0.0,7.603,7.603,7.603,7.603,7.6582,7.7586,7.7637,7.8239,7.9243,7.9344,7.9043,7.834,7.7335,7.6582,7.603,7.603,7.5778,7.5427,7.5879,0.0,0.0,0.0,0.0,0.0,0.0,0.0,0.0,7.5477,7.5628,7.5778,7.4824,0.0,0.0,0.0,0.0,0.0,7.3468,7.4021,7.4573,7.5126,7.5226,7.5377,7.5929,7.603,7.603,7.603,7.603,7.603,7.5929,7.5628,7.5477,7.5879,7.7428,7.9651,8.2491,8.1953,8.2257,8.4968,8.6224,8.7027,8.7329,8.7027,8.6776,8.6676,8.6274,8.6023,8.6023,8.6023,8.5772,8.532,8.5008,8.4968,8.4968,8.3914,8.3311,8.3211,8.1754,8.1553,8.2508,8.1001,8.0599,8.1001,8.0449,7.9645,7.8591,7.7988,7.7436,7.6933,7.6281,7.603,7.603,7.603,7.603,7.603,0.0,0.0,0.0,0.0,0.0,0.0,0.0,0.0,0.0,0.0,0.0,0.0,0.0,0.0,0.0,0.0,0.0,0.0,0.0,0.0,0.0,7.603,7.603,7.603,7.603,7.603,7.6381,7.6984,7.7486,7.8038,7.8691,7.9143,7.8842,7.7787,7.7185,7.6582,7.603,7.603,7.603,7.5929,7.603,0.0,0.0,0.0,0.0,0.0,0.0,0.0,0.0,7.5778,7.5678,7.5327,7.5176,0.0,0.0,0.0,0.0,0.0,7.3569,7.4021,7.4573,7.5126,7.5226,7.5377,7.5929,7.603,7.603,7.603,7.603,7.5929,7.5427,7.5678,7.5778,7.5427,7.6326,7.8493,8.2238,8.2627,8.3261,8.5571,8.6826,8.7178,8.6324,8.6575,8.6625,8.6174,8.6073,8.6023,8.6023,8.6023,8.5973,8.5872,8.4918,8.4466,8.4466,8.3361,8.2558,8.2056,8.1353,8.1353,8.1905,8.1202,8.0951,8.1001,8.0449,7.9846,7.9193,7.8139,7.7637,7.7486,7.6431,7.603,7.603,7.603,7.603,7.603,0.0,0.0,0.0,0.0,0.0,0.0,0.0,0.0,0.0,0.0,0.0,0.0,0.0,0.0,0.0,0.0,0.0,0.0,0.0,0.0,7.603,7.603,7.603,7.603,7.603,7.6331,7.6783,7.7335,7.8189,7.8892,7.9444,7.9695,7.9394,7.8591,7.8038,7.7285,7.6482,7.6482,7.6331,7.603,0.0,0.0,0.0,0.0,0.0,0.0,0.0,0.0,0.0,0.0,7.5628,7.5578,7.4975,0.0,0.0,0.0,0.0,0.0,7.4322,7.4473,7.4473,7.4724,7.4573,7.4322,7.4272,7.4272,7.4423,7.5025,7.5176,7.5176,7.5226,7.5678,7.6281,7.6933,7.8189,7.9846,8.1905,8.2457,8.3261,8.4918,8.5822,8.6174,8.6023,8.6224,8.6274,8.6023,8.6023,8.6023,8.6023,8.6023,8.5722,8.5069,8.4567,8.4064,8.3412,8.2608,8.2056,8.1805,8.1001,8.1001,8.1805,8.1252,8.1202,8.1453,8.1202,8.0599,7.9746,7.8591,7.7988,7.7586,7.6482,7.603,7.603,7.603,7.603,7.603,0.0,0.0,0.0,0.0,0.0,0.0,0.0,0.0,0.0,0.0,0.0,0.0,0.0,0.0,0.0,0.0,0.0,0.0,0.0,7.5226,7.5879,7.5879,7.5879,7.5979,7.623,7.6682,7.7285,7.8088,7.8942,7.9645,8.0198,8.0097,7.9746,7.9143,7.8741,7.7888,7.6883,7.6883,7.6582,7.603,0.0,0.0,0.0,0.0,0.0,0.0,0.0,0.0,0.0,0.0,0.0,0.0,0.0,0.0,0.0,7.4623,7.4322,7.4171,7.5025,7.5025,7.4724,7.4322,7.4121,7.382,7.3268,7.3318,7.377,7.4623,7.4774,7.4875,7.5176,7.5879,7.6984,7.8641,8.0298,8.1704,8.2457,8.296,8.3612,8.4567,8.5069,8.5521,8.5973,8.6023,8.6023,8.6023,8.6023,8.6023,8.6023,8.6023,8.5571,8.4717,8.4466,8.3914,8.306,8.2206,8.1805,8.1805,8.085,8.0901,8.1805,8.1252,8.1302,8.1805,8.1553,8.0951,8.0097,7.8842,7.8139,7.7787,7.6682,7.623,7.623,7.608,7.603,7.603,0.0,0.0,0.0,0.0,0.0,0.0,0.0,0.0,0.0,0.0,0.0,0.0,0.0,0.0,0.0,0.0,0.0,0.0,0.0,7.4674,7.5276,7.5276,7.5276,7.5778,7.6783,7.6883,7.7687,7.9294,7.9344,7.9645,8.0198,7.9695,7.9143,7.8591,7.854,7.7888,7.6883,7.6883,7.6582,7.603,7.603,0.0,0.0,0.0,0.0,0.0,0.0,0.0,0.0,0.0,0.0,0.0,0.0,0.0,7.5176,7.5176,7.5176,7.5126,7.5226,7.5578,7.5578,7.4021,7.4372,7.4975,7.4423,7.5075,7.5829,7.5929,7.5929,7.5778,7.5327,7.6532,7.8139,7.9796,8.1453,8.311,8.4667,8.4858,8.5219,8.5822,8.5922,8.5922,8.6023,8.6023,8.6023,8.6023,8.6023,8.6023,8.6023,8.6023,8.5973,8.5922,8.4818,8.4315,8.4215,8.2608,8.1805,8.1805,8.1252,8.1252,8.1805,8.1252,8.1302,8.1754,8.075,8.0298,8.0097,7.844,7.8038,7.834,7.7235,7.6833,7.6733,7.623,7.603,7.603,0.0,0.0,0.0,0.0,0.0,0.0,0.0,0.0,0.0,0.0,0.0,0.0,0.0,0.0,0.0,0.0,0.0,0.0,0.0,7.4322,7.4724,7.4724,7.5075,7.5778,7.6833,7.7235,7.8038,7.9394,8.0398,8.085,8.07,8.0499,7.9947,7.9043,7.9043,7.844,7.7385,7.7385,7.6883,7.603,7.603,7.603,0.0,0.0,0.0,0.0,0.0,0.0,0.0,0.0,7.603,7.603,7.5829,7.5527,7.5327,7.5628,7.5477,7.5327,7.5678,7.5377,7.4875,7.4272,7.4423,7.4473,7.3569,7.3971,7.4724,7.5427,7.5829,7.618,7.6682,7.7586,7.8892,8.0901,8.2608,8.4165,8.547,8.5671,8.5772,8.5973,8.6023,8.6023,8.6023,8.6023,8.6023,8.6023,8.6023,8.6023,8.6023,8.6023,8.5822,8.547,8.4717,8.4165,8.3813,8.2457,8.1805,8.1805,8.1302,8.1152,8.1353,8.1453,8.1604,8.1805,8.1403,8.1001,8.0599,7.8892,7.834,7.839,7.7285,7.6883,7.6833,7.6281,7.603,7.603,0.0,0.0,0.0,0.0,0.0,0.0,0.0,0.0,0.0,0.0,0.0,0.0,0.0,0.0,0.0,0.0,0.0,0.0,7.3569,7.3971,7.4171,7.4171,7.4523,7.5327,7.6582,7.7134,7.8189,7.9645,8.075,8.1102,8.075,8.0599,8.0097,7.9394,7.9193,7.8591,7.7687,7.7687,7.7084,7.608,7.623,7.623,0.0,0.0,0.0,0.0,0.0,0.0,0.0,0.0,7.603,7.603,7.603,7.5778,7.5578,7.5929,7.5427,7.4824,7.5377,7.4875,7.4121,7.392,7.4171,7.4171,7.3217,7.387,7.4925,7.603,7.6582,7.7084,7.7837,7.844,7.9394,8.1252,8.311,8.4717,8.5822,8.6023,8.6023,8.6023,8.6023,8.6023,8.6023,8.6023,8.6023,8.6023,8.6023,8.6023,8.6023,8.6023,8.5822,8.542,8.4717,8.4165,8.3763,8.2457,8.1805,8.1805,8.1302,8.1051,8.1051,8.1202,8.1403,8.1553,8.1202,8.085,8.0398,7.8892,7.8139,7.7938,7.7385,7.7034,7.6833,7.6431,7.618,7.603,0.0,0.0,0.0,0.0,0.0,0.0,0.0,0.0,0.0,0.0,6.0656,0.0,0.0,0.0,0.0,0.0,0.0,0.0,7.3569,7.3569,7.3569,7.3569,7.3569,7.4372,7.603,7.6582,7.7988,8.0198,8.0198,8.0198,8.0198,7.9645,7.9394,7.9344,7.8792,7.8239,7.7687,7.7687,7.7084,7.613,7.6682,7.6532,7.608,0.0,0.0,0.0,0.0,0.0,0.0,0.0,7.603,7.603,7.603,7.603,7.603,7.603,7.4875,7.372,7.4272,7.4021,7.3468,7.2866,7.3569,7.4272,7.372,7.5276,7.7185,7.8289,7.854,7.854,7.854,7.8992,7.9746,8.085,8.2909,8.4717,8.5822,8.6023,8.6023,8.6023,8.6023,8.6023,8.6023,8.6023,8.6023,8.6023,8.6023,8.6023,8.6023,8.6023,8.6023,8.6023,8.4918,8.4315,8.4315,8.2658,8.1805,8.1805,8.1252,8.1001,8.1001,8.0449,8.0499,8.0951,7.9846,7.9394,7.9294,7.8189,7.7385,7.6933,7.7486,7.7335,7.6883,7.6883,7.6532,7.603,0.0,0.0,0.0,0.0,0.0,0.0,0.0,0.0,0.0,6.4136,6.3667,0.0,0.0,0.0,0.0,0.0,0.0,0.0,7.3569,7.3217,7.2966,7.2966,7.377,7.4573,7.5477,7.6783,7.834,8.0198,8.0951,8.0951,8.0198,8.0047,7.9746,7.9394,7.9193,7.8792,7.8289,7.8289,7.7888,7.7185,7.6984,7.6783,7.6582,0.0,0.0,0.0,0.0,0.0,0.0,0.0,0.0,0.0,7.603,7.603,7.603,7.603,7.5728,7.5377,7.5527,7.4322,7.3117,7.377,7.3268,7.2916,7.392,7.4975,7.6381,7.8641,7.9746,8.0147,7.9796,8.0147,8.0901,8.2005,8.306,8.4265,8.5772,8.6023,8.6023,8.6023,8.6023,8.6023,8.6023,8.6023,8.6023,8.6023,8.6023,8.6023,8.6023,8.6023,8.5822,8.542,8.4717,8.3914,8.316,8.1905,8.1051,8.07,8.0147,8.0097,8.0449,8.07,8.065,8.0398,7.9695,7.9394,7.9294,7.8189,7.7385,7.6883,7.7084,7.7034,7.6833,7.6431,7.618,7.603,0.0,0.0,0.0,0.0,0.0,0.0,6.7998,6.8513,6.8346,6.7199,6.6585,6.6554,0.0,0.0,0.0,7.2324,7.3442,0.0,0.0,7.3368,7.3067,7.3067,7.372,7.4573,7.5527,7.6984,7.8189,7.9193,7.9846,7.9947,7.9545,7.9545,7.9495,7.9394,7.9595,7.9294,7.854,7.8992,7.8591,7.7687,7.7586,7.7385,7.7134,0.0,0.0,0.0,0.0,0.0,0.0,0.0,0.0,0.0,7.603,7.603,7.5979,7.5527,7.4925,7.4423,7.4423,7.3117,7.2012,7.3117,7.2816,7.2615,7.4071,7.5678,7.7436,7.9344,8.0398,8.0951,8.0599,8.065,8.1051,8.2156,8.296,8.4014,8.547,8.5671,8.5722,8.5973,8.5822,8.5772,8.5973,8.6023,8.6023,8.6023,8.6023,8.5922,8.5671,8.5671,8.542,8.4818,8.4064,8.3361,8.2658,8.1353,8.0449,7.9896,7.9294,7.9193,7.9545,8.0147,8.0198,7.9846,7.9043,7.8591,7.834,7.7436,7.6833,7.6582,7.6783,7.6733,7.6532,7.6431,7.623,7.603,0.0,0.0,6.5282,6.7619,0.0,6.8502,7.1101,7.2765,7.2804,7.0318,6.9496,6.8324,0.0,0.0,0.0,7.1213,7.3306,7.4473,0.0,7.3971,7.3669,7.3669,7.372,7.4473,7.603,7.7034,7.7536,7.7536,7.7687,7.8038,7.854,7.854,7.8842,7.9495,7.9947,7.9595,7.8741,7.9746,7.9243,7.7888,7.834,7.8239,7.7737,7.7185,0.0,0.0,0.0,0.0,0.0,0.0,0.0,0.0,7.603,7.603,7.5879,7.4875,7.3468,7.2213,7.2263,7.146,7.0807,7.1861,7.2514,7.3167,7.4272,7.6933,7.9344,7.9947,8.0599,8.1051,8.1102,8.075,8.075,8.1805,8.2859,8.3914,8.4918,8.5008,8.532,8.5822,8.542,8.532,8.5922,8.5922,8.5922,8.6023,8.5922,8.5671,8.5169,8.5069,8.4818,8.4165,8.3211,8.2608,8.2457,8.0951,7.9947,7.9394,7.8792,7.854,7.8641,7.9093,7.9294,7.9193,7.8088,7.7335,7.6783,7.6281,7.603,7.608,7.6632,7.6532,7.618,7.6682,7.6582,7.618,0.0,0.0,7.288,7.1201,0.0,0.0,7.4938,7.4884,7.468,7.4043,7.3102,7.2314,7.1832,7.2712,0.0,7.3648,7.4484,7.5075,7.5075,7.4573,7.4222,7.4222,7.4674,7.5276,7.603,7.6281,7.6431,7.6431,7.7687,7.839,7.854,7.854,7.9043,7.9997,7.9695,7.9695,7.9846,7.9645,7.9344,7.8992,7.8641,7.844,7.8289,7.7737,7.7235,0.0,0.0,0.0,0.0,0.0,0.0,0.0,7.603,7.603,7.603,7.5778,7.5126,7.4623,7.5025,7.4021,7.3016,7.372,7.3971,7.4222,7.4925,7.6281,7.7687,7.8691,8.0047,8.1152,8.1553,8.1905,8.2357,8.301,8.3713,8.4215,8.4466,8.4868,8.5109,8.532,8.4818,8.4918,8.5922,8.5571,8.5521,8.5973,8.5571,8.5209,8.5169,8.4717,8.4064,8.306,8.2809,8.2056,8.075,8.0398,7.9947,7.9394,7.8792,7.8741,7.9193,7.8842,7.849,7.8038,7.7335,7.6733,7.623,7.608,7.603,7.608,7.618,7.6431,7.6733,7.6833,7.7084,7.7285,0.0,0.0,0.0,0.0,0.0,0.0,0.0,0.0,7.5226,7.5226,7.4272,7.3569,7.3569,7.387,0.0,0.0,7.4774,7.5126,7.4875,7.4824,7.4824,7.4824,7.5327,7.5778,7.603,7.603,7.603,7.603,7.6933,7.7586,7.8139,7.8139,7.8741,7.9846,8.0047,8.0047,7.9846,8.0097,7.9896,7.9344,7.9043,7.8942,7.8892,7.8289,7.7737,7.7235,7.6984,0.0,0.0,0.0,0.0,0.0,0.0,0.0,7.5929,7.5427,7.5075,7.4774,7.4523,7.382,7.3368,7.4222,7.4824,7.5276,7.5578,7.608,7.6733,7.7586,7.9093,8.0348,8.0599,8.1302,8.2056,8.2608,8.2909,8.3311,8.3864,8.3914,8.4165,8.4667,8.4265,8.4265,8.5069,8.4918,8.4868,8.5169,8.4918,8.4617,8.4366,8.3813,8.316,8.2307,8.1754,8.0951,7.9846,7.9796,7.9394,7.8591,7.854,7.854,7.8591,7.854,7.8239,7.7687,7.7134,7.6582,7.603,7.603,7.603,7.603,7.603,7.6381,7.6833,7.6582,7.6833,7.7235,0.0,0.0,0.0,0.0,0.0,0.0,0.0,0.0,0.0,7.5377,7.4523,7.382,7.377,7.372,7.372,0.0,0.0,0.0,7.4573,7.5075,7.5377,7.5377,7.5829,7.603,7.603,7.603,7.603,7.603,7.613,7.6733,7.7687,7.7687,7.834,7.9545,8.0398,8.0298,7.9595,8.0398,8.0198,7.9394,7.9394,7.9394,7.9344,7.8842,7.834,7.7787,7.7235,7.6682,7.618,7.608,0.0,0.0,0.0,0.0,7.5879,7.4975,7.4623,7.4372,7.3519,7.3318,7.3519,7.4473,7.5377,7.603,7.603,7.603,7.618,7.6632,7.7938,7.8992,7.9193,8.0047,8.0901,8.1453,8.1704,8.2156,8.306,8.2809,8.2909,8.4064,8.3612,8.3512,8.4215,8.4215,8.4165,8.4165,8.4064,8.3763,8.3211,8.2708,8.2106,8.1553,8.0599,7.9846,7.9394,7.9294,7.8842,7.7988,7.834,7.8239,7.7687,7.8088,7.7988,7.7536,7.6984,7.6482,7.603,7.603,7.603,7.603,7.603,7.6381,7.6833,7.6482,7.6632,7.6933,0.0,0.0,0.0,0.0,0.0,0.0,0.0,0.0,0.0,0.0,7.5427,7.4824,7.4372,7.4322,7.4121,7.3619,7.4623,7.5226,7.5126,0.0,0.0,7.5929,7.603,7.603,7.603,7.603,7.603,7.603,7.6532,7.7084,7.7687,7.7687,7.854,8.0097,7.9746,7.9796,8.0097,7.9746,7.9545,7.9394,7.9394,7.9394,7.9394,7.9294,7.8892,7.834,7.7787,7.7235,7.6682,7.623,7.603,0.0,0.0,0.0,7.603,7.5879,7.5477,7.5176,7.5527,7.5628,7.5628,7.5778,7.5929,7.603,7.603,7.603,7.608,7.613,7.6733,7.7486,7.844,7.9143,7.9796,8.0348,8.1202,8.1855,8.2005,8.1955,8.2357,8.3462,8.2658,8.2658,8.4165,8.3864,8.3612,8.3612,8.316,8.2658,8.2056,8.1553,8.1001,8.0449,7.9846,7.9444,7.9394,7.8892,7.8842,7.9143,7.8741,7.8239,7.7687,7.7285,7.7034,7.6984,7.6381,7.613,7.603,7.603,7.603,7.603,7.603,7.6381,7.6933,7.7335,7.7536,7.7586,0.0,0.0,0.0,0.0,0.0,0.0,0.0,0.0,0.0,0.0,0.0,7.5025,7.4473,7.4121,7.372,7.3167,7.4121,7.5025,7.5678,7.5929,0.0,7.603,7.603,7.603,7.603,7.603,7.603,7.603,7.6281,7.6883,7.7687,7.7687,7.8591,8.0198,7.9947,7.9997,8.0198,8.0298,7.9947,7.9394,7.9746,7.9294,7.849,7.9143,7.8641,7.7637,7.8038,7.7787,7.7235,7.6682,7.6733,7.6933,7.6632,0.0,0.0,0.0,7.6582,7.613,7.608,7.5829,7.5678,7.5979,7.603,7.603,7.603,7.603,7.603,7.603,7.623,7.6682,7.7436,7.8088,7.8741,7.9595,7.9846,8.0298,8.1252,8.1102,8.1202,8.2005,8.1654,8.1654,8.2407,8.2257,8.2106,8.2106,8.1905,8.1654,8.1403,8.085,8.0449,8.0198,7.9344,7.8892,7.8892,7.8641,7.8792,7.9394,7.849,7.7938,7.7687,7.6833,7.6582,7.6833,7.6281,7.603,7.603,7.603,7.603,7.603,7.603,7.6381,7.6883,7.6783,7.6984,7.7185,0.0,0.0,0.0,0.0,0.0,0.0,0.0,0.0,0.0,0.0,0.0,7.5226,7.4674,0.0,0.0,0.0,7.387,7.4824,7.5778,0.0,0.0,0.0,7.603,7.603,7.603,7.603,7.603,7.603,7.618,7.6833,7.7888,7.7888,7.8892,8.0599,8.0348,8.0348,8.065,8.0901,8.0549,7.9796,7.9796,7.8942,7.7737,7.834,7.7837,7.6984,7.7787,7.7938,7.7637,7.7235,7.7385,7.7637,7.7235,7.7385,0.0,0.0,0.0,7.6733,7.618,7.5778,7.5527,7.5979,7.603,7.603,7.603,7.603,7.603,7.603,7.603,7.618,7.6582,7.7134,7.7787,7.8641,7.849,7.8792,8.0198,8.0047,8.0047,8.075,8.085,8.0901,8.1001,8.1051,8.0951,8.085,8.085,8.075,8.0599,8.0248,7.9997,7.9997,7.9043,7.8591,7.8741,7.8741,7.8892,7.9143,7.8189,7.7637,7.7436,7.6482,7.6281,7.6632,7.623,7.603,7.603,7.603,7.603,7.603,7.603,7.6331,7.6632,7.6381,7.6431,7.6632,0.0,0.0,0.0,0.0,0.0,0.0,0.0,0.0,0.0,0.0,0.0,7.5778,7.5276,7.5176,7.4724,7.3619,7.4071,7.4674,7.5226,7.5778,0.0,0.0,7.603,0.0,7.603,7.603,7.603,7.603,7.6582,7.7385,7.849,7.849,7.9645,8.1704,8.065,8.075,8.1704,8.1252,8.1001,8.08,7.9243,7.8239,7.7586,7.6632,7.6482,7.6883,7.6933,7.7285,7.7687,7.7687,7.7687,7.7687,7.7687,7.7687,7.7687,0.0,0.0,0.0,7.618,7.603,7.603,7.603,7.603,7.603,7.603,7.603,7.603,7.603,7.603,7.608,7.608,7.6532,7.6933,7.6984,7.7436,7.7938,7.8591,7.8641,7.9043,8.0147,8.0248,8.0449,8.1001,8.1051,8.08,8.0298,8.0248,8.0047,7.9495,7.9444,7.9444,7.9444,7.8842,7.8792,7.9344,7.9344,7.9093,7.854,7.7988,7.7436,7.6883,7.6331,7.608,7.608,7.608,7.603,7.603,7.603,7.603,7.603,7.603,7.608,7.613,7.6632,7.6532,7.618,0.0,0.0,0.0,0.0,0.0,0.0,0.0,0.0,0.0,0.0,0.0,0.0,0.0,7.5226,7.4925,7.4171,7.4623,7.5176,7.5728,7.5929,0.0,0.0,7.603,7.603,7.603,7.603,7.603,7.603,7.623,7.6733,7.7486,7.7837,7.8792,8.0248,8.0599,8.1152,8.1805,8.2005,8.1704,8.0951,7.9997,7.8842,7.7637,7.7285,7.6783,7.6431,7.7134,7.7737,7.8189,7.7837,7.8189,7.8741,7.834,7.849,7.8641,7.7888,7.7536,7.7185,7.6281,7.603,7.603,7.603,7.603,7.5979,7.5628,7.5778,7.5979,7.5578,7.5829,7.603,7.603,7.623,7.6482,7.6833,7.7034,7.7385,7.7938,7.7988,7.8289,7.9043,7.9143,7.9344,7.9947,7.9997,7.9896,7.9695,7.9695,7.9595,7.9394,7.9394,7.9193,7.8842,7.8641,7.844,7.8289,7.8641,7.854,7.7988,7.7787,7.7436,7.6883,7.6331,7.603,7.603,7.603,7.603,7.603,7.603,7.603,7.603,7.603,7.603,7.608,7.6281,7.623,7.608,0.0,0.0,0.0,7.4975,0.0,7.5377,7.5728,7.5929,7.603,7.603,0.0,0.0,0.0,0.0,7.5276,7.4724,7.5025,7.5377,7.5778,7.5979,7.603,0.0,7.603,7.603,7.603,7.5678,7.5678,7.603,7.5678,7.608,7.7185,7.7536,7.839,7.9695,8.0449,8.1152,8.1855,8.2407,8.2156,8.1202,8.0097,7.9093,7.8189,7.7436,7.7034,7.6933,7.7486,7.8189,7.8691,7.7938,7.834,7.9043,7.8641,7.8942,7.9193,7.8239,7.7988,7.7737,7.6632,7.6331,7.6331,7.6331,7.618,7.603,7.5829,7.5778,7.5728,7.5527,7.5678,7.5829,7.603,7.603,7.618,7.6532,7.6582,7.6733,7.7084,7.7285,7.7637,7.8189,7.839,7.8741,7.9344,7.9193,7.9093,7.9093,7.9093,7.9093,7.9093,7.9294,7.9143,7.854,7.854,7.8239,7.7687,7.8038,7.7988,7.7436,7.7436,7.7134,7.6582,7.623,7.603,7.603,7.603,7.603,7.603,7.603,7.603,7.603,7.603,7.603,7.603,7.603,7.618,7.6331,7.4523,7.4824,7.5025,7.4523,7.4875,7.5226,7.5276,7.5728,7.603,7.603,0.0,0.0,0.0,0.0,0.0,7.5327,7.5276,7.5276,7.5276,7.5778,7.603,7.603,7.603,7.603,7.603,7.5025,7.4975,7.603,7.4975,7.5578,7.7637,7.7687,7.8591,8.0147,8.0198,8.08,8.1754,8.2357,8.2307,8.1604,7.9444,7.8942,7.9193,7.6984,7.7134,7.844,7.7888,7.839,7.9193,7.8088,7.8088,7.8591,7.8591,7.8942,7.9294,7.8691,7.854,7.8289,0.0,0.0,0.0,7.6883,7.6482,7.618,7.6733,7.603,7.5427,7.5929,7.5628,7.5427,7.5979,7.603,7.603,7.603,7.603,7.603,7.603,7.6532,7.7084,7.7586,7.8139,7.8691,7.9294,7.8842,7.849,7.854,7.849,7.849,7.849,7.9043,7.9043,7.849,7.849,7.8189,7.7687,7.7687,7.7385,7.6833,7.6883,7.6582,7.603,7.603,7.603,7.603,7.603,7.603,7.603,7.603,7.603,7.603,7.603,7.603,7.603,7.603,7.6381,7.6883,7.4021,7.4272,7.4573,7.4423,7.4523,7.4925,7.5728,7.5979,7.603,0.0,0.0,0.0,7.603,7.603,7.5979,7.5829,7.5829,7.5829,7.5829,7.5979,7.603,7.603,7.603,7.603,7.603,7.5778,7.5728,7.603,7.5728,7.5929,7.6532,7.7335,7.7938,7.844,7.9645,8.0147,8.0147,8.1102,8.1604,8.1704,8.075,8.0198,7.9846,7.839,7.7888,7.7837,7.7285,7.7837,7.8691,7.839,7.8942,7.9746,7.9746,7.9846,7.9796,7.8792,7.854,7.839,7.7687,0.0,0.0,0.0,0.0,0.0,7.5728,7.5778,7.5778,7.5527,7.5678,7.5879,7.603,7.603,7.603,7.603,7.603,7.603,7.603,7.618,7.6482,7.7034,7.7235,7.7687,7.8691,7.8239,7.8088,7.849,7.8139,7.7938,7.7938,7.7687,7.7687,7.7938,7.7134,7.6833,7.7084,7.7084,7.6833,7.6281,7.6682,7.6582,7.603,7.5628,7.5678,7.603,7.5628,7.5678,7.603,7.603,7.603,7.603,7.603,7.603,7.603,7.603,7.6381,7.6883,7.4121,7.4222,7.4322,7.4121,7.4272,7.4724,7.5578,7.5929,7.603,0.0,0.0,0.0,7.603,7.6281,7.6281,7.608,7.603,7.603,7.603,7.603,7.603,7.603,7.603,7.603,7.603,7.5628,7.5578,7.603,7.5578,7.5628,7.608,7.6933,7.7335,7.7436,7.8641,7.9093,7.9093,7.9695,8.0549,8.1403,8.0398,8.0198,8.0398,7.8792,7.844,7.8641,7.7837,7.844,7.9444,7.849,7.8942,7.9846,7.9595,7.9846,8.0047,7.9143,7.8892,7.8741,7.8189,7.7637,7.7235,7.7235,0.0,0.0,7.5377,7.5327,7.5226,7.4674,7.4975,7.5427,7.5678,7.5879,7.603,7.603,7.603,7.603,7.603,7.603,7.6281,7.6833,7.6883,7.7235,7.8088,7.7888,7.7837,7.8139,7.7888,7.7687,7.7687,7.7385,7.7285,7.7335,7.6733,7.6431,7.6532,7.6532,7.6381,7.603,7.613,7.613,7.603,7.5477,7.5527,7.603,7.5728,7.5778,7.603,7.603,7.603,7.603,7.603,7.603,7.603,7.603,7.6532,7.7235,0.0,7.4473,7.4272,7.387,7.4121,7.4623,7.5226,7.5728,7.603,0.0,7.608,7.613,7.613,7.6582,7.6632,7.608,7.603,7.603,7.603,7.603,7.603,7.603,7.603,7.603,7.603,7.5075,7.5075,7.603,7.5075,7.5075,7.608,7.6632,7.6883,7.6883,7.7436,7.7988,7.854,7.854,7.9444,8.075,7.9294,7.9595,8.065,7.8591,7.8691,7.9796,7.8792,7.9444,8.0449,7.8591,7.8591,7.9294,7.8842,7.9294,7.9947,7.9495,7.9344,7.9193,7.8741,7.8189,7.7787,7.7737,7.6933,0.0,7.5477,7.4975,7.4473,7.3971,7.4272,7.4724,7.5226,7.5728,7.603,7.603,7.608,7.613,7.608,7.608,7.6281,7.6733,7.6833,7.7084,7.7536,7.7586,7.7637,7.7687,7.7687,7.7687,7.7586,7.7687,7.7436,7.6883,7.6883,7.6682,7.623,7.613,7.608,7.613,7.5578,7.5578,7.603,7.5477,7.5527,7.603,7.5979,7.5979,7.603,7.603,7.603,7.603,7.603,7.603,7.603,7.603,7.6733,7.7637,7.5176,7.4724,7.4523,7.4875,7.4623,7.4724,7.5728,7.5979,7.603,7.603,7.6431,7.6733,7.6733,7.6833,7.6632,7.608,7.603,7.603,7.603,7.603,7.603,7.603,7.603,7.603,7.603,7.5829,7.5829,7.603,7.5829,7.5829,7.608,7.6632,7.6883,7.6883,7.7436,7.7988,7.854,7.854,7.8992,7.9695,7.9846,7.9796,7.9595,7.8691,7.8289,7.8139,7.7938,7.834,7.9093,7.9545,7.9595,7.9444,7.9796,7.9394,7.8942,7.9294,7.9043,7.8792,7.9143,7.8792,7.8239,7.7787,7.7185,0.0,7.603,7.5829,7.5728,7.5578,7.5678,7.5778,7.5879,7.5979,7.603,7.603,7.6431,7.6582,7.613,7.6431,7.6582,7.623,7.6632,7.6933,7.7034,7.7034,7.7235,7.7687,7.7687,7.7486,7.7084,7.7486,7.7436,7.6883,7.6883,7.7034,7.7385,7.6482,7.6281,7.6733,7.618,7.5979,7.603,7.5477,7.5527,7.603,7.5578,7.5628,7.603,7.603,7.603,7.603,7.603,7.603,7.603,7.603,7.6482,7.7084,7.4573,7.4423,7.4523,7.4774,7.4623,7.4774,7.5879,7.603,7.603,7.603,7.6783,7.7285,7.7285,7.7536,7.7385,7.6532,7.6482,7.6331,7.608,7.603,7.603,7.603,7.603,7.603,7.603,7.603,7.603,7.603,7.603,7.603,7.608,7.6331,7.618,7.5678,7.6532,7.7034,7.7335,7.7888,7.8591,7.9344,7.9093,7.8792,7.844,7.7637,7.7285,7.7285,7.7285,7.7837,7.8641,7.9495,7.9796,7.9746,7.9444,7.9344,7.9294,7.9043,7.8942,7.8992,7.9294,7.8942,7.844,7.8189,7.7687,0.0,0.0,7.5879,7.5829,7.4975,7.5276,7.5628,7.5628,7.5879,7.603,7.603,7.6281,7.6381,7.608,7.6532,7.6783,7.6482,7.6482,7.6482,7.6482,7.6984,7.7536,7.8088,7.8088,7.7888,7.7335,7.7536,7.7586,7.7285,7.7285,7.7436,7.7687,7.7134,7.6883,7.6883,7.6331,7.603,7.603,7.5477,7.5527,7.603,7.5778,7.5778,7.608,7.6331,7.6482,7.6482,7.6482,7.6632,7.6883,7.6883,7.7235,7.7737,7.4071,7.4171,7.4473,7.4573,7.4473,7.4774,7.5879,7.603,7.613,7.6331,7.7034,7.7536,7.7536,7.7737,7.7586,7.6783,7.6431,7.6281,7.6381,7.5979,7.5728,7.5728,7.5929,7.5879,7.5578,7.5879,7.603,7.603,7.603,7.603,7.603,7.603,7.5578,7.4774,7.5527,7.608,7.6431,7.7185,7.8139,7.8992,7.8088,7.7837,7.7888,7.6682,7.6582,7.7034,7.6933,7.7536,7.844,7.9043,7.9444,7.9595,7.8892,7.9093,7.9444,7.8842,7.8842,7.9093,7.9344,7.9043,7.8641,7.854,7.8189,7.7486,0.0,0.0,0.0,7.4473,7.4824,7.5377,7.5377,7.5778,7.603,7.603,7.613,7.623,7.623,7.6582,7.6833,7.6733,7.6532,7.6281,7.608,7.7034,7.7938,7.849,7.8641,7.844,7.7888,7.7988,7.7988,7.7888,7.7988,7.8088,7.8189,7.7988,7.7637,7.7185,7.6532,7.623,7.618,7.5778,7.5829,7.6381,7.6482,7.6532,7.6582,7.7134,7.7436,7.7486,7.7285,7.7486,7.7888,7.7988,7.8289,7.8691,7.4875,7.4724,7.4573,7.5075,7.4724,7.4774,7.5879,7.603,7.6431,7.7385,7.7185,7.6984,7.6984,7.613,7.5778,7.613,7.4824,7.4975,7.7335,7.5678,7.4623,7.4623,7.5527,7.5377,7.392,7.5327,7.603,7.603,7.603,7.603,7.603,7.603,7.5979,7.5879,7.5477,7.613,7.7486,7.7134,7.7335,7.7888,7.7737,7.8289,7.9043,7.7385,7.7134,7.7536,7.7034,7.7285,7.7888,7.844,7.834,7.8139,7.8992,7.834,7.7536,7.8892,7.8641,7.8088,7.9143,7.9344,7.9143,7.8641,7.849,7.8239,7.7586,0.0,7.6733,7.6532,0.0,7.5979,7.5979,0.0,0.0,7.603,7.6482,7.6783,7.6783,7.6833,7.6682,7.618,7.6984,7.7134,7.613,7.7034,7.7938,7.849,7.8992,7.9043,7.844,7.8942,7.8942,7.844,7.8942,7.9444,7.9896,7.8942,7.839,7.834,7.7285,7.6783,7.6783,7.6733,7.6984,7.7536,7.8038,7.8239,7.8289,7.8842,7.9394,7.9746,7.8741,7.839,7.849,7.8992,7.9243,7.9294,7.382,7.387,7.4121,7.4674,7.4573,7.4774,7.5879,7.6331,7.6833,7.7586,7.7787,7.8088,7.8741,7.8139,7.7586,7.7486,7.6281,7.5829,7.6682,7.5578,7.5025,7.5377,7.5829,7.5728,7.5025,7.5678,7.603,7.603,7.603,7.603,7.603,7.603,7.5728,7.5126,7.5527,7.5929,7.6331,7.7034,7.7687,7.8189,7.8189,7.8641,7.9193,7.7185,7.6532,7.6733,7.6482,7.6733,7.7285,7.7837,7.8088,7.8239,7.8741,7.8641,7.839,7.8792,7.8792,7.8792,7.9243,7.9394,7.9344,7.9093,7.9043,7.8892,7.8289,7.7988,7.7737,7.7436,0.0,0.0,0.0,0.0,0.0,0.0,7.623,7.6381,7.6381,7.6682,7.6783,7.6582,7.6682,7.6833,7.6984,7.7436,7.8088,7.8942,7.9243,7.9294,7.9043,7.9545,7.9746,7.9495,8.0047,8.0449,8.07,8.0198,7.9495,7.854,7.839,7.7988,7.7385,7.8038,7.844,7.8691,7.9243,7.9344,7.9093,7.9997,8.0499,8.075,8.1202,8.08,7.9997,8.0248,8.0348,8.0348,7.3117,7.3569,7.4121,7.4372,7.4523,7.4975,7.5929,7.6632,7.7235,7.7637,7.7938,7.854,7.9846,7.9093,7.854,7.8741,7.7335,7.6431,7.6482,7.5578,7.5075,7.5176,7.5728,7.5778,7.5176,7.5728,7.603,7.603,7.603,7.603,7.603,7.603,7.5628,7.4875,7.5678,7.5929,7.5778,7.6984,7.7687,7.8088,7.8088,7.8239,7.834,7.7034,7.6331,7.603,7.603,7.6331,7.6783,7.7486,7.7988,7.834,7.8641,7.8942,7.9093,7.8842,7.8942,7.9193,7.9344,7.9394,7.9394,7.9394,7.9394,7.9294,7.8842,7.8641,7.839,7.7988,7.7486,0.0,0.0,0.0,7.6482,7.6281,0.0,7.6032,7.4987,7.5234,7.5481,7.5481,7.4484,7.4028,7.4809,7.5768,7.662,7.7564,7.8531,7.9143,7.9143,7.9846,8.0198,8.0198,8.0901,8.1252,8.1252,8.1252,8.0499,7.8992,7.9394,7.9193,7.844,7.9394,7.9997,8.0298,8.085,8.0901,8.0599,8.1553,8.1955,8.2056,8.3261,8.301,8.1955,8.1955,8.1955,8.1905,7.3569,7.4423,7.5025,7.4523,7.4875,7.5427,7.5979,7.6984,7.7687,7.7687,7.7235,7.7586,7.9243,7.7486,7.7034,7.9193,7.6883,7.5979,7.7536,7.5628,7.3971,7.2916,7.4925,7.5025,7.2866,7.4925,7.603,7.603,7.603,7.603,7.603,7.603,7.603,7.5979,7.603,7.6331,7.6833,7.6883,7.6933,7.6933,7.6933,7.6632,7.6281,7.7285,7.6984,7.603,7.603,7.608,7.623,7.7335,7.7687,7.7938,7.8992,7.8992,7.8641,7.9193,7.8992,7.8691,7.9243,7.9394,7.9394,7.9394,7.9394,7.9394,7.9344,7.8942,7.854,7.849,7.8038,7.7687,7.7687,7.7637,7.7486,7.6933,7.6833,0.0,0.0,7.1917,7.1964,7.1964,6.9502,6.783,6.7875,7.089,7.2877,7.2925,7.6412,7.854,7.854,7.9595,8.0198,8.0198,8.1252,8.1805,8.1805,8.1805,8.1252,8.0147,8.0198,8.0147,8.0147,8.07,8.1553,8.2608,8.316,8.3361,8.3412,8.3964,8.4215,8.4215,8.4265,8.4265,8.4215,8.4215,8.4215,8.4064,7.4222,7.5025,7.5628,7.5075,7.5126,7.5427,7.5979,7.6682,7.7536,7.8691,7.8992,7.9846,8.1905,8.1102,8.0599,8.0951,7.9495,7.8289,7.7737,7.6682,7.5728,7.4975,7.5678,7.5879,7.5477,7.5879,7.5385,7.3866,7.5385,7.5087,7.3284,7.5186,7.603,7.603,7.603,7.618,7.6381,7.6733,7.6883,7.6883,7.6883,7.6783,7.6582,7.6632,7.6381,7.603,7.603,7.603,7.623,7.7335,7.7687,7.7888,7.9043,7.9243,7.9143,7.9344,7.9243,7.9143,7.9344,7.9645,7.9846,7.9495,7.9645,7.9846,7.9495,7.9545,7.9545,7.9193,7.8942,7.8691,7.8289,7.7938,7.7536,7.6984,7.5376,7.3609,0.0,6.8564,6.6375,6.6682,6.7474,6.8246,6.856,7.1332,7.3146,7.325,7.6161,7.8139,7.849,7.9243,7.9997,8.075,8.1453,8.2005,8.2357,8.2357,8.1654,8.0248,8.1302,8.1453,8.08,8.2457,8.3412,8.3813,8.4315,8.4416,8.4064,8.4667,8.4868,8.4918,8.532,8.542,8.532,8.4567,8.4315,8.4215,7.4523,7.5126,7.5578,7.5025,7.5126,7.5427,7.5979,7.7034,7.8139,7.9243,8.0198,8.1553,8.3562,8.311,8.2658,8.2708,8.1704,8.0298,7.844,7.7988,7.7235,7.608,7.623,7.6431,7.6582,7.5285,7.3882,7.2338,7.3882,7.3635,7.1815,7.4788,7.603,7.608,7.6281,7.623,7.608,7.6632,7.6783,7.6582,7.6582,7.6582,7.6532,7.618,7.618,7.6331,7.613,7.603,7.623,7.7335,7.7687,7.7888,7.9043,7.9394,7.9394,7.9394,7.9394,7.9394,7.9394,7.9645,7.9896,7.9695,7.9947,8.0097,7.9746,7.9947,8.0047,7.9495,7.9394,7.9394,7.9394,7.8641,7.7938,7.7787,0.0,7.1814,0.0,6.4853,6.2062,6.2443,6.4098,6.5386,6.5795,6.8399,6.9912,6.9882,7.3673,7.6165,7.6708,7.8428,7.9896,8.1001,8.1553,8.2106,8.2658,8.2658,8.1955,8.0499,8.2156,8.2508,8.1704,8.3713,8.4717,8.4918,8.532,8.5219,8.4918,8.532,8.547,8.547,8.5822,8.6023,8.5922,8.5169,8.4667,8.4265,7.4573,7.4824,7.5025,7.4523,7.4875,7.5427,7.5979,7.7938,7.9394,7.9444,8.0901,8.2508,8.4215,8.3462,8.3261,8.4265,8.3412,8.1855,7.9695,7.9545,7.854,7.6331,7.6682,7.6733,7.5982,7.3381,7.1862,7.1453,7.1862,7.1917,7.1713,7.4688,7.603,7.608,7.6582,7.6532,7.608,7.6632,7.6532,7.603,7.603,7.608,7.608,7.608,7.6381,7.6783,7.623,7.603,7.623,7.7285,7.7687,7.7888,7.8992,7.9344,7.9394,7.9394,7.9394,7.9394,7.9394,7.9394,7.9545,8.0047,8.0198,8.0198,8.0198,8.0198,8.0097,7.9545,7.9495,7.9796,8.08,7.9695,7.8741,0.0,0.0,0.0,6.4077,6.0879,5.9336,5.9765,5.9805,5.9805,5.9805,6.2373,6.3888,6.3426,6.9018,7.271,7.3232,7.684,7.9484,8.074,8.1291,8.1949,8.2658,8.2658,8.2106,8.1051,8.2708,8.3211,8.2708,8.4416,8.547,8.6023,8.6023,8.6023,8.6023,8.6023,8.6023,8.6023,8.6023,8.6023,8.6023,8.6023,8.532,8.4315,7.5075,7.4473,7.4222,7.4925,7.5126,7.5427,7.5979,7.7586,7.9193,8.0449,8.2056,8.3713,8.542,8.532,8.5069,8.4968,8.4667,8.3763,8.1955,8.1403,8.0398,7.8591,7.8239,7.697,7.4664,7.5269,7.2679,6.669,7.2298,7.288,6.8773,7.3736,7.603,7.608,7.618,7.618,7.608,7.618,7.618,7.603,7.603,7.6281,7.6632,7.623,7.6381,7.6783,7.623,7.603,7.618,7.6833,7.7385,7.7837,7.854,7.9043,7.9394,7.9394,7.9394,7.9394,7.9394,7.9695,7.9947,7.9645,7.9896,8.0097,7.9695,8.0248,8.065,8.0097,8.065,8.1051,8.0499,8.0047,7.9394,7.8289,7.2917,6.6951,6.11,5.9626,5.9336,5.9765,5.9805,5.9805,5.9805,6.2373,6.3888,6.3426,6.68,6.9183,6.9684,7.0962,7.3475,7.7135,7.7666,7.9522,8.2658,8.2658,8.2106,8.1051,8.311,8.3612,8.2759,8.4818,8.5822,8.6023,8.6023,8.6023,8.6023,8.6023,8.6023,8.6023,8.6023,8.6023,8.6023,8.6023,8.5571,8.4918,7.4632,7.4171,7.387,7.4724,7.5477,7.623,7.7034,7.7938,7.9143,8.08,8.2457,8.3864,8.4818,8.5571,8.5872,8.5571,8.5521,8.4818,8.316,8.2508,8.1453,7.9796,7.8942,7.7107,7.4145,7.3458,7.0948,6.6407,7.0438,7.1406,6.9502,7.4037,7.603,7.603,7.603,7.603,7.603,7.603,7.603,7.603,7.603,7.623,0.0,7.618,7.623,7.6482,7.618,7.603,7.618,7.6984,7.7436,7.7837,7.8641,7.9143,7.9444,7.9695,7.9746,7.9746,7.9746,7.9997,8.0198,8.0147,8.0147,8.0198,8.0097,8.0599,8.0901,8.0348,8.0901,8.1453,8.1302,8.0499,7.8516,7.4608,7.0772,6.6255,6.0475,5.957,5.9648,6.0039,5.9765,5.957,5.9805,6.1187,6.1948,6.1541,6.4142,6.6035,6.6471,6.8184,7.1176,7.5882,7.6645,7.8813,8.2658,8.2909,8.2457,8.1403,8.3361,8.3864,8.311,8.5069,8.6023,8.6023,8.6023,8.6023,8.6023,8.6023,8.6023,8.6023,8.6023,8.6023,8.6023,8.6023,8.5671,8.5069,7.3888,7.3971,7.387,7.4423,7.5583,7.6982,7.8539,7.8992,7.9595,8.1152,8.2809,8.3813,8.3813,8.5169,8.6023,8.6023,8.6023,8.532,8.3813,8.3211,8.2206,8.0599,7.9444,7.7403,7.4383,7.0884,6.8639,6.7829,6.7994,6.919,7.1303,7.4588,7.603,7.603,7.603,7.603,7.5979,7.603,7.603,7.5979,7.603,7.603,7.603,7.603,7.603,7.608,7.613,7.618,7.6331,7.7285,7.7687,7.7988,7.8942,7.9394,7.9595,8.0147,8.0298,8.0348,8.0398,8.0348,8.0449,8.0901,8.0599,8.0348,8.08,8.0951,8.08,8.0298,8.07,8.1403,8.2307,8.075,7.7184,7.0427,6.9188,6.7038,6.1306,6.0156,6.0039,6.039,5.9765,0.0,5.9765,5.9765,5.957,5.918,6.15,6.3007,6.3533,6.6341,7.0159,7.5141,7.6291,7.8667,8.2759,8.316,8.2909,8.2056,8.3562,8.4064,8.3663,8.527,8.6023,8.6023,8.6023,8.6023,8.6023,8.6023,8.6023,8.6023,8.6023,8.6023,8.6023,8.6023,8.5671,8.5169,7.3724,7.4021,7.4473,7.5025,7.4227,7.521,7.983,8.1353,8.2206,8.296,8.4516,8.5571,8.5571,8.5822,8.6023,8.6023,8.6023,8.5671,8.4918,8.4315,8.3512,8.2307,8.1202,7.8933,7.5584,7.3581,7.0247,6.5527,6.9229,7.0124,6.8459,7.3635,7.603,7.603,7.603,7.5778,7.5427,7.5879,7.5778,7.5427,7.5879,7.603,7.603,7.603,7.603,7.613,7.6582,7.6733,7.6783,7.6984,7.7637,7.839,7.8591,7.9294,8.0198,8.075,8.0901,8.1001,8.1403,8.1202,8.0901,8.1001,8.0599,8.0248,8.0348,8.0348,8.0348,8.0248,8.1001,8.1604,8.1353,8.0248,7.743,7.1227,6.9636,6.7168,6.1702,6.0625,6.039,6.043,6.0,5.9765,5.9805,5.9492,5.9258,5.918,5.9626,5.996,6.0111,6.1203,6.4896,7.1608,7.2653,7.6402,8.3311,8.301,8.296,8.3211,8.3964,8.4265,8.4215,8.542,8.6023,8.6023,8.6023,8.6023,8.6023,8.6023,8.6023,8.6023,8.6023,8.6023,8.6023,8.6023,8.5922,8.5671,7.4121,7.4473,7.4686,7.4081,7.4096,7.5393,7.9225,8.0771,8.1959,8.3295,8.4165,8.4667,8.4667,8.547,8.6023,8.6023,8.6023,8.5671,8.4767,8.4215,8.3412,8.2257,8.1202,7.9032,7.587,7.4298,7.134,6.7038,6.8747,6.971,6.9813,7.2575,7.4688,7.603,7.5778,7.5628,7.5678,7.5628,7.5628,7.5678,7.5929,7.603,7.603,7.603,7.623,7.6532,7.6783,7.7235,7.7737,7.7737,7.8088,7.8591,7.8892,7.9545,8.0298,8.085,8.1202,8.1503,8.1754,8.1604,8.1453,8.1453,8.08,8.0298,8.0549,8.0398,8.0198,8.0198,8.1051,8.1754,8.1503,8.1001,7.9081,7.4463,7.1926,6.9117,6.5045,6.2487,6.1172,6.1406,6.0469,5.9922,6.0117,5.957,5.918,5.918,5.918,5.918,5.918,5.9961,6.2909,6.8318,7.1449,7.5643,8.1064,8.2949,8.3914,8.3914,8.4466,8.4717,8.4818,8.5621,8.6023,8.6023,8.6023,8.6023,8.6023,8.6023,8.6174,8.6374,8.6123,8.6174,8.6374,8.6073,8.6023,8.5922,7.4925,7.5377,7.5284,7.3869,7.4474,7.5649,7.74,7.8207,7.9776,8.3567,8.4014,8.4014,8.4014,8.4614,8.5026,8.5026,8.5026,8.4529,8.3325,8.3586,8.316,8.2056,8.1051,7.9398,7.692,7.4805,7.2173,6.8919,6.8067,6.8591,7.0478,7.1366,7.3236,7.5879,7.5578,7.5527,7.5678,7.5477,7.5578,7.5879,7.603,7.603,7.608,7.618,7.6482,7.6933,7.7134,7.7787,7.854,7.8641,7.8691,7.8792,7.9243,7.9846,8.0499,8.1051,8.1553,8.2005,8.2156,8.2156,8.2156,8.2005,8.1353,8.08,8.1001,8.0599,8.0198,8.0047,8.0901,8.1654,8.1805,8.1805,8.0645,7.7305,7.4108,7.0973,6.8202,6.4876,6.2614,6.2344,6.1394,6.0977,6.1142,5.9947,5.9475,6.0032,5.9515,5.918,5.918,5.9961,6.2455,6.7129,7.1464,7.5766,8.0003,8.3363,8.4868,8.4667,8.4968,8.5219,8.532,8.5822,8.6023,8.6023,8.6023,8.6023,8.6023,8.6023,8.6274,8.6575,8.6174,8.6274,8.6575,8.6174,8.6023,8.5922,7.6281,7.7084,7.7171,7.6073,7.4917,7.4097,7.4277,7.3287,7.5597,8.4602,8.5772,8.5772,8.5772,8.3294,8.1693,8.1693,8.1693,8.1214,8.0049,8.2623,8.3763,8.2658,8.2005,8.1347,8.0529,7.6331,7.236,6.8639,6.7994,6.7051,6.5954,6.9882,7.3042,7.5327,7.5778,7.5477,7.4623,7.5578,7.5728,7.5377,7.5879,7.603,7.613,7.6632,7.6833,7.7034,7.7988,7.844,7.8591,7.9143,7.9294,7.9344,7.9394,8.0097,8.1051,8.1604,8.2156,8.2708,8.3211,8.3311,8.3211,8.2708,8.2508,8.2206,8.1252,8.0599,8.0047,7.9595,8.0348,8.1252,8.1704,8.1805,8.0794,7.7675,7.4338,7.1105,6.8594,6.7141,6.5168,6.2186,6.3371,6.4228,6.3742,6.0938,6.0215,6.2773,6.0658,5.918,5.918,5.9961,6.3434,7.0312,7.2235,7.6548,8.3726,8.4206,8.4918,8.5822,8.537,8.542,8.5922,8.5973,8.6023,8.6023,8.6023,8.6023,8.6023,8.6023,8.6023,8.6073,8.6023,8.6023,8.6073,8.6023,8.6023,8.6023,7.3027,7.3682,7.359,7.2243,7.1529,7.2063,7.4945,7.3295,7.4409,8.2152,8.3115,8.3846,8.5749,8.48,8.4073,8.4073,8.4073,8.3729,8.283,8.4104,8.4315,8.3211,8.2608,8.1905,8.1051,7.8605,7.5452,7.1589,6.9245,6.8414,6.9241,6.8903,7.1041,7.5226,7.5126,7.5176,7.5427,7.5527,7.5628,7.5728,7.5979,7.623,7.6582,7.6783,7.7285,7.7938,7.839,7.8741,7.9143,7.9695,7.9645,7.9444,7.9796,8.0398,8.1152,8.1654,8.2457,8.316,8.301,8.3261,8.3361,8.2809,8.2407,8.2056,8.1604,8.1102,8.0549,7.9997,8.0499,8.1302,8.2156,8.2307,8.1985,8.075,7.7837,7.5253,7.4311,7.1691,6.9316,6.764,6.5931,6.467,6.403,6.105,5.9626,6.0768,5.981,5.9297,5.9531,6.0117,6.2917,6.8415,7.178,7.6085,8.1462,8.4032,8.5571,8.6023,8.5772,8.5772,8.6023,8.6023,8.6174,8.6425,8.6174,8.6174,8.6425,8.6123,8.6174,8.6425,8.6123,8.6174,8.6425,8.6123,8.6023,8.6023,7.1071,7.2482,7.2952,7.1558,7.1382,7.216,7.4715,7.2388,7.2266,7.7633,7.8478,8.0166,8.4186,8.2887,8.2544,8.4462,8.3733,8.3375,8.3672,8.4415,8.4466,8.3512,8.296,8.2206,8.1302,8.0198,7.7704,7.3593,7.0936,7.0102,7.0911,6.9462,7.107,7.5226,7.4975,7.5226,7.5778,7.5578,7.5778,7.6281,7.6281,7.6632,7.7134,7.7285,7.7837,7.854,7.8691,7.9143,7.9695,8.0097,8.0147,8.0147,8.0398,8.0951,8.1604,8.1955,8.2859,8.3663,8.3261,8.3462,8.3663,8.3261,8.2708,8.2257,8.2106,8.1754,8.1403,8.1001,8.1102,8.1553,8.2508,8.2658,8.2658,8.2658,8.0124,7.7997,7.7902,7.4503,7.1451,6.9935,6.7729,6.6052,6.5301,6.3257,6.2172,6.2882,6.1442,6.0349,5.9765,6.1182,6.3956,6.8479,7.3065,7.7342,8.1256,8.4466,8.6023,8.6023,8.6023,8.6023,8.6023,8.6023,8.6174,8.6525,8.6174,8.6174,8.6525,8.6324,8.6374,8.6525,8.6324,8.6374,8.6525,8.6174,8.6023,8.6023,7.1897,7.5326,7.754,7.6517,7.6357,7.5327,7.2266,6.9015,6.8095,7.145,7.2197,7.4689,8.0653,7.5611,7.4409,8.0674,7.8341,7.7687,8.0241,8.2857,8.4064,8.3512,8.296,8.2407,8.1805,8.075,7.805,7.3697,7.2965,7.1292,6.8821,7.2022,7.4075,7.5276,7.5778,7.5728,7.5276,7.5829,7.6381,7.6883,7.6883,7.7185,7.7737,7.8289,7.849,7.8591,7.9193,7.9746,8.0198,8.0198,8.0901,8.1704,8.1202,8.1754,8.2658,8.2658,8.3462,8.4315,8.4315,8.4315,8.4315,8.4315,8.3864,8.3311,8.2809,8.2658,8.2658,8.2658,8.2206,8.1955,8.2558,8.2658,8.2658,8.2658,8.0124,7.7902,7.7427,7.4273,7.0532,6.6692,6.8326,6.9412,6.8212,6.823,6.9169,7.1453,6.6896,6.2665,5.9918,6.3568,6.7716,7.219,7.666,8.0996,8.5008,8.5722,8.6023,8.6023,8.6023,8.6023,8.6023,8.6023,8.6023,8.6023,8.6023,8.6023,8.6073,8.6525,8.6425,8.6073,8.6575,8.6425,8.6023,8.6023,8.6023,8.6023,6.7965,6.943,7.0293,7.0011,6.9886,7.034,7.1531,6.8931,6.8055,7.1327,6.9884,7.0133,7.4289,7.5154,7.6086,7.7751,7.6996,7.766,8.0716,7.9672,8.0537,8.4397,8.1983,8.0991,8.1748,8.1152,7.948,7.6962,7.4857,7.1925,6.8421,7.0816,7.2356,7.3372,7.328,7.4582,7.6933,7.7084,7.7084,7.6933,7.7285,7.7536,7.7737,7.8289,7.8792,7.9193,7.9746,8.0047,8.0298,8.1051,8.1805,8.2457,8.2658,8.296,8.3311,8.3663,8.4315,8.4717,8.3964,8.4315,8.4717,8.3914,8.3914,8.4014,8.3813,8.3512,8.3211,8.3211,8.2809,8.2457,8.2658,8.2658,8.2658,8.2658,8.1854,8.0957,8.0414,7.7401,7.5118,7.5203,7.2081,7.041,7.1729,7.0155,6.9183,6.9485,6.8346,6.6405,6.3721,6.5159,6.8249,7.3065,7.7034,8.1059,8.5008,8.5722,8.6023,8.6023,8.6023,8.6023,8.6023,8.6023,8.6425,8.7077,8.6676,8.6776,8.7077,8.7278,8.7027,8.6575,8.7128,8.7027,8.6575,8.6927,8.6877,8.6525,6.5859,6.7407,6.8681,6.8681,6.8681,6.9389,7.145,6.8931,6.7592,6.9637,6.8214,6.779,6.9637,7.2116,7.4324,7.6208,7.5327,7.6045,7.9162,7.7288,7.7673,8.1159,7.882,7.8327,8.0042,7.8679,7.7601,7.7195,7.365,7.0764,6.8498,6.9478,7.0403,7.1193,7.0867,7.2144,7.4471,7.5551,7.6014,7.6017,7.7432,7.8139,7.839,7.8942,7.9394,7.9746,8.0298,8.08,8.1252,8.1905,8.2809,8.3663,8.4014,8.4265,8.4466,8.4567,8.5069,8.532,8.4667,8.4818,8.4958,8.4567,8.4416,8.4366,8.4567,8.4215,8.3813,8.3813,8.3361,8.2909,8.2708,8.2658,8.2658,8.2658,8.2508,8.2156,8.1604,7.7547,7.5425,7.7521,7.3421,7.128,7.3555,7.3334,7.2782,7.1972,7.1446,7.0546,6.9252,6.9805,7.1921,7.5653,7.9428,8.2696,8.547,8.5822,8.6023,8.6023,8.6023,8.6023,8.6023,8.6023,8.6374,8.7027,8.6877,8.6977,8.7329,8.778,8.763,8.7128,8.768,8.758,8.7128,8.7429,8.7379,8.7077,6.5547,6.8697,7.1408,7.1408,7.1408,7.1408,7.1408,6.8806,6.6875,6.6875,6.7226,6.7305,6.6914,6.7226,6.971,7.5251,7.3077,7.2755,7.5806,7.5406,7.5035,7.5013,7.4288,7.4834,7.6986,7.4172,7.3396,7.4681,7.0414,6.8418,6.8756,6.8203,6.8203,6.8756,6.8756,6.8864,6.9188,7.2219,7.366,7.4403,7.7362,7.8892,7.9444,7.9997,8.0248,8.0348,8.0951,8.1805,8.2658,8.2759,8.3813,8.5119,8.5119,8.5521,8.5822,8.532,8.5571,8.6023,8.5922,8.5571,8.532,8.5822,8.5169,8.4567,8.5069,8.4818,8.4416,8.4416,8.3914,8.3361,8.2809,8.2708,8.2658,8.2608,8.2156,8.1498,8.0735,7.5459,7.2593,7.4776,7.3112,7.2474,7.443,7.754,7.9043,7.7888,7.5875,7.4976,7.5977,7.6814,7.7818,7.9077,8.303,8.542,8.6023,8.6023,8.6023,8.6023,8.6023,8.6023,8.6023,8.6023,8.6023,8.6174,8.6625,8.6877,8.6977,8.8032,8.8182,8.768,8.8283,8.8182,8.768,8.768,8.768,8.768,6.5976,6.7111,6.8055,6.8055,6.8055,6.8055,6.8055,6.738,6.6875,6.6875,6.6992,6.6992,6.6875,6.6992,6.7584,6.9015,6.8431,6.9389,7.259,7.034,7.0909,7.5388,7.2701,7.2124,7.438,7.3292,7.246,7.2108,7.0617,6.8768,6.6788,6.6633,6.6633,6.6788,6.6788,6.8014,7.0327,7.3295,7.443,7.4403,7.7808,7.9243,7.9444,7.9997,8.0449,8.0951,8.1955,8.2457,8.2809,8.3663,8.4466,8.5119,8.5119,8.5219,8.542,8.5722,8.5922,8.5922,8.547,8.5571,8.5722,8.542,8.547,8.5671,8.5772,8.5671,8.547,8.5069,8.4466,8.3964,8.3412,8.296,8.2508,8.2106,8.1905,8.066,7.7494,7.5702,7.4912,7.5572,7.5128,7.5917,7.9088,8.013,8.0198,7.9093,7.9222,7.9448,7.9695,8.1141,8.1199,7.9537,8.3166,8.542,8.6023,8.6023,8.6023,8.6023,8.6023,8.6023,8.6023,8.6023,8.6425,8.7228,8.7379,8.768,8.8132,8.8785,8.8785,8.8283,8.8885,8.8785,8.8283,8.8735,8.8634,8.8283,6.6172,6.6562,6.6875,6.6875,6.6875,6.6875,6.6875,6.6875,6.6875,6.6875,6.6875,6.6875,6.6875,6.6875,6.6875,6.6875,6.6875,6.7592,6.9389,6.7804,6.811,7.1009,6.9311,6.9175,7.1038,6.9771,6.8656,6.7802,6.7224,6.6212,6.4679,6.4679,6.4679,6.4679,6.4679,6.5563,6.7241,7.0025,7.1086,7.119,7.5879,7.7766,7.797,8.0074,8.0404,7.9718,8.0599,8.1187,8.1787,8.2375,8.3859,8.5571,8.5571,8.5571,8.5571,8.5922,8.5822,8.5571,8.5571,8.5772,8.5922,8.5571,8.5772,8.6023,8.6023,8.6023,8.5822,8.5219,8.4717,8.4165,8.3612,8.2809,8.2156,8.1855,8.029,7.831,7.6073,7.4446,7.3919,7.5607,7.606,7.7424,8.0685,8.1252,8.1051,8.0198,8.0901,8.1503,8.1754,8.311,8.3297,8.2187,8.428,8.5671,8.6023,8.6023,8.6023,8.6023,8.6023,8.6023,8.6023,8.6274,8.6676,8.7278,8.778,8.8182,8.8534,8.9036,8.9136,8.8885,8.9187,8.9136,8.8885,8.9187,8.9136,8.8885,6.6172,6.6562,6.6875,6.6875,6.6875,6.6875,6.6875,6.6875,6.6875,6.6875,6.6875,6.6875,6.6875,6.6875,6.6875,6.6875,6.6875,6.6875,6.6875,6.6875,6.6523,6.5703,6.5976,6.6582,6.7565,6.5708,6.4414,6.3672,6.3398,6.3164,6.3047,6.332,6.332,6.3164,6.3203,6.3203,6.3205,6.5818,6.688,6.741,7.3417,7.5689,7.577,7.9747,7.9565,7.7454,7.8066,7.8867,7.9688,7.9782,8.2272,8.53,8.53,8.5587,8.5922,8.5973,8.5571,8.5219,8.5822,8.6023,8.6023,8.6023,8.6023,8.6023,8.6023,8.6023,8.5822,8.537,8.4818,8.4265,8.3713,8.2708,8.1905,8.1704,7.8369,7.5715,7.5667,7.3082,7.2428,7.5594,7.6814,7.8592,8.1191,8.1855,8.1955,8.1453,8.1905,8.2407,8.2909,8.3864,8.4717,8.5219,8.5722,8.6023,8.6023,8.6023,8.6023,8.6023,8.6023,8.6023,8.6174,8.6575,8.6877,8.7128,8.8032,8.8534,8.8634,8.9086,8.9287,8.9287,8.9287,8.9287,8.9287,8.9287,8.9287,8.9287,6.6211,6.6562,6.6875,6.6875,6.6875,6.6875,6.6875,6.6875,6.6875,6.6875,6.6875,6.6875,6.6875,6.6875,6.6875,6.6875,6.6875,6.6875,6.6875,6.6875,6.664,6.6172,6.582,6.5637,6.5459,6.4422,6.3789,6.3672,6.3984,6.375,6.3086,6.4531,6.4609,6.3633,6.3984,6.3906,6.3755,6.627,6.7299,6.7802,7.3924,7.5021,7.3607,7.7158,7.6894,7.4783,7.5732,7.6183,7.6364,7.6888,7.9186,8.1923,8.1923,8.3503,8.537,8.5822,8.5571,8.5219,8.5822,8.6023,8.6023,8.6023,8.6023,8.6023,8.6023,8.6023,8.5973,8.5922,8.542,8.4818,8.4315,8.3261,8.2257,8.1302,7.8174,7.5619,7.5144,7.506,7.5378,7.6333,7.962,8.2128,8.306,8.3612,8.3713,8.316,8.3612,8.3964,8.4064,8.4667,8.532,8.5822,8.5922,8.6023,8.6023,8.6023,8.6023,8.6023,8.6023,8.6274,8.6676,8.6776,8.7278,8.8232,8.8383,8.8735,8.9187,8.9287,8.9287,8.9287,8.9287,8.9287,8.9287,8.9287,8.9287,8.9287,6.6211,6.6562,6.6875,6.6875,6.6875,6.6875,6.6875,6.6875,6.6875,6.6875,6.6875,6.6875,6.6875,6.6875,6.6875,6.6875,6.6875,6.6875,6.6875,6.6875,6.668,6.6211,6.6289,6.6055,6.5625,6.4765,6.4375,6.4375,6.4531,6.4297,6.375,6.5,6.5117,6.4375,6.4844,6.4765,6.4457,6.527,6.5623,6.6011,7.1962,7.2774,7.092,7.6285,7.5702,7.2043,7.2734,7.3286,7.3545,7.3839,7.5925,7.8928,8.0606,8.2008,8.3341,8.5475,8.5822,8.5671,8.5922,8.6023,8.6023,8.6023,8.6023,8.6023,8.6023,8.6023,8.6023,8.6023,8.5571,8.5069,8.4818,8.3612,8.2608,8.2407,7.8661,7.5857,7.6298,7.606,7.6156,7.6918,8.0336,8.2909,8.3462,8.4014,8.4215,8.3964,8.4466,8.4717,8.4717,8.532,8.5722,8.6023,8.6023,8.6023,8.6023,8.6023,8.6023,8.6023,8.6274,8.6525,8.6776,8.7379,8.7981,8.8484,8.8785,8.9036,8.9287,8.9287,8.9287,8.9287,8.9287,8.9287,8.9287,8.9287,8.9287,8.9287,6.6211,6.6562,6.6875,6.6875,6.6875,6.6875,6.6875,6.6875,6.6875,6.6875,6.6875,6.6875,6.6875,6.6875,6.6875,6.6875,6.6875,6.6875,6.6875,6.6875,6.668,6.6406,6.6562,6.6523,6.6094,6.5351,6.4922,6.4922,6.4922,6.4765,6.4492,6.5351,6.5508,6.5117,6.5547,6.5469,6.4922,6.4609,6.4219,6.427,6.9736,7.0127,6.8202,7.4302,7.3575,6.935,6.9763,7.0175,7.0629,7.0629,7.2633,7.5686,7.8223,7.9978,8.1693,8.4186,8.5462,8.6174,8.6023,8.6023,8.6023,8.6023,8.6023,8.6023,8.6023,8.6023,8.6023,8.6023,8.5671,8.532,8.5169,8.4014,8.311,8.3261,7.9295,7.6658,7.8028,7.7066,7.6753,7.8475,8.1263,8.3261,8.3813,8.4416,8.4717,8.4717,8.5069,8.532,8.532,8.5772,8.6023,8.6023,8.6023,8.6023,8.6023,8.6023,8.6073,8.6174,8.6575,8.6927,8.7178,8.8032,8.8534,8.8684,8.9136,8.9287,8.9287,8.9287,8.9287,8.9287,8.9287,8.9287,8.9287,8.9287,8.9287,8.9287,6.6211,6.6562,6.6875,6.6875,6.6875,6.6875,6.6875,6.6875,6.6875,6.6875,6.6875,6.6875,6.6875,6.6875,6.6875,6.6875,6.6875,6.6875,6.6875,6.6875,6.6875,6.6797,6.6445,6.6055,6.5664,6.5195,6.4922,6.4922,6.4922,6.4922,6.4799,6.5742,6.5937,6.5586,6.5976,6.5703,6.4922,6.4883,6.4648,6.45,6.7819,6.7511,6.5577,6.9337,6.8985,6.6586,6.7018,6.7214,6.7254,6.7254,6.9389,7.2144,7.2308,7.6447,8.1231,8.1414,8.4027,8.6625,8.6174,8.6023,8.6023,8.6023,8.6023,8.6023,8.6023,8.6023,8.6023,8.6023,8.5973,8.5772,8.5219,8.4617,8.3864,8.2909,7.9637,7.8028,8.0361,7.8738,7.8523,8.197,8.3454,8.4416,8.4968,8.5571,8.5922,8.5922,8.5922,8.5922,8.5922,8.5973,8.6023,8.6023,8.6023,8.6023,8.6023,8.6023,8.6274,8.6726,8.6776,8.7329,8.8383,8.8433,8.8735,8.9237,8.9287,8.9287,8.9287,8.9287,8.9287,8.9287,8.9287,8.9287,8.9287,8.9287,8.9287,8.9387,6.582,6.6172,6.6445,6.6445,6.668,6.6875,6.6875,6.6875,6.6875,6.6875,6.6875,6.6875,6.6875,6.6875,6.6875,6.6875,6.6875,6.6875,6.6875,6.6875,6.6875,6.6875,6.668,6.6562,6.6406,6.5937,6.5742,6.5742,6.5742,6.5586,6.5351,6.6211,6.6406,6.5976,6.6445,6.6289,6.5742,6.5742,6.5351,6.4932,6.8034,6.7557,6.5329,6.8816,6.8578,6.6289,6.668,6.6875,6.6875,6.6875,6.7678,6.9015,7.1081,7.465,7.9091,8.3341,8.5672,8.6776,8.6927,8.7027,8.6927,8.6575,8.6525,8.6425,8.6073,8.6023,8.6023,8.6023,8.6023,8.5922,8.5722,8.5219,8.4717,8.4265,8.2243,8.1272,8.2794,8.1746,8.1421,8.3454,8.4366,8.4918,8.5119,8.5671,8.6023,8.6023,8.6023,8.6023,8.6023,8.6023,8.6023,8.6023,8.6023,8.6023,8.6023,8.6324,8.6575,8.6776,8.7479,8.8032,8.8484,8.8785,8.9086,8.9287,8.9287,8.9287,8.9287,8.9287,8.9287,8.9287,8.9287,8.9287,8.9287,8.9287,8.9287,8.9287,6.539,6.582,6.6211,6.6211,6.6562,6.6875,6.6875,6.6875,6.6875,6.6875,6.6875,6.6875,6.6875,6.6875,6.6875,6.6875,6.6875,6.6875,6.6875,6.6875,6.6875,6.6875,6.6875,6.6875,6.6875,6.6445,6.6211,6.6211,6.6094,6.5937,6.582,6.6406,6.6523,6.6211,6.668,6.6562,6.6055,6.6172,6.582,6.524,6.7481,6.7116,6.5598,6.8008,6.792,6.6445,6.6758,6.6875,6.6875,6.6875,6.6875,6.734,6.9513,7.3163,7.807,8.5023,8.7178,8.7429,8.7981,8.7393,8.6568,8.6951,8.6147,8.5381,8.6049,8.6123,8.6023,8.6023,8.6023,8.6023,8.6023,8.5671,8.532,8.5169,8.4165,8.3663,8.4215,8.3663,8.3512,8.4466,8.4918,8.5219,8.542,8.5772,8.6023,8.6023,8.6023,8.6023,8.6023,8.6023,8.6073,8.6274,8.6274,8.6274,8.6274,8.6625,8.6877,8.7027,8.8032,8.8534,8.8735,8.9136,8.9287,8.9287,8.9287,8.9287,8.9287,8.9287,8.9287,8.9287,8.9287,8.9287,8.9287,8.9287,8.9287,8.9287,6.4922,6.5625,6.6211,6.6211,6.6562,6.6875,6.6875,6.6875,6.6875,6.6875,6.6875,6.6875,6.6875,6.6875,6.6875,6.6875,6.6875,6.6875,6.6875,6.6875,6.6875,6.6875,6.6875,6.6875,6.6875,6.6445,6.6211,6.6211,6.582,6.582,6.6211,6.6211,6.6211,6.6211,6.668,6.6406,6.5625,6.6055,6.5976,6.5586,6.5586,6.582,6.6211,6.6211,6.6523,6.6875,6.6875,6.6875,6.6875,6.6875,6.6875,6.6875,6.6875,7.1743,7.8691,8.5614,8.8032,8.8584,8.9086,8.6798,8.4681,8.7029,8.4629,8.269,8.5934,8.6374,8.5973,8.6023,8.6023,8.6023,8.6023,8.6023,8.5822,8.5219,8.5119,8.4968,8.4416,8.4315,8.4567,8.5069,8.5169,8.537,8.5922,8.6023,8.6023,8.6023,8.6023,8.6023,8.6023,8.6023,8.6274,8.6776,8.6776,8.6776,8.6776,8.6776,8.7027,8.763,8.8182,8.8785,8.9287,8.9287,8.9287,8.9287,8.9287,8.9287,8.9287,8.9287,8.9287,8.9287,8.9287,8.9287,8.9287,8.9287,8.9287,8.9387,6.4883,6.539,6.5781,6.5781,6.6406,6.6875,6.6875,6.6875,6.6875,6.6875,6.6875,6.6875,6.6875,6.6875,6.6875,6.6875,6.6875,6.6875,6.6875,6.6875,6.6875,6.6875,6.6875,6.6875,6.6875,6.6758,6.668,6.668,6.6562,6.6562,6.668,6.668,6.668,6.668,6.6797,6.6758,6.6523,6.664,6.6406,6.6055,6.6055,6.6094,6.6211,6.6211,6.6523,6.6875,6.6875,6.6875,6.6914,6.7226,6.7109,6.738,6.9879,7.342,7.7731,8.3179,8.4642,8.4642,8.5561,8.1691,7.8607,8.3467,8.1903,7.9846,8.267,8.2997,8.3229,8.5525,8.6023,8.6023,8.6023,8.6023,8.5822,8.5219,8.5119,8.5069,8.4918,8.4918,8.5119,8.5671,8.5722,8.5822,8.5973,8.6023,8.6023,8.6023,8.6023,8.6023,8.6023,8.6023,8.6274,8.6776,8.6425,8.6425,8.6776,8.7529,8.7881,8.763,8.8584,8.9136,8.9287,8.9287,8.9287,8.9287,8.9287,8.9287,8.9287,8.9287,8.9287,8.9287,8.9287,8.9287,8.9287,8.9287,8.9287,8.9287,6.5078,6.543,6.5664,6.582,6.6406,6.6875,6.6875,6.6875,6.6875,6.6875,6.6875,6.6875,6.6875,6.6875,6.6875,6.6875,6.6875,6.6875,6.6875,6.6875,6.6875,6.6875,6.6875,6.6875,6.6875,6.6875,6.6875,6.6875,6.6875,6.6875,6.6875,6.6875,6.6875,6.6875,6.6875,6.6875,6.6875,6.6875,6.668,6.6445,6.6445,6.6445,6.6445,6.6445,6.664,6.6875,6.6875,6.6992,6.7148,6.7383,6.7422,6.7979,7.1249,7.3597,7.5913,7.9884,8.0905,8.1024,8.1722,7.8049,7.5058,7.8732,7.7929,7.7006,7.9884,8.0939,8.1633,8.2374,8.4334,8.5637,8.4299,8.5138,8.5922,8.5571,8.547,8.547,8.547,8.4367,8.4179,8.5861,8.4913,8.4575,8.5911,8.6023,8.6023,8.6023,8.6023,8.6023,8.6023,8.6023,8.6274,8.6776,8.6475,8.6425,8.6776,8.7881,8.8182,8.763,8.8785,8.9287,8.9287,8.9287,8.9287,8.9287,8.9287,8.9287,8.9287,8.9287,8.9287,8.9287,8.9287,8.9287,8.9287,8.9287,8.9287,8.9287,6.5351,6.5586,6.5781,6.6172,6.6562,6.6875,6.6875,6.6875,6.6875,6.6875,6.6875,6.6875,6.6875,6.6875,6.6875,6.6875,6.6875,6.6875,6.6875,6.6875,6.6875,6.6875,6.6875,6.6875,6.6875,6.6875,6.6875,6.6875,6.6875,6.6875,6.6875,6.6875,6.6875,6.6875,6.6875,6.6875,6.6875,6.6875,6.6875,6.6875,6.6875,6.6875,6.6875,6.6875,6.6875,6.6914,6.6875,6.7148,6.75,6.75,6.7851,6.8639,7.1162,7.2454,7.3579,7.6222,7.7325,7.7638,7.7638,7.5535,7.329,7.329,7.3205,7.4089,7.7289,7.957,8.0258,7.7644,8.138,8.4186,8.1299,8.3343,8.5525,8.5525,8.5861,8.5911,8.5637,8.3115,8.2315,8.525,8.3001,8.2496,8.5637,8.6023,8.6023,8.6023,8.6023,8.6023,8.6023,8.6023,8.6274,8.6776,8.6726,8.6776,8.6877,8.7881,8.8132,8.763,8.8785,8.9287,8.9287,8.9287,8.9287,8.9287,8.9287,8.9287,8.9287,8.9287,8.9287,8.9287,8.9287,8.9287,8.9287,8.9287,8.9287,8.9287,6.5039,6.5625,6.6094,6.6211,6.6562,6.6875,6.6875,6.6875,6.6875,6.6875,6.6875,6.6875,6.6875,6.6875,6.6875,6.6875,6.6875,6.6875,6.6875,6.6875,6.6875,6.6875,6.6875,6.6875,6.6875,6.6875,6.6875,6.6875,6.6875,6.6875,6.6875,6.6875,6.6875,6.6875,6.6875,6.6875,6.6875,6.6875,6.6875,6.6875,6.6875,6.6875,6.6875,6.6875,6.7109,6.7305,6.6992,6.7148,6.75,6.75,6.8008,6.8762,6.942,7.1059,7.3206,7.421,7.4332,7.3994,7.4161,7.1782,6.9439,6.9439,6.9677,7.0689,7.3963,7.4491,7.4863,7.6727,7.7833,7.8295,7.7588,8.0141,8.2267,8.2267,8.4299,8.5138,8.261,8.1693,8.1414,8.2152,8.1645,8.2496,8.5637,8.6023,8.6023,8.6023,8.6023,8.6023,8.6023,8.6023,8.6274,8.6776,8.6374,8.6575,8.7429,8.768,8.768,8.763,8.8785,8.9287,8.9287,8.9287,8.9287,8.9287,8.9287,8.9287,8.9287,8.9287,8.9287,8.9287,8.9287,8.9287,8.9287,8.9287,8.9287,8.9287,6.5781,6.6055,6.6289,6.6523,6.668,6.6875,6.6875,6.6875,6.6875,6.6875,6.6875,6.6875,6.6875,6.6875,6.6875,6.6875,6.6875,6.6875,6.6875,6.6875,6.6875,6.6875,6.6875,6.6875,6.6875,6.6875,6.6875,6.6875,6.6875,6.6875,6.6875,6.6875,6.6875,6.6875,6.6875,6.6875,6.6875,6.6875,6.6875,6.6875,6.6875,6.6875,6.6875,6.7109,6.7305,6.75,6.75,6.7773,6.8164,6.8359,6.875,6.9101,6.8867,6.9637,7.0729,7.0769,7.0444,7.0079,7.0079,6.9017,6.7851,6.7851,6.8203,6.8943,7.0865,7.2155,7.2955,7.287,7.4985,7.6237,7.4453,7.6759,7.8928,7.8928,8.0327,8.0837,7.9162,7.7633,7.7751,8.0837,7.9862,8.021,8.3343,8.5274,8.5762,8.4239,8.5735,8.6676,8.6374,8.6374,8.6374,8.6425,8.6174,8.6425,8.7178,8.7429,8.778,8.8032,8.8885,8.9287,8.9287,8.9287,8.9287,8.9287,8.9287,8.9287,8.9287,8.9287,8.9287,8.9287,8.9287,8.9287,8.9287,8.9287,8.9287,8.9287,6.664,6.6523,6.6445,6.6797,6.6875,6.6875,6.6875,6.6875,6.6875,6.6875,6.6875,6.6875,6.6875,6.6875,6.6914,6.6992,6.6992,6.6992,6.6992,6.6992,6.6914,6.6875,6.6875,6.6875,6.6875,6.6875,6.6875,6.6875,6.6875,6.6875,6.6875,6.6875,6.6875,6.6875,6.6875,6.6875,6.6875,6.6875,6.6875,6.6875,6.6875,6.6914,6.7031,6.7383,6.7617,6.7773,6.8086,6.8476,6.8867,6.9219,6.9375,6.9375,6.9023,6.8711,6.8281,6.7773,6.7383,6.7031,6.6914,6.7109,6.7383,6.7383,6.7734,6.8164,6.8515,7.0664,7.1689,6.8836,7.208,7.4446,7.1494,7.3484,7.5567,7.5567,7.6045,7.6238,7.5686,7.332,7.3848,7.9675,7.853,7.8458,8.1693,8.3847,8.4189,8.2061,8.4301,8.5712,8.5934,8.5835,8.5862,8.6023,8.6023,8.6274,8.6927,8.6874,8.7358,8.8634,8.8572,8.8772,8.9287,8.9287,8.9287,8.9287,8.9287,8.9287,8.9287,8.9287,8.9287,8.9287,8.9287,8.9287,8.9287,8.9287,8.9237,8.9136,6.6289,6.6562,6.6797,6.6875,6.6875,6.6875,6.6875,6.6875,6.6875,6.6875,6.6875,6.6875,6.6875,6.6875,6.7031,6.7383,6.7422,6.7422,6.7422,6.7422,6.7265,6.6875,6.6875,6.6875,6.6875,6.6875,6.6875,6.6875,6.6875,6.6875,6.6875,6.6875,6.6875,6.6875,6.6875,6.6875,6.6875,6.6875,6.6875,6.6875,6.6875,6.7109,6.7422,6.75,6.7969,6.8594,6.8281,6.8476,6.8828,6.8867,6.914,6.9453,6.9375,6.9336,6.9101,6.832,6.8086,6.7851,6.7109,6.6914,6.6914,6.6914,6.7265,6.7617,6.7656,6.8039,6.8364,6.8684,6.8501,6.8254,6.8106,7.038,7.2388,7.2388,7.465,7.5447,7.2755,7.1899,7.3077,7.664,7.9115,8.1808,8.5075,8.0769,7.8924,8.1595,7.9462,7.9298,8.2294,8.2143,8.3213,8.5911,8.6023,8.6475,8.7479,8.4788,8.5323,8.9187,8.6395,8.6443,8.9287,8.9287,8.9287,8.9287,8.9287,8.9287,8.9287,8.9287,8.9287,8.9287,8.9287,8.9287,8.9287,8.9287,8.8986,8.8634,6.6562,6.6758,6.6875,6.6875,6.6875,6.6875,6.6875,6.6875,6.6875,6.6875,6.6875,6.6875,6.6875,6.6875,6.6914,6.7148,6.7148,6.7148,6.7148,6.7148,6.7031,6.6875,6.6875,6.6875,6.6875,6.6875,6.6875,6.6875,6.6875,6.6875,6.6875,6.6875,6.6875,6.6875,6.6875,6.6875,6.6875,6.6875,6.6875,6.6875,6.6875,6.7109,6.75,6.7773,6.8242,6.8828,6.8867,6.8984,6.914,6.914,6.9258,6.9453,6.9453,6.9101,6.8633,6.8281,6.7851,6.7383,6.6992,6.6875,6.6875,6.6875,6.6992,6.7226,6.7422,6.7305,6.7344,6.7969,6.7617,6.7226,6.7148,6.8174,6.9015,6.9015,7.0217,7.0587,6.914,6.9015,7.0217,7.3363,7.6521,7.8341,7.8033,7.7386,7.6775,7.6638,7.7088,7.7929,7.9194,8.0775,8.221,8.3229,8.5026,8.6525,8.758,8.6156,8.67,8.9287,8.7788,8.7905,8.9287,8.9287,8.9287,8.9287,8.9287,8.9287,8.9287,8.9287,8.9287,8.9287,8.9287,8.9287,8.9287,8.8935,8.8684,8.8484]}]]